GFSSE_500_spd_000.txt.gz
Wind_Speed
11 10 10 8 6 6 6 7 7 5 1 0 1 0 2 4 8 10 7 8 10 13 12 12 12 12 12 13 16 19 20 22 24 26 28 30 32 33 36 35 32 33 29
11 10 9 7 6 6 6 7 7 4 2 1 0 2 4 6 10 10 9 9 11 14 14 13 14 14 15 16 18 19 21 21 23 28 28 31 33 33 35 35 32 30 27
11 9 8 7 7 5 4 6 5 3 2 2 2 3 5 9 11 11 10 10 12 16 15 15 16 17 17 18 19 19 22 24 25 28 29 32 34 35 35 35 32 27 25
9 9 7 8 7 5 4 4 3 2 3 4 4 4 7 10 12 12 11 12 15 16 16 17 18 19 19 19 20 20 21 23 26 28 30 32 34 35 35 34 30 26 23
8 9 8 8 8 4 6 7 6 5 5 6 8 7 9 11 13 14 15 17 18 18 20 21 22 22 24 22 21 22 23 24 26 28 31 33 35 36 34 33 31 23 20
9 10 9 9 8 6 8 9 8 7 7 8 10 9 11 13 15 16 17 19 20 21 22 24 26 29 28 26 23 24 26 26 27 29 31 34 37 38 36 32 29 23 20
10 10 9 9 8 7 10 11 9 9 10 10 10 11 12 14 16 16 18 19 22 25 27 28 31 32 31 28 26 26 28 29 30 32 33 35 37 38 37 33 29 24 20
12 12 10 10 9 10 11 12 11 10 11 11 11 11 13 16 17 17 19 20 24 26 28 30 32 31 28 27 27 28 29 31 32 33 34 34 37 38 38 35 29 25 20
14 13 13 11 10 12 12 11 11 9 9 9 11 13 15 18 17 17 17 20 23 22 25 25 25 25 25 25 26 28 29 31 33 34 35 35 37 38 37 37 32 26 22
15 15 15 13 13 13 12 11 11 10 10 10 11 13 16 17 17 17 18 22 20 23 25 26 26 26 27 26 27 29 30 31 32 34 35 36 37 38 37 37 32 28 24
15 15 16 15 15 15 13 13 14 14 12 12 12 15 17 18 19 19 20 21 21 25 28 28 28 27 27 27 27 28 28 30 31 33 35 37 38 38 38 37 35 30 28
15 17 17 16 17 16 15 16 16 17 17 17 17 19 20 21 22 21 22 21 22 26 28 29 29 29 30 29 29 29 30 32 34 36 38 38 39 39 37 37 37 34 31
18 17 17 16 16 17 17 17 17 19 20 22 23 24 23 24 24 23 23 22 24 25 26 27 28 28 28 29 30 30 31 32 33 35 36 36 37 38 38 37 36 35 32
18 18 19 18 18 19 19 18 18 19 20 23 26 27 28 27 26 25 25 25 26 27 27 29 29 31 32 30 30 31 32 33 35 36 38 40 41 41 40 39 37 35 34
18 19 19 21 20 21 22 24 24 23 24 27 31 33 34 31 29 28 28 29 30 30 32 32 33 34 35 35 35 35 36 37 38 38 39 40 41 42 42 42 42 41 39
19 18 19 22 22 24 27 28 29 29 30 35 37 38 37 35 33 30 31 32 32 34 35 36 38 39 39 40 40 40 41 41 42 42 42 43 43 44 44 43 42 42 42
20 20 21 23 26 31 32 31 30 32 34 34 35 35 37 34 32 31 33 35 35 36 37 39 41 42 43 44 44 44 44 44 44 45 45 45 46 46 47 46 44 42 42
21 24 27 30 32 31 31 29 28 28 29 31 33 35 36 34 33 33 35 37 38 38 38 40 43 44 45 45 47 48 48 48 47 47 46 47 48 48 49 48 48 47 44
25 30 34 33 30 29 30 29 27 28 30 30 31 32 35 35 36 36 37 39 41 40 40 44 45 46 46 47 48 49 50 50 50 48 48 49 49 51 51 51 49 50 49
32 35 34 33 31 29 29 29 29 29 31 34 35 34 37 38 40 40 41 43 44 44 45 48 48 49 49 50 52 51 51 51 51 52 52 52 52 53 54 53 51 53 53
35 34 33 32 30 28 26 28 29 31 33 35 36 37 38 40 42 42 44 47 48 47 48 50 52 51 52 53 54 54 54 55 54 55 56 54 54 56 55 55 56 56 54
31 29 28 28 29 28 29 31 33 35 36 38 40 41 42 43 45 46 47 48 49 52 51 53 56 56 54 55 56 58 58 57 58 58 57 56 55 57 56 60 61 61 58
27 28 28 28 29 30 31 31 34 36 36 38 40 40 41 42 43 45 47 49 50 51 52 53 54 57 58 57 59 60 63 63 62 57 56 55 55 56 62 62 61 61 63
26 25 26 28 29 30 31 31 33 34 35 37 38 39 40 40 41 43 46 49 52 54 55 57 58 59 62 63 63 63 63 63 64 64 61 60 61 62 61 59 62 62 62
26 26 28 30 32 34 36 38 39 40 42 44 46 47 48 49 48 50 53 56 58 60 59 60 62 64 65 67 66 67 66 63 61 65 66 63 67 63 58 58 58 59 61
29 31 34 36 38 40 42 44 45 46 48 50 52 53 54 55 56 57 59 60 62 64 65 64 65 65 66 67 67 67 67 66 64 66 68 67 70 64 62 57 57 55 57

GFSSE_500_spd_003.txt.gz
Wind_Speed
10 10 8 7 5 5 5 5 3 5 5 4 5 5 4 1 4 8 7 8 8 10 13 12 12 13 13 14 15 17 17 19 21 22 25 27 28 32 34 36 36 33 32
8 9 7 6 5 5 6 4 5 7 7 5 4 4 2 2 5 8 7 8 9 11 14 13 15 16 17 17 17 18 18 19 20 23 25 28 29 32 35 37 38 35 31
9 8 7 6 7 5 3 3 5 6 7 6 5 5 4 4 6 8 9 10 11 13 14 15 16 18 19 21 20 20 21 21 21 22 24 27 29 31 34 36 37 36 32
9 6 6 7 7 4 4 2 3 5 5 6 7 7 5 5 7 9 11 12 14 15 16 19 21 23 24 25 25 24 23 23 24 25 26 28 31 33 35 35 36 33 31
7 7 6 6 7 6 4 5 5 7 8 7 8 8 8 7 9 11 13 14 16 18 19 21 24 26 27 28 30 27 25 24 25 28 30 32 34 35 36 36 35 34 31
6 7 7 6 5 6 7 8 9 11 10 9 9 9 9 9 11 13 14 16 17 19 23 23 25 26 29 30 29 25 24 25 25 29 31 33 34 35 36 37 35 35 33
7 7 9 9 7 6 7 9 12 14 12 11 10 10 10 11 13 16 15 15 16 20 19 22 24 25 25 25 25 24 23 24 26 29 30 32 33 34 35 35 35 34 33
9 9 10 10 9 8 8 10 13 15 13 11 10 9 11 13 15 17 15 14 16 17 19 21 23 23 22 21 21 21 23 25 26 28 30 31 32 33 34 34 35 35 33
12 12 12 11 11 9 9 11 12 13 11 9 8 9 11 13 15 17 15 14 17 16 18 20 21 21 21 22 22 22 23 24 26 27 28 30 32 34 35 34 34 34 33
13 14 15 14 12 12 10 11 11 12 11 10 9 10 12 15 16 17 17 17 16 16 18 21 21 20 20 22 23 25 26 27 27 28 30 31 31 31 33 34 34 35 36
16 14 15 15 13 14 13 13 13 14 14 14 13 13 15 16 18 19 20 20 18 18 19 20 20 20 21 22 23 22 22 23 25 27 29 30 31 32 33 34 35 36 36
18 16 15 15 14 15 16 15 16 16 17 18 19 20 20 21 21 23 23 23 22 23 21 22 23 23 24 24 25 25 25 26 28 29 31 31 32 33 33 34 36 36 36
18 16 16 16 17 14 17 17 18 18 20 20 21 23 24 24 24 26 27 27 26 26 26 26 26 26 27 28 29 28 28 29 30 32 34 35 35 36 36 37 37 37 38
19 17 16 16 18 18 17 18 19 21 21 22 23 24 27 28 30 32 31 31 30 28 29 30 30 30 31 31 32 32 32 33 34 35 36 38 38 38 39 39 39 39 40
20 16 16 18 20 20 21 21 21 23 26 28 29 31 34 37 39 39 38 36 33 32 32 33 34 35 36 35 35 36 36 36 37 38 40 40 41 41 42 43 42 41 42
19 16 16 19 20 20 22 24 26 30 31 34 35 38 39 42 42 40 40 37 35 35 35 36 37 36 38 38 39 39 38 38 40 41 42 42 42 43 44 44 45 45 44
19 16 19 19 22 23 26 30 34 32 31 33 34 36 38 39 38 37 37 37 37 37 38 38 38 39 41 42 42 44 43 44 44 44 44 44 46 47 47 48 48 48 48
19 21 22 23 25 30 32 30 28 27 27 28 30 31 33 35 37 38 37 36 38 39 41 43 42 42 44 46 48 48 48 49 48 47 46 47 49 49 50 48 50 50 49
20 24 27 29 30 31 32 30 26 27 27 29 30 33 34 34 36 36 37 38 39 41 44 46 45 47 48 50 51 50 51 50 49 49 50 51 50 51 52 51 50 50 49
25 30 34 35 33 30 29 29 27 25 28 29 31 33 35 36 37 38 39 41 43 43 45 49 50 52 53 53 54 51 50 50 50 50 52 53 56 53 51 50 49 49 47
32 34 34 32 30 26 25 26 28 29 29 31 33 36 38 39 40 41 42 42 44 44 45 47 50 51 52 53 55 53 52 53 53 54 54 54 54 55 53 51 50 50 50
34 31 28 26 25 25 24 24 26 28 29 32 35 36 38 39 39 40 41 42 43 46 46 46 48 50 52 54 57 58 58 57 58 59 57 55 55 54 51 53 54 52 54
29 27 26 26 27 27 27 27 27 30 31 34 37 38 41 42 43 44 45 46 45 47 48 48 50 53 54 56 58 62 64 64 63 59 58 57 55 54 53 52 53 54 52
26 25 26 27 28 30 31 32 33 35 37 40 42 44 45 47 49 50 52 54 55 56 56 58 59 61 63 62 61 61 64 66 67 67 61 58 60 56 55 53 52 50 48
25 26 28 29 31 34 36 39 41 43 45 47 50 52 53 55 57 57 58 58 60 61 62 62 64 65 65 66 66 66 68 67 65 70 73 65 63 58 60 59 54 48 50
27 30 32 35 38 40 42 45 47 49 50 51 52 53 54 55 57 59 60 61 62 64 66 68 70 70 70 70 69 69 69 73 69 69 70 72 72 65 65 62 58 51 48

GFSSE_500_spd_006.txt.gz
Wind_Speed
9 10 10 9 7 6 6 7 7 5 5 5 5 7 8 6 6 7 8 6 8 9 10 12 12 14 16 16 17 18 17 17 18 19 18 20 22 24 27 30 32 32 33
9 8 8 8 7 6 5 6 7 7 6 6 7 8 8 7 7 7 7 6 8 10 12 14 14 15 18 18 19 20 20 20 21 21 22 22 23 27 29 31 32 33 33
10 7 8 7 8 6 5 5 8 8 8 8 8 9 8 7 7 7 7 9 10 12 14 15 18 20 22 23 24 25 25 23 23 22 24 26 27 29 31 31 32 33 32
9 7 8 7 7 6 5 4 6 7 7 7 9 9 8 7 7 8 9 10 12 12 13 16 19 21 24 27 29 30 30 27 24 25 24 25 27 29 31 32 33 34 32
10 7 8 7 7 7 6 6 7 9 8 8 9 11 11 11 10 10 10 12 12 12 14 15 18 21 21 23 24 25 27 25 23 25 25 26 28 31 31 31 32 32 32
12 8 9 8 8 7 7 8 11 11 11 11 11 10 10 12 11 13 13 14 13 12 13 15 19 21 22 22 22 22 21 21 22 22 24 26 27 29 28 29 29 29 29
13 10 10 10 9 8 7 7 9 13 13 13 13 12 10 11 12 15 16 16 13 13 12 16 18 21 21 20 19 19 19 18 19 20 22 23 24 25 26 27 28 26 26
13 12 11 11 11 11 10 8 8 12 14 14 14 11 10 12 13 16 17 15 14 13 13 15 17 19 19 18 18 19 20 19 19 19 21 24 25 25 25 26 27 28 28
13 14 12 14 14 14 11 10 9 10 13 14 13 12 13 13 14 16 16 16 15 15 15 15 15 15 17 17 17 17 18 19 19 20 21 23 24 25 26 26 27 27 28
13 14 15 14 16 15 13 12 11 11 12 14 15 15 15 16 16 16 16 17 18 18 17 19 16 16 17 18 19 19 20 20 21 23 23 24 25 26 27 28 30 31 32
14 14 16 15 16 17 17 14 14 14 15 17 18 18 19 21 21 20 20 20 22 22 21 22 22 21 21 22 22 22 22 22 23 24 27 28 29 31 32 32 33 34 34
15 15 16 17 16 17 17 17 17 18 19 20 22 23 24 26 26 25 24 24 25 26 27 26 26 27 27 26 27 27 27 27 28 28 30 32 33 34 35 36 37 37 37
17 15 17 17 18 18 18 18 19 20 21 23 25 25 27 28 29 30 29 28 30 30 32 31 31 32 32 31 32 32 31 30 30 30 31 33 35 36 38 39 40 40 39
19 19 17 17 18 19 20 20 20 21 23 26 28 28 29 31 31 33 35 37 39 36 35 36 37 36 35 35 35 35 35 34 34 34 35 36 38 39 40 41 42 43 43
21 22 19 17 19 19 20 22 23 25 26 27 29 32 34 36 38 39 41 43 43 39 39 40 41 41 40 38 38 38 38 38 38 39 40 41 41 41 41 41 42 43 44
24 24 21 18 18 19 22 25 26 27 29 33 37 38 40 42 43 45 46 45 42 41 42 41 42 43 43 43 43 42 43 44 44 45 45 44 44 43 43 43 44 44 45
26 24 23 20 19 22 25 27 29 31 34 36 36 36 36 37 38 40 40 40 41 42 43 42 43 45 47 47 47 48 48 48 47 47 47 47 46 45 45 45 47 47 47
24 21 21 22 24 26 30 33 35 35 34 35 35 35 36 36 36 38 38 40 41 42 42 43 44 46 48 51 52 53 53 53 52 51 48 49 49 49 49 48 49 51 50
21 22 23 25 29 32 35 35 34 32 31 31 32 33 34 35 36 36 37 38 39 41 42 44 46 48 49 51 54 56 57 57 55 52 52 53 52 53 53 53 52 52 52
21 25 28 31 34 36 35 32 28 25 24 27 29 31 32 34 36 37 38 40 43 45 46 47 49 51 52 53 56 57 58 58 57 55 55 56 56 57 58 57 55 54 54
25 29 32 33 33 31 29 28 26 26 25 26 29 31 32 33 35 36 36 37 39 40 42 42 44 46 47 51 54 55 57 57 57 58 59 59 59 60 58 56 58 56 54
31 34 34 33 29 26 25 25 26 27 29 30 32 33 35 37 40 41 43 44 45 47 49 50 51 52 52 54 57 61 62 60 59 62 63 63 62 62 58 56 57 59 56
35 36 35 30 28 27 27 27 28 29 31 34 37 39 42 44 46 49 50 52 54 54 55 55 56 58 59 59 61 65 67 67 66 61 63 64 64 63 60 61 61 58 56
35 33 29 29 30 29 30 31 34 36 37 39 41 44 46 48 49 51 52 54 55 57 58 60 61 62 63 64 66 66 67 70 73 74 64 64 66 64 63 61 60 58 54
28 27 27 28 30 32 34 36 38 39 40 41 42 45 47 49 52 54 55 58 60 62 64 67 68 70 71 72 72 73 74 73 71 72 74 64 61 60 60 62 62 60 56
25 27 29 30 31 32 34 36 37 39 42 44 47 49 52 55 57 60 61 63 64 66 67 69 70 70 70 71 71 70 68 67 64 65 67 65 64 59 62 64 63 61 58

GFSSE_500_spd_009.txt.gz
Wind_Speed
11 11 12 11 10 8 9 10 8 9 8 7 5 5 6 7 7 8 9 7 6 8 10 13 14 14 15 17 17 19 19 20 21 22 22 23 23 24 24 26 28 28 29
11 11 10 10 10 9 9 10 9 10 10 8 6 7 8 8 7 9 9 8 8 10 12 14 16 17 20 22 22 24 25 25 25 24 25 25 26 26 26 27 30 30 30
13 12 11 10 9 10 10 9 10 12 11 9 8 8 8 9 8 10 11 11 11 12 13 14 15 17 18 20 22 23 25 28 30 27 25 26 26 27 27 28 29 29 29
12 11 12 10 10 10 10 9 9 11 10 10 9 9 9 10 10 12 13 14 14 14 12 13 13 16 19 21 22 21 22 24 24 22 22 24 25 26 26 26 25 25 26
12 12 13 11 10 10 10 9 9 11 10 11 10 11 11 14 13 13 14 16 15 14 11 13 15 19 21 22 22 21 19 19 21 18 19 19 20 22 22 22 22 23 24
13 12 13 13 11 10 10 10 12 13 13 13 13 12 13 15 15 14 16 18 16 15 12 13 16 19 19 20 20 18 17 16 17 16 16 16 17 18 20 21 21 22 24
13 12 14 14 12 12 11 9 10 15 15 16 15 15 15 15 15 15 17 18 17 15 14 14 15 17 16 17 17 16 16 16 16 16 17 17 17 17 18 19 20 22 23
13 13 14 14 14 13 12 12 11 12 15 16 18 17 17 15 15 17 17 18 16 15 16 16 16 16 14 15 16 17 17 16 15 15 16 17 18 19 20 22 23 24 26
13 12 15 14 14 15 14 14 14 12 13 15 19 18 17 17 17 18 17 16 16 18 19 19 19 18 16 16 17 18 18 19 18 18 19 20 21 22 24 25 26 27 28
13 13 14 15 15 17 17 17 16 15 14 14 18 18 19 19 19 19 18 18 19 20 22 23 24 23 23 21 20 22 22 23 23 23 22 23 24 25 26 28 30 30 31
13 13 15 16 16 18 19 19 20 18 19 18 20 20 21 23 23 24 24 24 24 24 25 27 29 29 29 29 28 27 28 28 29 29 28 27 27 28 29 31 32 33 34
13 14 15 16 18 18 20 20 21 22 22 21 23 25 26 27 28 29 29 30 28 28 28 30 32 34 36 36 35 34 33 33 33 33 34 33 33 33 34 36 36 36 36
14 15 17 17 18 18 20 21 21 23 22 24 26 27 29 30 31 31 31 34 33 32 36 37 39 38 40 41 41 40 38 38 37 37 37 38 38 38 39 42 43 41 40
16 16 17 17 19 19 20 21 23 23 24 26 28 29 31 32 34 35 37 38 40 41 45 45 45 44 43 44 45 45 45 43 42 42 41 42 43 44 45 46 46 45 44
20 20 20 20 20 20 20 21 22 24 26 28 30 32 34 36 38 40 42 44 45 47 48 49 47 44 44 45 46 48 49 49 48 47 47 47 48 49 49 48 47 46 46
25 25 26 22 19 20 21 21 23 26 28 31 34 36 40 43 45 45 44 45 46 47 46 45 45 45 47 47 46 47 49 52 52 51 52 53 53 52 51 50 50 49 48
26 27 27 21 21 20 22 23 26 29 32 37 41 43 43 43 43 41 40 40 41 42 43 44 46 47 48 48 48 50 50 51 53 55 55 55 56 55 54 53 52 52 51
24 25 23 21 21 22 24 27 31 34 38 42 42 41 41 40 39 38 37 38 38 39 41 42 44 46 47 49 51 52 53 55 55 55 56 57 57 57 56 56 55 54 54
22 22 21 22 24 26 29 32 35 38 37 35 33 33 34 35 34 34 35 37 38 39 40 41 41 43 44 45 48 50 51 54 55 56 55 56 56 57 57 58 57 57 57
20 19 21 24 29 32 34 36 37 36 34 31 30 31 32 32 32 32 32 34 36 37 39 40 42 44 46 48 49 49 52 54 54 55 55 58 58 59 61 59 60 60 61
21 22 25 29 32 36 38 38 36 33 32 31 30 29 30 31 33 34 36 38 40 42 44 46 48 50 50 52 54 54 55 56 58 58 60 63 63 62 64 61 62 62 62
23 26 29 32 34 36 36 34 32 31 29 29 31 32 34 36 38 39 41 43 45 47 49 51 53 55 56 57 60 62 61 59 58 61 63 64 65 65 65 64 64 64 64
27 31 33 34 35 33 30 29 28 29 30 31 33 35 36 38 40 43 45 46 49 51 53 56 58 61 63 64 66 69 71 71 71 68 66 66 66 68 67 66 66 63 63
32 34 35 33 30 27 27 28 30 30 32 33 35 37 40 42 45 48 51 53 56 58 60 61 63 64 65 66 67 68 70 73 76 76 71 68 62 62 60 59 59 60 59
35 33 28 26 26 28 29 31 32 33 34 36 39 42 45 48 50 53 54 55 55 57 58 60 61 64 66 68 69 70 71 72 73 75 76 75 71 64 60 60 59 59 58
30 28 27 27 29 30 32 34 35 38 39 41 44 47 49 50 50 52 55 57 59 61 62 63 65 67 68 69 71 72 74 75 77 79 80 79 77 73 63 61 59 56 63

GFSSE_500_spd_012.txt.gz
Wind_Speed
12 13 13 13 13 12 13 10 10 11 11 9 8 7 8 8 8 8 9 8 6 8 9 11 12 12 15 18 20 21 23 24 24 24 23 23 23 24 25 25 26 27 27
12 12 13 12 13 12 13 12 13 13 13 11 9 9 9 10 9 10 11 10 9 10 11 12 13 13 15 15 17 19 21 21 22 25 28 27 25 25 24 24 26 26 25
14 12 12 12 12 12 13 13 13 13 14 13 12 10 11 10 10 11 12 12 13 15 15 13 12 13 14 18 20 21 23 22 20 20 21 21 21 22 22 22 23 22 22
12 11 11 12 12 13 14 14 13 12 14 15 12 11 12 12 11 10 12 13 15 17 16 15 14 14 16 20 22 23 24 22 18 16 16 16 16 17 17 16 17 19 19
10 11 11 12 13 13 13 14 12 12 13 14 13 11 14 14 12 13 14 16 17 17 17 15 14 14 17 20 22 22 21 20 17 14 13 14 14 14 15 15 15 15 17
11 11 12 13 13 14 13 12 12 13 14 15 15 12 15 15 13 14 18 18 19 18 19 17 16 15 17 17 17 17 17 17 16 15 13 13 13 13 14 14 15 16 18
10 11 12 13 12 15 14 13 12 13 17 18 18 17 16 16 15 16 18 19 20 20 19 18 18 19 18 17 15 15 16 16 15 14 14 13 14 15 16 16 18 19 20
11 12 12 14 12 14 15 15 14 13 15 19 22 21 19 18 18 17 19 20 20 19 17 19 21 21 21 20 20 17 17 17 17 16 16 17 17 18 19 20 22 23 25
12 12 12 14 14 13 16 16 17 16 16 16 20 21 20 20 20 19 20 20 20 19 19 20 22 23 25 26 26 25 22 21 21 21 21 22 22 22 23 23 24 25 26
13 13 13 13 15 15 16 18 18 20 19 18 18 19 20 21 21 21 22 23 24 24 23 24 26 26 27 29 32 32 31 29 29 28 28 28 28 28 28 28 28 29 31
14 13 13 14 15 16 18 19 21 22 23 22 22 21 22 22 25 25 26 29 31 31 30 28 30 31 30 32 35 38 38 38 37 36 36 34 34 34 34 34 34 35 36
14 13 13 14 15 16 19 21 23 24 26 26 25 25 26 26 28 29 31 32 34 34 34 34 34 36 39 40 41 41 42 42 43 43 42 41 39 39 40 40 40 40 42
15 16 16 15 16 17 19 21 23 25 26 26 27 28 28 29 31 32 33 35 36 37 37 39 42 43 45 45 46 47 45 45 46 47 47 47 46 46 45 45 45 46 46
18 18 18 18 19 19 20 21 22 24 25 26 28 28 29 31 33 35 36 38 39 42 44 45 47 48 50 51 50 47 45 45 45 46 49 51 51 52 52 51 50 51 51
21 21 21 22 22 19 21 20 20 22 23 25 28 29 31 33 36 38 41 43 46 47 47 47 46 45 45 44 45 45 46 46 46 46 47 49 51 53 54 55 54 54 54
23 23 24 24 23 21 20 20 21 23 24 26 29 31 34 38 43 46 46 44 43 42 40 40 40 41 42 43 44 45 46 47 48 49 49 49 51 52 53 55 56 56 56
26 26 24 25 23 22 20 21 22 25 28 31 33 36 40 45 46 45 43 41 41 41 40 39 40 41 42 44 45 46 47 48 49 50 51 51 52 53 54 55 55 56 55
28 29 29 24 25 23 21 23 25 29 31 34 37 39 40 39 38 35 35 36 37 38 39 39 40 39 39 41 42 43 44 46 47 48 48 50 51 52 53 55 56 55 55
31 30 28 23 24 22 23 27 30 33 36 37 38 36 35 35 34 32 32 32 33 33 35 37 39 41 42 44 46 47 48 50 51 53 53 55 56 56 57 57 59 60 59
26 33 25 23 23 24 27 30 33 36 37 37 36 34 32 32 31 30 31 33 36 37 39 41 43 45 46 48 50 49 50 51 52 54 56 59 60 62 63 63 63 63 64
22 24 22 23 27 30 32 34 36 37 36 35 34 32 31 32 34 35 36 38 40 41 43 46 48 49 52 55 57 57 58 58 59 59 61 61 63 65 66 66 66 67 66
20 22 24 27 31 34 37 37 36 33 31 30 31 32 34 36 38 39 41 43 45 47 49 52 55 56 57 58 60 63 63 60 58 59 60 61 62 63 62 62 62 63 65
21 23 26 30 35 37 37 33 30 29 30 31 33 36 38 39 41 43 46 48 50 52 52 54 56 59 59 60 62 64 66 67 67 65 65 65 65 65 66 66 65 65 64
22 27 31 34 35 33 30 29 30 31 33 35 37 39 41 44 46 47 47 47 49 52 54 56 58 60 61 61 62 65 69 73 76 76 74 74 73 70 67 65 65 64 66
28 31 34 35 31 30 30 32 33 35 37 38 40 42 43 43 43 45 47 51 55 57 59 60 61 63 67 69 72 75 78 80 82 85 82 80 81 80 77 75 69 65 64
33 32 32 31 31 32 35 37 37 39 40 42 42 41 41 45 49 52 55 59 62 64 66 68 70 73 75 77 79 81 83 86 88 91 93 91 90 89 89 87 84 77 72

GFSSE_500_spd_015.txt.gz
Wind_Speed
13 12 13 13 15 16 14 13 12 12 13 13 12 11 10 12 11 11 11 8 7 7 9 9 11 13 13 14 14 15 17 17 19 20 21 23 26 27 25 25 25 24 23
13 12 12 13 12 14 13 14 12 12 13 15 14 13 12 10 11 12 10 11 10 10 10 12 13 15 15 13 16 18 20 21 22 22 22 22 21 22 23 25 23 21 19
14 13 13 12 13 13 13 14 14 13 15 15 16 15 13 11 10 11 11 12 13 15 15 16 15 16 16 14 17 20 22 24 25 24 21 18 17 17 17 17 17 16 17
11 11 11 12 12 13 14 14 14 13 13 16 17 16 14 13 12 13 13 11 13 17 17 16 16 17 17 16 18 20 22 23 23 21 18 15 13 13 13 14 14 14 14
10 10 9 11 12 14 14 13 14 13 12 15 17 17 15 14 11 16 17 14 15 18 19 18 18 18 17 17 18 18 20 20 18 17 16 16 15 13 12 11 12 12 13
9 11 10 11 13 14 15 14 13 12 13 15 17 17 16 16 14 16 18 17 17 20 21 19 20 20 19 18 18 18 19 18 16 15 14 13 13 13 12 12 13 15 16
9 11 10 11 13 14 15 15 14 13 13 16 19 19 19 19 19 19 19 19 19 20 21 20 20 20 20 21 21 21 22 22 17 15 15 16 16 17 17 17 17 18 19
9 12 12 11 13 14 15 16 16 14 14 13 17 21 23 23 24 21 21 20 19 20 21 19 19 21 22 22 24 26 26 27 26 23 20 20 21 22 22 22 23 23 22
11 13 13 12 13 15 15 17 18 17 16 16 16 17 21 23 24 24 22 21 21 22 22 22 23 23 24 24 26 27 29 31 33 33 32 29 28 28 28 28 28 28 27
14 14 14 13 13 15 16 17 19 21 20 19 20 20 20 21 22 24 22 23 24 25 27 28 28 29 30 29 29 30 32 33 35 38 39 38 37 37 36 35 35 35 34
15 15 13 14 14 14 16 18 19 21 23 23 23 23 24 24 24 24 25 26 28 29 31 33 33 33 32 33 34 37 39 39 39 42 43 43 43 42 42 41 41 40 40
15 16 14 15 15 14 16 18 21 23 23 26 27 26 26 27 27 28 28 29 31 33 34 35 36 36 38 38 40 45 45 45 45 45 44 44 44 45 45 46 46 46 45
17 18 17 16 17 16 17 17 19 22 23 25 27 27 27 28 28 29 30 32 34 36 37 38 40 42 44 46 47 50 49 48 46 44 43 43 44 44 43 45 47 49 49
18 19 19 19 20 20 20 19 20 19 20 22 24 25 26 27 28 31 32 34 36 39 41 44 45 46 45 44 44 44 44 43 43 42 43 44 44 44 45 45 46 48 49
20 21 20 20 22 23 22 21 21 21 19 20 22 23 25 27 30 33 35 39 43 45 44 43 42 41 40 41 41 42 42 43 43 44 44 46 47 47 48 49 50 50 50
19 21 22 21 22 23 23 22 22 21 21 22 24 26 29 31 35 37 39 41 43 42 40 40 40 39 39 40 41 42 42 42 42 42 43 43 46 48 49 50 51 52 52
19 19 21 23 25 24 24 21 21 21 23 24 27 29 31 33 35 37 37 36 35 34 33 34 35 35 35 36 37 40 41 41 42 43 44 45 47 49 51 51 52 52 54
20 20 19 20 23 26 26 23 24 25 27 28 31 32 33 34 34 34 32 32 32 32 32 33 35 36 37 38 40 43 44 47 48 49 50 51 52 53 54 55 57 57 57
23 25 24 22 27 27 26 24 27 29 31 34 35 36 35 34 32 31 30 31 32 34 36 37 39 41 42 44 46 47 49 50 51 53 54 56 57 57 58 58 59 60 61
28 28 27 24 27 28 25 26 30 34 37 39 38 36 34 33 33 32 32 34 36 38 40 42 43 46 47 49 50 51 52 51 51 51 53 54 55 55 57 59 59 60 61
24 25 26 25 24 24 25 29 33 38 41 40 38 35 34 34 35 36 37 39 41 42 44 46 48 49 50 53 54 55 54 54 55 56 55 56 56 57 59 61 62 63 63
22 24 25 24 24 25 29 32 36 39 39 37 35 35 36 37 38 40 41 43 44 46 47 47 48 50 53 57 60 62 61 59 59 59 60 62 63 64 65 66 68 69 69
19 23 25 26 25 28 31 34 36 34 32 34 36 38 39 40 41 43 43 43 43 44 46 50 54 57 59 61 64 68 69 69 69 68 68 68 69 69 70 70 71 71 73
18 22 24 28 31 32 34 33 33 33 34 37 39 41 42 43 43 43 42 44 47 50 53 57 61 64 67 69 69 70 73 77 80 79 77 77 78 78 78 78 78 77 75
22 24 27 30 32 34 34 34 34 36 39 41 41 43 42 41 41 42 46 50 53 58 63 67 69 71 73 75 77 79 79 79 82 84 83 83 85 87 88 90 91 89 85
27 28 30 31 32 34 34 34 37 39 40 42 43 42 41 41 45 48 52 55 59 63 67 70 72 74 75 77 79 81 83 86 89 92 94 92 93 93 95 96 96 94 90

GFSSE_500_spd_018.txt.gz
Wind_Speed
17 16 16 16 15 16 15 15 15 14 14 15 16 15 13 13 15 15 14 12 10 10 10 12 13 13 13 15 17 15 16 17 19 22 24 24 25 24 25 27 27 26 25
17 16 15 15 14 14 14 15 14 15 15 15 17 16 15 14 15 15 15 14 13 13 12 13 16 16 15 17 18 17 19 20 23 26 27 26 25 23 20 19 20 19 20
18 18 18 17 15 14 14 15 16 16 15 15 17 18 17 15 15 15 14 14 15 16 16 16 18 18 16 18 19 19 19 19 23 25 23 20 19 19 18 17 15 14 14
16 15 15 16 15 14 14 16 16 15 15 14 15 18 17 16 15 16 16 15 16 16 17 16 17 18 19 18 19 19 19 19 21 22 20 18 16 16 15 15 14 13 12
15 14 12 13 13 14 15 16 15 13 14 13 15 18 18 17 17 17 18 17 20 19 19 17 18 19 21 19 21 21 19 19 20 20 19 16 15 14 13 13 13 13 13
10 10 11 12 14 15 15 16 16 14 13 14 15 17 18 18 18 18 19 19 21 22 22 20 19 21 22 22 22 22 22 21 22 21 21 19 17 16 16 17 17 18 18
11 11 12 12 14 16 16 17 17 16 15 13 16 18 19 20 21 21 22 22 22 21 20 20 18 19 20 21 22 23 24 25 26 26 24 25 24 23 22 22 23 23 24
12 12 12 12 13 14 17 17 17 17 16 16 15 15 19 22 24 25 26 24 24 21 20 20 19 21 21 22 23 24 26 27 29 29 28 29 30 31 31 30 29 29 29
13 13 12 11 12 14 16 17 18 18 19 19 19 19 19 19 21 23 24 25 25 24 22 23 24 25 27 27 29 29 29 30 31 32 32 34 35 35 36 37 37 37 36
14 14 12 11 13 14 15 17 19 19 20 22 23 23 22 22 22 21 22 23 24 26 26 27 29 31 33 33 34 34 34 35 36 37 39 41 41 40 41 41 41 42 41
15 15 13 13 12 13 14 16 19 21 22 23 25 27 27 26 26 25 25 25 26 27 29 31 33 36 37 37 37 37 37 39 41 44 45 46 46 45 43 43 43 43 43
17 18 16 15 12 11 12 15 16 19 22 23 25 27 28 28 28 28 28 28 29 29 32 34 36 38 39 42 42 44 45 45 47 49 49 49 47 45 43 43 43 44 44
20 19 18 19 16 14 15 16 18 19 20 22 23 25 26 27 28 29 29 30 31 33 35 37 39 40 44 45 47 48 47 47 46 46 46 45 44 44 44 45 45 45 46
20 20 21 21 20 19 20 20 21 21 22 21 21 22 23 24 24 26 28 30 32 34 37 42 44 46 46 44 44 44 42 41 42 43 44 45 46 46 47 48 48 49 50
22 22 21 21 20 20 21 21 23 24 23 22 21 21 22 24 25 28 31 35 36 39 41 42 41 40 40 40 40 39 39 39 41 42 42 42 43 44 44 45 46 46 47
23 23 23 25 23 23 22 21 22 25 23 23 22 24 26 28 30 33 36 37 39 37 38 37 36 35 35 35 36 37 37 38 39 41 42 43 45 47 49 49 50 50 51
20 22 23 23 23 24 23 24 25 26 26 26 26 28 30 33 35 36 37 37 36 35 35 34 34 33 34 35 36 38 40 42 44 46 48 48 49 51 53 54 55 55 55
21 22 22 22 23 25 25 24 27 29 29 28 29 32 34 36 37 37 36 35 35 35 35 34 35 36 38 40 41 43 44 46 48 50 51 53 53 54 54 54 57 58 57
22 21 22 25 27 27 28 27 28 30 30 30 33 36 39 39 37 36 35 36 36 36 37 39 40 41 42 44 45 46 46 47 48 50 52 54 55 56 57 58 57 59 61
24 25 28 30 29 28 30 29 29 29 30 33 36 39 39 39 37 36 36 37 38 39 41 42 43 45 46 46 46 47 48 50 52 54 56 57 59 61 62 63 63 64 64
29 31 31 25 26 27 26 26 28 31 33 37 40 40 39 37 37 38 39 40 41 41 43 43 43 43 45 48 50 52 55 57 58 61 62 64 65 66 67 69 70 71 72
33 32 26 25 25 25 26 27 32 34 37 39 38 37 37 37 39 40 41 42 43 43 43 43 45 47 51 55 59 62 63 62 64 67 68 68 69 69 70 71 73 74 76
29 26 22 22 24 24 26 29 32 35 36 35 35 36 37 39 40 41 42 43 42 42 44 47 49 51 54 58 63 68 70 70 71 70 70 72 72 74 74 76 77 79 81
26 26 26 27 26 28 30 31 32 33 34 35 36 38 40 40 42 42 42 41 43 46 48 50 53 57 61 65 68 69 72 76 79 78 78 79 79 80 81 82 84 86 89
26 25 26 27 29 31 32 34 34 34 34 37 39 39 40 41 42 41 42 45 48 50 53 56 61 64 70 72 74 75 77 78 80 84 85 87 88 90 90 92 93 95 96
26 26 28 29 31 32 33 35 35 35 37 38 39 39 40 41 42 44 47 49 52 55 59 62 66 70 73 75 76 79 81 84 86 88 90 90 92 92 94 95 98 101 103

GFSSE_500_spd_021.txt.gz
Wind_Speed
20 21 21 21 22 21 19 18 17 16 17 17 18 19 18 17 17 17 18 17 16 14 12 13 13 13 14 15 15 16 15 15 17 18 22 25 28 28 27 26 25 23 24
21 21 20 20 19 18 18 17 16 16 17 17 16 19 18 17 17 16 17 18 19 18 15 14 14 15 17 18 17 17 16 16 17 18 22 24 24 22 20 20 19 17 15
19 20 20 20 21 20 17 16 16 15 17 17 16 18 19 19 18 16 16 17 19 19 18 17 18 18 17 17 19 18 17 17 17 18 19 21 21 18 16 15 15 14 13
20 18 18 18 17 16 15 16 16 16 16 15 15 16 18 19 17 17 17 17 18 19 19 19 20 18 17 18 19 20 19 19 18 19 20 20 20 17 15 15 15 13 12
20 18 17 14 14 15 15 15 16 16 14 14 15 16 19 18 18 17 17 18 19 20 20 20 22 20 20 20 19 21 22 21 21 21 21 22 20 20 19 17 16 16 15
18 16 12 13 13 15 15 15 15 15 15 14 14 16 19 19 20 19 19 19 19 19 20 22 23 22 21 21 20 20 23 22 21 23 24 24 23 22 22 23 22 21 20
15 15 12 13 14 14 15 15 16 17 16 15 16 14 18 21 21 22 22 22 22 22 23 22 21 21 21 20 20 20 23 24 23 24 26 27 27 27 27 28 29 28 28
17 15 12 13 13 14 15 15 16 17 17 17 17 17 17 18 21 24 24 25 25 25 25 23 23 22 22 23 23 24 26 27 28 29 31 31 30 29 31 33 33 33 35
19 15 13 14 13 12 14 15 16 17 18 19 20 20 20 21 21 20 20 22 22 23 24 24 24 26 26 28 28 29 31 32 33 34 34 34 35 35 36 38 39 39 39
18 15 14 15 14 13 13 14 16 17 19 20 21 23 24 24 24 24 24 24 24 24 25 25 27 29 30 31 31 33 34 35 35 36 37 39 40 42 42 43 44 45 44
17 16 16 17 16 14 12 13 15 16 18 19 21 23 25 26 26 27 27 26 27 27 27 29 30 32 33 34 37 37 39 40 41 42 42 45 47 47 50 49 47 47 45
19 20 18 19 19 17 14 12 13 15 17 18 20 22 24 25 25 26 26 27 28 29 30 32 34 36 37 40 42 43 44 44 47 47 47 48 50 50 49 47 45 45 46
21 21 20 22 21 20 19 17 17 18 18 19 20 22 22 23 23 23 24 27 29 31 32 34 36 38 41 43 46 48 47 47 45 43 43 43 42 43 45 45 45 46 46
21 21 22 23 24 23 23 22 22 21 21 21 21 22 21 21 22 23 25 27 29 32 35 37 40 42 45 44 43 43 42 40 38 39 38 38 39 41 42 42 43 43 44
21 22 22 25 25 24 25 24 23 22 21 22 23 22 22 23 25 27 30 32 35 37 38 41 41 41 40 39 38 36 36 35 35 36 36 37 38 41 43 44 45 47 48
22 23 24 25 26 28 29 28 26 24 25 27 26 26 26 27 29 31 33 36 37 39 40 39 38 37 36 35 34 35 36 36 37 39 40 41 43 44 46 49 50 51 52
23 25 26 26 28 29 27 29 26 25 27 29 30 30 29 30 32 35 37 39 39 38 37 37 36 35 36 36 37 38 39 40 41 43 44 44 45 45 46 49 52 54 55
22 22 23 26 28 28 28 28 29 30 28 30 32 32 32 33 36 38 40 39 37 37 36 36 36 36 38 39 39 40 40 40 40 41 43 46 47 50 51 52 55 57 60
23 24 26 28 28 28 30 32 32 34 35 33 32 32 34 36 39 40 39 36 36 36 37 37 38 39 39 40 39 38 38 40 43 45 49 52 54 57 58 61 62 62 63
26 27 28 28 29 33 36 37 33 32 31 29 30 33 38 40 40 37 35 35 36 37 38 38 39 40 40 40 40 41 41 43 46 49 53 55 59 61 63 65 66 67 68
28 29 29 31 33 36 38 32 31 31 31 31 33 37 39 39 37 36 36 36 37 37 38 40 39 40 40 43 45 45 47 50 53 56 58 61 62 64 65 68 70 72 73
30 30 31 33 36 35 30 30 31 31 33 35 38 39 39 37 36 36 37 37 39 40 41 41 41 43 46 49 51 53 55 54 58 62 65 68 68 70 70 71 73 76 78
30 31 33 34 30 28 29 29 31 33 35 38 41 40 38 36 37 39 40 41 41 42 43 45 48 50 51 52 56 61 63 65 68 70 72 73 74 75 76 77 78 80 82
30 30 30 29 28 30 31 32 33 35 38 39 39 37 38 38 40 41 41 42 43 45 47 49 50 52 55 59 63 67 71 76 81 81 82 80 79 80 80 81 83 85 87
29 29 28 28 29 30 31 34 36 37 38 38 38 37 38 40 41 43 43 44 45 46 49 52 56 59 63 67 71 73 76 77 78 81 84 86 86 86 86 87 90 91 93
31 29 28 28 30 31 33 35 36 38 38 38 37 39 40 41 41 42 43 44 47 52 55 59 62 65 68 71 73 75 78 81 84 86 87 87 89 89 91 92 94 97 100

GFSSE_500_spd_024.txt.gz
Wind_Speed
20 20 20 21 21 21 21 20 19 18 17 17 18 18 18 18 17 17 16 17 17 17 15 15 14 14 14 11 13 14 14 14 15 14 14 15 17 21 20 17 15 15 15
22 21 21 21 21 22 21 20 18 16 16 16 16 17 16 17 17 17 16 17 18 18 18 19 17 15 15 15 16 16 14 14 15 15 15 15 15 18 18 15 14 13 12
21 20 19 19 20 21 21 19 17 15 16 15 15 15 16 17 17 16 15 16 15 17 18 18 19 19 20 19 17 16 16 15 16 17 18 17 16 16 17 16 12 12 12
22 20 18 18 19 18 18 15 15 15 16 15 13 13 14 15 17 15 16 16 16 17 17 17 18 19 20 20 20 19 19 18 16 17 19 20 18 18 17 16 17 15 12
23 19 18 18 16 15 14 15 15 15 16 13 12 11 12 13 16 16 17 16 17 18 18 20 20 21 22 22 22 22 21 21 18 17 20 21 21 20 20 20 19 18 18
21 19 17 15 14 13 13 14 15 14 15 14 13 12 12 14 17 19 19 19 19 19 20 20 20 21 22 23 23 23 22 21 20 18 20 22 23 23 24 23 23 23 24
19 18 15 13 12 13 14 13 14 15 15 15 15 13 13 13 16 19 20 22 22 23 23 23 22 22 22 22 21 22 22 22 22 21 24 26 28 28 28 27 26 27 28
22 18 15 12 13 14 14 14 14 14 15 15 15 17 15 15 16 16 18 21 23 24 23 24 23 23 22 22 23 25 26 26 27 27 28 29 30 32 31 31 30 31 33
22 18 18 14 14 14 14 13 15 15 16 16 17 17 18 19 20 20 20 20 20 20 21 23 23 24 25 25 27 28 30 30 31 32 33 34 35 36 37 38 38 38 38
24 19 19 16 16 15 16 14 14 15 16 16 17 18 19 20 22 23 24 24 23 23 24 25 26 27 28 29 31 32 35 36 35 36 38 38 39 39 41 44 44 45 45
24 20 19 19 18 16 17 14 12 13 14 15 16 17 18 20 22 23 24 25 26 26 27 28 29 30 32 33 34 36 38 39 39 40 41 42 44 45 45 45 46 47 48
23 20 21 21 19 18 18 17 15 14 15 15 16 18 19 19 20 21 22 23 25 27 28 29 31 32 34 35 37 38 41 42 44 46 46 47 44 43 41 41 41 41 42
25 22 23 23 21 20 20 20 19 19 20 21 19 19 19 20 21 21 20 22 23 25 27 30 32 34 36 37 39 42 45 43 40 37 37 37 36 38 36 36 36 37 38
23 23 24 24 23 22 23 23 22 22 22 22 21 21 21 21 22 22 22 23 26 28 32 34 36 38 39 41 42 43 40 37 33 32 31 32 33 34 35 36 36 37 39
24 23 24 24 25 26 24 24 24 24 25 25 25 25 26 25 24 24 25 28 29 31 34 35 37 39 40 41 40 38 35 33 32 32 32 33 35 36 37 39 41 41 41
25 23 23 24 25 26 26 26 26 27 29 28 30 32 32 31 29 29 30 32 34 35 37 37 36 36 37 37 36 34 34 33 33 35 35 34 35 35 37 38 40 43 45
22 22 23 24 26 27 27 27 28 28 30 31 32 33 33 34 33 33 34 36 38 39 38 35 34 33 32 32 32 32 33 34 34 35 35 36 36 37 40 42 45 47 51
21 21 22 24 24 25 28 28 28 29 31 33 35 37 36 35 35 35 36 39 41 39 35 33 32 31 32 33 33 34 34 34 35 36 37 38 40 42 44 45 49 51 54
24 21 21 22 24 27 29 30 29 33 36 37 35 36 37 35 35 37 39 42 39 35 33 33 34 34 35 36 35 36 35 37 38 40 42 43 46 48 50 52 54 56 59
27 23 24 24 26 29 29 31 35 38 38 34 33 32 32 34 37 40 43 42 38 36 35 36 35 37 38 38 38 38 39 42 44 45 47 49 52 54 57 60 64 65 66
28 26 25 27 28 30 32 35 37 38 33 33 32 32 33 36 40 42 42 40 39 38 37 38 39 39 40 42 43 44 46 47 49 50 54 56 58 61 64 67 69 71 71
28 26 27 29 31 33 35 35 37 31 32 31 33 35 38 40 42 42 41 38 38 40 41 41 41 41 43 46 48 48 49 50 53 57 61 66 68 70 71 72 73 73 75
27 28 29 29 32 35 37 31 31 32 34 34 36 38 40 41 41 41 41 40 41 43 43 44 45 46 47 51 54 59 62 64 66 65 66 68 70 71 73 74 76 77 79
28 28 29 30 33 34 31 30 31 34 36 36 38 41 41 41 41 40 41 42 42 43 43 44 47 50 54 57 60 64 69 74 76 75 71 71 72 74 75 77 80 82 84
27 28 29 31 32 32 32 33 35 37 38 39 40 41 39 39 40 41 41 40 40 43 46 50 53 57 61 64 67 69 70 71 73 76 76 78 78 79 81 83 84 85 87
28 29 30 32 33 33 34 36 36 38 39 39 40 41 40 40 40 39 40 42 45 48 52 55 59 62 65 68 70 72 75 77 79 80 80 80 81 83 86 88 91 93 95

GFSSE_500_spd_027.txt.gz
Wind_Speed
17 17 18 17 18 20 19 19 19 18 16 16 16 18 17 16 16 15 14 13 15 16 17 16 15 16 17 16 14 14 15 14 15 13 11 13 11 11 13 16 14 12 9
19 19 18 18 19 19 19 19 17 15 14 14 15 15 16 15 15 15 14 13 14 15 16 16 17 17 17 16 17 19 20 17 16 15 13 13 13 13 12 11 13 12 11
20 20 18 18 18 19 19 18 14 12 11 13 14 14 14 15 15 16 15 14 14 13 14 15 15 18 18 19 21 21 20 20 19 18 16 16 16 15 15 14 11 12 11
21 20 18 17 18 19 18 15 13 12 11 12 13 13 13 14 15 16 16 14 15 15 15 16 16 18 19 20 22 21 21 22 22 22 19 18 19 18 18 17 15 14 13
23 21 18 17 18 17 16 14 12 12 11 12 11 11 11 12 14 15 17 16 16 16 16 17 17 18 20 20 22 22 23 24 24 24 21 20 21 20 20 19 19 18 18
22 21 18 18 17 15 14 13 12 13 12 12 10 11 12 11 13 15 18 19 19 19 18 19 19 20 21 20 22 22 22 23 22 22 23 24 25 23 23 25 24 24 22
23 18 18 18 16 14 13 13 13 13 13 13 12 12 13 13 14 14 17 19 20 21 22 23 23 23 24 23 23 22 23 23 23 23 24 24 27 27 26 30 31 29 29
21 20 21 18 17 15 13 13 12 14 14 15 14 14 15 16 16 16 17 17 18 19 20 23 23 25 25 26 26 26 26 27 27 28 28 30 31 32 32 34 34 36 34
20 22 22 20 18 17 16 14 12 13 15 16 16 16 17 17 18 20 21 21 22 22 22 22 22 23 25 26 27 29 30 29 30 31 32 33 34 35 34 35 36 38 39
22 23 23 20 21 19 19 15 13 12 13 14 16 17 17 18 19 20 21 22 24 25 26 26 26 27 28 29 30 32 32 32 33 34 36 38 39 40 40 40 40 42 43
25 24 26 22 22 22 21 17 15 14 13 13 15 16 18 18 18 19 21 21 22 24 26 27 27 28 29 31 32 34 35 35 36 38 40 43 45 47 47 46 45 43 41
26 24 25 23 23 24 21 18 17 17 17 17 17 17 18 18 19 20 20 19 20 21 23 24 25 27 29 31 33 35 36 37 39 41 43 44 41 41 39 38 38 38 35
26 25 25 24 26 26 22 21 21 20 21 20 20 21 21 20 20 21 21 21 21 22 24 25 27 29 31 34 36 37 38 39 40 40 39 37 36 34 33 31 31 30 31
26 24 24 25 26 26 23 24 24 23 22 22 23 24 25 23 23 23 23 23 25 26 27 29 31 33 35 37 37 39 39 39 37 36 34 33 32 32 31 32 32 31 32
23 22 23 25 24 25 25 26 24 24 24 26 27 27 29 29 31 30 27 26 28 29 30 33 34 36 36 37 38 37 36 36 34 33 34 33 34 34 34 34 35 35 35
23 22 24 26 24 25 26 27 26 23 24 26 27 31 33 34 35 34 33 32 32 33 34 36 38 39 38 35 34 34 33 33 33 34 36 36 36 36 36 37 37 38 40
25 23 23 23 26 25 26 25 23 23 25 26 29 30 34 36 37 38 38 36 36 37 38 40 42 39 35 32 31 31 32 33 36 37 38 38 38 38 39 40 41 43 45
25 22 20 21 24 27 23 21 22 23 27 28 30 33 35 35 37 40 40 39 38 38 41 43 40 38 35 33 33 35 35 36 38 39 39 41 42 43 44 46 48 49 50
26 23 21 21 23 23 22 21 23 26 28 31 34 34 32 33 33 32 34 35 37 39 42 41 40 38 38 37 38 38 38 38 39 40 43 45 47 48 50 52 54 55 56
27 28 24 22 24 24 25 25 26 28 31 33 33 30 30 31 30 31 34 37 39 40 40 40 38 39 39 39 39 39 40 41 43 45 46 48 50 52 55 57 61 64 66
26 28 28 25 26 26 27 28 29 33 35 36 30 30 31 32 34 36 39 41 41 41 40 39 39 40 42 42 42 42 43 45 47 49 52 55 57 62 64 66 67 70 71
24 24 25 27 27 28 28 29 32 36 32 27 29 31 35 38 40 40 41 42 43 42 41 42 42 41 42 44 45 46 46 48 52 56 59 62 65 67 68 70 71 72 74
25 24 25 26 27 28 29 31 33 31 28 29 31 35 38 40 42 43 43 42 41 40 42 42 43 43 45 48 52 56 58 59 60 60 62 64 67 68 70 71 73 75 77
26 26 25 27 27 28 30 31 31 30 31 33 34 37 40 42 43 43 42 40 41 41 41 42 45 48 51 54 56 62 67 70 72 70 67 68 70 71 73 74 76 78 81
25 25 26 27 26 29 30 31 32 33 35 36 37 40 40 42 44 42 41 41 41 42 43 46 50 54 58 60 63 65 67 69 72 77 78 76 75 75 76 77 79 82 84
25 25 26 26 27 30 32 34 35 36 36 37 38 41 41 40 39 41 41 41 42 45 48 52 55 58 61 64 67 70 72 73 73 75 76 77 80 81 83 85 87 89 91

GFSSE_500_spd_033.txt.gz
Wind_Speed
16 14 14 14 15 17 16 16 16 16 17 16 15 15 14 12 12 13 14 16 15 16 17 18 19 19 20 19 20 21 21 21 19 19 20 21 20 19 19 18 17 15 15
17 15 15 15 17 18 18 17 17 17 16 14 13 13 13 11 12 13 15 17 17 18 18 18 20 21 21 21 21 22 21 22 22 22 24 25 24 22 22 21 20 18 17
19 19 17 15 16 18 18 18 18 16 13 13 12 12 13 13 14 15 17 19 19 19 18 18 19 21 22 23 24 25 25 25 26 26 27 26 26 25 26 25 22 22 21
21 19 19 18 18 18 19 19 18 16 14 13 12 11 12 13 14 15 17 19 20 20 20 20 19 19 21 21 22 23 26 27 28 28 28 28 28 29 29 28 26 26 24
22 21 21 20 19 19 19 18 18 16 15 13 13 13 14 14 14 15 18 19 20 21 22 22 21 21 22 22 22 24 26 28 30 30 30 30 31 30 30 30 28 28 27
24 23 21 22 21 20 20 19 18 16 16 14 13 14 15 16 16 16 16 18 19 21 23 24 24 24 24 24 25 27 27 29 30 31 31 30 30 29 28 29 30 30 29
25 24 23 22 21 20 20 18 16 16 16 15 14 15 16 16 16 17 19 19 18 19 22 24 26 27 27 28 29 31 31 32 32 32 32 31 30 30 29 30 31 31 32
24 22 20 21 21 20 20 18 16 16 17 16 14 15 16 16 17 18 20 22 22 22 23 23 23 24 25 27 28 30 30 31 32 32 33 33 33 34 34 34 35 37 37
21 18 18 19 20 21 21 20 19 19 18 16 14 15 15 16 17 18 20 21 22 23 25 27 28 29 29 29 30 31 31 33 33 33 34 35 35 35 37 38 38 39 40
20 20 20 19 21 22 24 22 21 21 19 18 15 15 15 16 16 17 19 21 22 23 25 27 29 30 30 31 32 34 34 35 36 36 37 38 38 38 39 39 41 41 42
22 21 21 20 22 24 24 24 23 22 21 20 18 16 17 16 16 16 17 18 20 21 23 23 23 25 25 25 27 28 30 32 34 35 37 38 39 39 40 41 43 43 43
24 22 21 24 23 24 25 25 24 25 23 22 20 20 19 19 19 18 19 19 20 20 21 22 23 24 25 27 29 30 32 34 37 38 40 41 42 42 43 43 43 42 40
24 22 24 25 25 25 25 27 25 25 25 24 22 21 22 22 23 23 25 26 26 27 27 27 28 28 29 30 33 35 37 38 39 40 41 42 43 43 44 43 42 40 38
25 26 28 26 26 25 24 25 26 25 25 25 24 24 25 26 26 27 29 31 33 35 34 33 32 31 32 33 36 38 39 41 42 41 42 41 42 42 41 41 41 41 41
25 31 29 27 26 25 24 25 24 23 25 26 26 25 26 26 26 28 31 33 34 34 36 36 35 36 36 37 40 40 42 43 42 41 41 41 41 40 40 40 41 43 44
26 30 29 27 27 24 22 24 25 24 25 25 26 27 26 24 27 28 30 33 37 38 36 38 37 36 36 38 41 42 44 43 41 40 41 41 41 41 41 42 43 44 45
26 29 27 27 27 25 22 22 21 21 24 25 27 25 24 26 27 28 32 34 35 35 35 35 34 37 39 40 41 43 43 42 41 41 41 42 43 43 44 45 45 46 46
25 27 28 25 25 27 25 22 22 24 25 26 25 23 25 28 29 31 32 31 31 30 28 28 31 33 37 41 42 43 44 43 43 44 44 44 44 45 46 47 48 49 50
27 27 28 26 24 27 26 24 23 25 24 24 23 25 26 29 31 32 32 31 30 31 33 35 38 39 42 44 45 46 45 44 44 44 45 46 46 47 48 49 51 52 54
29 28 29 26 22 25 26 25 23 25 23 24 26 25 28 30 31 26 27 30 33 36 37 38 40 43 45 46 47 45 43 42 43 44 46 48 50 51 53 55 57 59 61
30 31 29 28 24 24 29 28 26 25 25 26 27 28 30 31 28 29 31 34 37 39 41 42 44 46 46 43 39 39 42 43 45 46 49 52 55 58 60 61 62 63 65
32 32 29 27 26 27 30 32 28 26 27 27 27 29 30 30 29 30 33 37 39 42 44 45 46 45 42 40 41 41 42 45 48 51 54 57 60 61 64 66 68 70 71
32 33 29 27 26 24 25 30 31 30 29 28 29 30 31 31 30 32 35 38 41 45 48 47 44 41 43 44 45 47 48 48 50 53 57 60 63 65 68 69 69 70 71
32 32 30 28 25 25 25 26 28 28 30 31 31 32 33 33 34 36 38 41 44 47 48 44 43 44 45 47 50 53 55 59 60 58 58 61 64 66 66 66 66 67 69
33 32 31 30 28 28 26 26 27 30 32 33 34 35 35 36 38 40 41 44 46 47 46 45 46 48 49 51 54 57 61 63 66 68 64 65 64 62 62 64 66 69 73
32 30 31 30 29 27 28 29 30 33 34 35 36 37 37 40 41 42 43 45 46 45 46 47 48 50 52 56 59 62 64 66 69 71 71 71 72 69 67 69 73 77 82

GFSSE_500_spd_036.txt.gz
Wind_Speed
17 17 14 12 12 13 14 15 16 17 16 16 15 14 12 13 12 11 12 13 14 15 16 17 19 20 21 21 22 23 22 22 21 22 22 21 21 22 21 21 21 21 19
15 17 16 15 14 14 14 15 16 17 18 17 16 14 14 13 12 11 12 13 14 16 18 19 20 21 21 22 23 24 24 23 23 22 24 24 24 25 25 23 24 23 22
18 17 18 17 16 15 15 16 16 17 17 16 15 13 13 12 12 11 12 14 16 17 19 20 20 20 21 21 22 24 26 25 25 25 26 28 27 28 28 26 25 26 26
19 18 18 18 17 17 17 18 17 16 16 15 15 13 12 12 12 12 13 16 17 18 20 20 20 20 21 20 21 22 23 24 25 26 27 28 29 29 30 29 27 28 28
23 21 19 19 19 19 18 18 18 17 16 14 14 14 12 13 12 13 13 15 16 19 20 21 22 22 22 22 21 23 24 25 25 26 28 29 30 31 32 31 29 28 29
25 22 20 21 20 20 20 19 18 17 15 14 14 15 14 13 14 14 15 16 15 16 18 19 22 24 25 25 24 26 27 28 28 29 30 31 31 30 31 30 29 28 28
25 23 23 23 22 21 20 19 18 17 16 15 15 15 15 14 15 15 15 18 18 19 19 19 20 21 23 26 27 29 30 31 32 33 33 33 32 31 31 32 32 32 31
26 25 23 23 22 20 20 19 18 18 16 16 16 16 15 15 16 16 16 17 18 20 23 24 26 25 25 26 27 28 29 29 30 31 31 31 32 32 33 33 34 35 36
25 23 22 22 21 21 21 20 20 19 19 18 17 16 15 14 15 15 15 16 17 20 21 23 25 27 27 29 30 31 32 34 34 34 34 35 36 36 37 37 37 37 38
22 22 21 22 21 21 21 22 23 22 21 20 20 17 16 14 14 13 15 16 18 19 21 22 24 24 24 27 28 28 29 29 30 30 31 32 33 35 36 37 39 40 40
20 21 22 23 22 21 22 22 23 24 24 23 22 19 18 17 15 15 16 16 16 17 17 18 20 21 22 24 24 26 27 28 29 31 33 35 36 38 39 40 41 42 43
22 22 22 23 22 22 22 22 24 25 26 25 24 22 21 20 18 18 19 20 22 22 23 24 24 25 25 26 27 29 31 31 33 34 34 35 37 38 39 42 44 44 45
25 23 25 25 24 25 24 23 23 25 25 25 26 25 23 22 20 22 24 25 27 28 29 31 34 34 32 32 32 33 34 34 36 36 36 38 39 39 38 38 39 41 41
28 26 25 26 28 27 24 22 22 22 27 24 25 27 25 22 22 24 26 27 27 29 30 33 34 35 35 38 38 39 39 39 40 41 41 40 39 39 39 38 39 40 40
27 29 29 30 31 28 26 23 21 20 22 22 25 28 26 24 25 25 26 27 28 31 34 33 34 33 36 37 38 40 40 42 42 42 42 42 41 40 39 39 39 40 41
26 28 30 31 32 31 28 25 21 19 20 23 24 26 26 25 25 25 25 27 29 30 31 31 32 30 30 32 34 37 39 40 41 42 43 43 42 41 41 41 41 41 42
27 31 28 31 31 30 29 25 21 19 20 21 23 24 25 24 24 25 27 27 31 31 30 29 30 29 30 32 35 38 39 41 42 44 44 43 43 42 42 42 42 43 44
30 31 30 29 28 29 28 26 22 21 21 22 23 25 25 25 25 26 28 31 33 31 29 30 30 31 34 37 39 42 44 46 47 47 44 42 41 41 42 43 45 45 46
33 30 32 30 28 28 28 26 23 24 23 23 25 26 26 27 26 29 32 34 31 26 28 32 34 36 37 40 43 46 47 48 47 44 41 41 42 43 45 47 48 49 51
37 31 30 33 27 27 27 26 24 26 26 25 25 26 26 28 29 32 32 33 30 30 33 36 37 38 39 42 44 46 43 40 39 40 42 44 45 47 49 51 53 55 57
38 33 30 33 29 27 26 25 27 29 28 26 25 26 27 29 31 32 32 31 31 33 36 37 38 41 42 43 42 41 40 40 41 43 45 46 49 52 56 58 59 59 61
39 36 32 33 31 28 28 27 27 31 31 28 28 28 29 30 31 32 31 32 33 35 37 39 42 44 46 46 43 41 41 44 46 47 50 51 55 58 60 62 63 65 66
41 36 35 34 32 28 28 26 26 30 33 32 31 30 30 31 32 32 34 36 36 39 41 43 44 46 48 46 43 45 45 45 46 47 51 56 59 60 62 65 66 67 67
41 39 37 34 34 30 26 24 26 29 31 32 34 33 32 33 34 37 38 39 40 42 44 45 47 47 46 46 48 49 50 52 54 53 53 55 58 61 62 64 64 65 66
39 40 38 35 34 31 26 24 27 27 28 29 31 32 34 35 37 39 41 42 43 43 45 48 48 46 47 48 49 52 55 58 62 63 60 59 59 62 61 61 62 65 68
37 37 36 36 34 31 28 28 28 28 28 30 32 33 36 37 38 41 43 43 44 45 47 48 48 49 49 51 53 57 60 63 65 64 62 63 63 64 64 64 66 71 76

GFSSE_500_spd_039.txt.gz
Wind_Speed
18 18 19 17 16 14 13 12 11 11 11 11 11 10 8 7 7 8 9 12 14 13 13 14 17 18 19 21 20 20 20 22 22 22 22 22 22 22 22 22 23 22 22
17 17 18 18 17 15 14 13 12 12 12 13 12 11 9 7 7 8 9 9 11 13 14 16 18 19 19 21 22 22 21 22 23 23 23 24 25 25 25 25 25 24 24
19 18 18 19 18 15 14 13 14 14 14 13 12 11 11 9 9 8 9 10 11 13 15 17 19 20 19 20 21 21 20 21 23 24 25 25 26 26 27 27 27 26 26
17 19 18 19 19 17 16 15 15 16 15 14 13 11 11 11 11 10 10 11 12 14 15 17 19 21 21 20 21 22 22 21 22 23 24 24 25 26 28 28 29 27 27
20 19 20 18 18 17 17 17 17 18 17 15 13 12 12 12 12 12 13 13 13 14 16 17 18 20 22 22 22 23 23 23 24 24 26 26 26 27 28 29 30 29 28
24 23 21 20 20 19 19 19 19 19 18 16 13 12 13 12 12 13 14 16 15 15 15 14 15 17 19 21 23 25 26 26 27 28 29 29 30 31 32 31 30 29 29
26 23 23 23 23 21 19 20 20 19 18 16 15 13 13 13 14 14 15 15 16 18 20 18 18 18 19 20 20 22 23 25 25 27 27 27 27 28 29 29 30 31 30
25 24 25 24 23 22 22 20 20 20 19 18 17 15 14 14 14 15 15 15 16 17 19 19 20 21 23 24 26 26 27 28 29 29 30 31 30 31 32 32 32 33 33
25 26 26 25 23 22 21 20 20 21 21 20 19 17 16 15 14 14 14 14 15 17 17 18 18 20 21 24 25 26 27 27 28 27 27 28 29 30 31 32 33 33 34
23 25 26 25 23 23 21 20 20 21 22 22 21 20 18 17 15 15 15 14 14 16 16 16 18 19 20 21 21 22 23 25 24 23 24 26 29 31 33 35 36 37 37
23 25 24 24 24 24 22 22 21 22 23 24 24 22 21 20 18 17 17 17 16 16 16 17 17 17 19 20 21 21 23 24 27 26 27 28 30 32 33 34 35 36 37
26 26 25 25 26 25 24 24 22 21 22 25 26 25 24 24 21 21 20 20 20 21 23 25 25 26 28 30 29 28 29 28 30 30 30 31 32 33 34 35 36 36 37
28 28 28 27 26 25 25 24 23 22 22 24 26 26 27 26 24 23 22 21 23 24 26 26 27 28 31 32 33 32 31 31 33 33 33 35 36 37 38 38 37 37 36
29 30 31 30 29 28 27 26 24 22 23 23 28 27 27 27 26 24 24 22 23 25 26 26 29 31 30 29 31 32 32 31 33 34 36 37 39 39 40 41 40 39 39
30 31 33 34 32 31 30 29 26 24 24 23 24 28 27 26 26 25 24 23 25 25 27 28 28 28 27 25 24 24 25 28 31 32 34 36 38 39 39 40 40 40 40
31 31 32 33 33 34 33 33 29 25 25 23 24 26 26 24 25 26 24 25 26 27 27 29 30 28 26 26 27 28 29 32 34 35 37 39 41 43 43 42 42 40 40
31 33 33 33 33 33 35 35 30 25 25 25 26 25 25 24 24 22 24 26 28 27 29 32 34 29 27 30 32 33 34 37 39 41 43 45 45 44 43 41 40 39 40
35 32 34 36 34 33 34 33 29 25 26 26 26 25 24 24 22 23 25 27 28 29 32 34 31 28 29 34 37 36 37 40 42 44 45 45 41 39 39 39 40 41 43
41 35 34 36 34 34 34 32 27 26 28 29 27 27 25 24 24 26 26 28 30 31 34 32 31 30 33 37 37 38 40 41 42 42 39 38 40 42 43 44 45 46 47
38 41 36 34 34 36 37 33 28 28 29 30 30 29 26 25 26 27 29 30 32 34 33 32 32 33 36 37 39 41 42 43 43 41 41 42 43 45 47 48 50 52 54
33 39 42 36 34 34 37 33 30 29 31 31 32 29 27 27 28 29 31 32 33 33 32 33 34 37 37 39 41 43 43 45 44 44 45 46 49 50 52 54 56 59 60
36 31 41 38 36 36 35 34 30 31 30 31 31 29 31 30 29 31 32 34 34 34 35 36 39 39 40 41 42 43 44 45 45 46 48 50 51 53 56 59 61 62 63
38 33 38 40 38 36 35 35 30 32 32 30 31 34 34 32 33 33 34 36 36 37 38 41 42 43 43 43 45 47 45 44 46 46 49 53 55 58 61 63 63 64 65
39 36 37 41 39 36 34 34 31 31 32 32 30 33 37 37 36 36 37 37 38 40 43 44 44 44 45 48 48 48 49 51 50 49 48 51 55 59 61 63 65 67 67
40 38 37 38 41 37 35 34 31 32 31 30 29 32 36 37 37 37 37 39 41 44 45 45 45 46 48 49 50 51 52 54 56 57 56 56 56 57 60 63 64 65 66
40 42 40 35 39 38 35 33 33 32 31 30 31 32 34 35 36 36 38 41 44 45 45 45 47 49 50 51 53 53 55 56 58 60 61 61 59 59 60 62 64 67 70

GFSSE_500_spd_042.txt.gz
Wind_Speed
19 18 20 21 20 19 18 17 16 14 13 11 10 9 9 10 10 10 10 11 12 13 15 15 14 16 16 16 18 19 21 21 21 23 23 23 22 22 23 24 23 22 22
19 19 19 20 21 21 19 18 17 15 12 12 10 10 11 12 12 12 12 11 10 13 14 15 15 17 18 18 17 17 19 20 21 22 23 23 24 24 25 26 26 26 25
18 19 20 19 20 20 21 19 16 15 14 14 13 12 13 13 13 12 11 12 12 13 14 16 17 18 19 20 20 20 19 20 20 21 23 24 25 26 26 27 27 27 27
19 18 19 21 21 21 21 20 19 17 16 16 15 14 13 12 13 12 12 12 13 14 16 17 19 20 21 22 22 22 21 20 21 21 22 23 24 25 25 25 26 27 27
20 21 19 20 21 21 21 20 19 18 18 17 16 15 13 13 13 13 14 14 15 16 17 19 20 20 21 22 23 24 23 22 23 23 23 24 26 26 27 28 28 29 29
23 22 23 21 22 22 22 22 21 20 19 19 18 17 15 14 14 14 15 16 18 18 18 18 17 19 19 19 20 22 23 23 24 25 25 26 27 28 26 27 26 26 27
25 22 22 23 24 24 23 22 22 21 20 20 19 17 16 16 15 15 16 17 18 18 19 20 21 22 21 21 22 22 22 22 23 24 24 25 26 27 28 28 28 28 28
25 25 24 24 24 24 22 22 22 23 22 22 20 19 18 17 16 15 16 17 17 18 18 19 20 21 21 22 23 23 23 24 25 25 26 26 26 26 26 27 27 27 28
26 25 24 25 26 24 23 22 22 22 23 23 23 21 19 18 16 16 16 16 16 16 16 18 18 19 19 21 22 23 23 23 23 23 23 24 23 24 25 26 28 30 31
26 25 25 28 28 25 23 22 22 22 22 22 23 23 21 20 19 17 16 16 16 16 17 17 17 17 17 17 18 19 20 21 21 22 23 24 25 27 28 29 29 30 31
27 26 27 28 28 27 25 23 23 22 22 22 24 25 24 23 22 21 19 19 18 18 18 18 19 20 21 23 25 26 26 26 25 25 25 26 27 29 29 30 31 31 32
29 28 28 29 30 29 29 27 25 24 22 21 23 25 27 26 25 24 23 22 21 21 22 22 23 25 27 28 30 31 31 30 30 31 30 30 31 32 33 33 35 35 36
32 30 30 31 32 32 30 29 26 25 24 23 24 26 27 28 28 27 25 23 24 24 23 23 24 26 27 29 30 27 27 29 31 31 31 33 34 34 35 37 38 38 39
33 32 31 32 34 33 33 32 28 27 25 24 24 27 29 30 29 28 27 25 25 25 25 25 25 27 28 28 28 25 23 22 24 26 28 31 33 33 35 36 37 37 38
35 33 32 32 33 35 35 33 31 30 27 24 26 27 29 32 31 27 27 27 27 27 26 27 27 29 28 30 28 25 25 26 28 29 29 32 35 36 38 40 42 42 43
38 36 33 33 32 33 35 35 34 32 30 27 27 29 30 32 29 27 27 28 28 27 27 29 29 30 31 33 30 28 28 30 32 33 34 36 39 41 42 44 44 43 42
40 39 35 35 34 34 35 35 35 34 33 30 29 30 32 31 28 27 27 28 28 28 28 30 31 31 33 32 30 30 31 34 35 35 38 39 41 42 42 41 39 39 38
40 41 39 36 35 36 35 35 34 33 32 32 30 31 34 32 30 28 28 28 28 29 30 30 32 33 34 30 31 33 35 36 36 39 40 41 43 41 40 40 41 42 43
39 42 42 38 37 37 36 36 36 34 31 33 31 32 34 32 32 29 28 29 29 30 31 31 33 35 35 33 34 35 37 38 40 42 42 43 44 43 42 43 44 45 47
41 39 43 42 40 40 38 35 34 36 32 33 34 34 36 35 33 31 30 30 30 31 32 33 35 35 35 36 36 38 40 42 43 43 45 46 45 45 46 47 48 50 52
41 42 38 43 43 42 40 36 34 34 36 36 37 35 35 36 35 33 32 31 32 33 34 35 36 37 36 37 39 41 43 44 44 47 48 47 48 48 50 52 53 55 57
40 44 40 38 45 45 42 38 36 35 37 36 36 33 34 35 37 35 34 33 34 35 37 37 38 39 40 40 42 45 46 45 48 49 50 50 51 53 54 56 58 59 60
44 43 45 40 41 47 46 40 37 37 36 36 36 34 33 36 39 37 37 36 36 38 39 39 41 42 43 44 47 47 45 47 49 49 50 52 55 56 58 60 62 64 65
44 45 47 41 41 43 44 41 39 37 36 36 36 37 36 36 39 40 40 40 40 41 41 42 43 45 45 48 48 47 49 51 51 51 49 52 55 57 60 62 64 65 66
48 44 46 41 42 41 41 43 40 37 36 36 35 34 35 37 37 39 41 41 42 42 43 44 44 46 50 50 48 50 51 53 55 57 56 54 56 57 57 60 62 65 66
52 47 46 39 41 43 39 43 41 37 36 36 35 33 35 36 36 38 39 40 42 43 45 45 45 48 50 49 50 52 54 56 57 59 60 60 59 57 60 63 64 64 66

GFSSE_500_spd_045.txt.gz
Wind_Speed
19 20 20 23 23 23 23 23 21 20 19 18 17 16 16 15 14 14 13 13 13 13 13 14 15 15 15 16 18 19 19 19 19 21 21 22 22 23 22 22 23 23 24
20 21 19 20 22 23 25 23 23 22 20 20 19 17 16 16 15 15 14 14 14 14 16 16 16 15 15 16 17 17 18 18 19 20 21 22 23 23 23 25 24 24 25
22 22 21 19 21 22 23 24 24 23 22 21 19 18 17 16 15 15 15 15 16 15 15 15 16 17 17 18 18 18 18 20 20 19 20 20 21 22 23 24 24 24 24
24 24 23 21 21 22 23 23 24 24 22 21 19 18 17 17 17 16 16 16 17 17 17 17 17 19 19 19 20 20 20 21 23 22 22 23 23 24 23 24 24 24 25
23 25 23 21 22 23 23 24 24 24 23 21 20 19 17 17 17 17 17 17 17 17 17 18 18 19 20 21 22 22 22 22 23 25 26 25 25 25 25 27 27 28 28
24 23 24 25 22 22 24 24 24 24 23 23 21 20 19 18 17 17 18 18 18 19 19 19 18 18 19 21 21 20 19 19 20 22 24 24 25 26 26 25 24 24 25
25 24 24 26 25 24 24 26 26 25 25 25 23 21 21 19 18 18 18 18 18 19 20 20 21 22 23 23 23 23 23 24 23 24 25 25 26 28 27 27 27 26 26
26 25 24 26 26 26 26 25 24 25 26 25 24 23 22 21 19 19 18 18 18 18 19 19 20 21 21 21 22 23 24 24 24 25 25 26 27 27 25 23 23 24 25
27 27 26 25 26 26 26 26 25 25 25 24 24 24 24 22 22 20 19 18 18 17 17 17 19 20 20 21 21 22 23 24 24 25 25 24 24 24 23 22 24 26 27
30 29 27 27 27 27 28 27 25 24 24 24 23 24 24 25 23 22 21 20 19 18 17 18 20 20 20 20 21 21 21 21 23 24 24 25 25 25 25 25 26 26 27
31 30 29 28 28 28 28 27 27 26 25 24 23 23 24 25 26 24 23 22 20 20 20 20 20 21 22 23 25 26 28 29 31 30 29 30 30 29 28 29 29 30 31
33 32 31 31 29 29 29 29 29 28 26 25 24 23 23 25 27 27 26 25 24 23 23 23 24 25 26 26 27 27 29 32 32 32 31 34 33 32 31 31 32 34 34
36 34 33 32 32 32 32 31 31 30 29 27 25 25 25 26 28 30 29 27 26 26 27 28 27 27 27 27 27 28 29 29 27 25 27 29 32 32 32 32 34 35 34
38 36 35 35 34 33 34 34 33 32 30 28 26 26 27 28 29 30 30 29 29 29 30 30 29 28 29 29 29 29 29 28 25 24 23 26 27 27 27 29 32 35 36
36 37 38 37 36 34 34 35 34 33 31 28 29 29 29 29 30 31 32 30 30 31 32 31 31 30 30 30 31 31 32 32 29 28 26 30 30 31 33 34 35 37 38
36 37 40 39 38 37 35 36 36 34 32 30 30 31 31 31 32 32 31 31 31 33 33 33 32 31 31 32 32 34 35 32 31 31 32 31 32 35 36 39 38 39 38
36 39 39 40 39 37 37 37 36 36 35 32 34 33 32 34 33 32 32 31 32 33 33 33 33 33 32 33 33 35 33 30 32 33 35 35 36 39 40 42 42 42 40
34 38 39 40 41 40 39 38 38 38 35 33 35 34 34 35 35 29 36 32 33 33 33 33 34 34 33 33 34 35 34 33 35 36 37 38 41 41 42 44 44 44 43
38 37 39 39 41 43 41 39 39 38 35 33 34 33 35 36 36 36 37 35 34 34 34 34 35 34 35 35 35 35 33 34 36 38 39 41 44 45 45 46 47 45 46
37 38 39 39 41 44 44 42 40 38 35 33 36 36 36 37 37 39 38 37 37 36 36 36 35 35 36 37 37 37 36 36 38 40 42 45 46 47 49 48 47 48 49
42 40 39 41 42 44 45 45 44 41 38 33 36 39 37 36 37 38 40 39 40 38 38 37 37 37 38 39 40 40 39 41 41 43 46 47 47 50 50 50 52 53 55
46 44 43 42 43 44 43 46 48 47 39 37 38 38 38 36 37 37 40 41 40 41 40 39 39 39 40 41 41 43 44 43 45 47 49 50 51 51 52 54 56 58 59
48 48 45 44 43 44 44 44 49 47 41 43 40 38 39 38 39 37 36 38 40 42 43 42 42 42 42 43 44 46 47 47 47 49 50 52 53 55 56 58 59 61 62
50 51 50 48 47 45 46 46 44 46 46 43 41 40 40 39 40 40 37 39 41 44 45 45 45 46 45 45 46 49 49 51 52 51 52 52 54 56 58 59 60 63 64
56 54 55 53 51 50 45 45 45 43 42 42 40 41 40 42 40 38 39 41 41 44 45 46 46 47 47 48 49 49 49 51 53 55 54 55 58 59 60 60 58 59 64
59 56 55 55 51 50 47 45 47 43 38 39 40 40 41 40 40 38 38 40 41 43 44 45 45 47 48 49 50 50 50 52 55 57 58 58 58 57 60 61 63 66 66

GFSSE_500_spd_048.txt.gz
Wind_Speed
19 20 21 22 23 24 23 24 23 21 19 19 20 19 19 18 17 18 17 17 17 17 16 16 15 14 13 14 14 14 15 18 18 18 19 20 21 21 22 22 21 22 22
21 22 21 21 21 22 23 25 24 23 22 21 20 20 20 20 19 19 19 18 17 16 16 16 15 15 14 15 14 16 17 17 18 18 19 20 21 22 22 23 23 24 24
23 23 23 20 21 22 22 24 25 26 26 24 23 22 21 20 20 19 19 19 18 17 16 15 15 16 16 16 16 17 18 19 19 20 20 20 21 20 21 21 22 22 22
22 23 24 23 21 22 22 23 23 25 26 26 25 24 23 22 21 20 19 19 19 18 17 18 18 18 18 18 17 18 18 20 20 21 22 22 23 22 23 22 23 23 24
22 22 23 24 23 23 24 24 24 25 25 25 26 26 25 22 21 20 20 20 20 19 19 19 19 19 19 19 18 19 20 21 20 21 22 24 25 26 26 26 26 26 26
22 22 24 25 26 25 25 25 25 25 25 25 25 26 25 24 22 21 21 20 20 20 20 20 19 19 19 18 18 19 20 20 20 20 21 22 22 24 24 24 24 25 24
23 24 25 25 26 26 26 26 25 26 25 25 25 26 25 24 23 21 22 21 22 22 21 21 21 21 20 21 21 22 23 24 25 26 27 28 27 27 27 26 27 27 26
24 25 26 26 27 26 26 27 27 25 26 27 26 26 25 25 24 23 22 21 21 21 20 20 19 20 20 19 20 21 21 21 23 24 24 27 26 26 26 24 24 25 24
29 26 29 27 27 28 27 27 27 26 25 26 27 27 26 25 24 24 23 21 19 19 18 18 18 18 18 19 20 21 21 22 23 24 24 26 26 25 24 24 24 25 25
32 29 28 28 29 28 28 28 28 27 27 26 26 25 25 25 24 24 23 22 20 19 19 18 19 19 19 20 21 21 21 22 24 24 27 29 28 28 26 26 26 26 26
33 32 29 30 29 29 29 28 28 27 26 26 26 26 24 24 24 25 25 23 22 21 20 20 20 21 21 21 22 24 26 28 30 29 33 35 35 33 32 32 32 32 30
34 34 34 29 31 30 29 29 29 28 27 26 27 27 25 23 23 25 25 27 26 25 25 24 24 25 26 26 27 27 27 27 29 28 30 29 32 32 33 34 35 34 34
34 36 35 34 31 33 31 31 30 29 29 28 27 28 26 27 26 26 26 27 28 28 28 28 28 29 30 29 29 29 28 28 27 26 27 23 21 22 23 23 26 28 28
33 33 35 36 36 33 34 32 32 31 31 29 27 27 27 28 28 27 27 28 27 29 31 32 32 32 32 32 31 31 30 30 29 27 29 29 26 25 26 27 27 29 30
31 31 32 35 36 37 34 35 33 32 33 32 28 27 28 29 30 30 28 28 29 30 31 33 34 34 34 34 33 32 31 32 32 31 31 31 30 29 29 28 31 32 34
31 33 31 36 36 37 35 35 36 33 33 33 32 30 29 30 31 31 30 30 29 30 32 34 35 35 35 35 34 33 34 33 33 34 30 31 31 32 32 33 35 36 36
32 35 34 34 36 35 37 37 38 35 35 34 33 32 33 33 34 33 33 32 31 31 31 33 35 36 36 35 35 35 35 34 34 33 30 31 33 34 34 35 39 39 39
35 37 37 35 32 35 36 37 39 39 34 33 34 34 34 36 36 35 36 36 32 34 33 34 35 36 35 36 36 36 36 35 34 33 32 32 33 35 36 39 41 41 42
37 38 39 37 33 35 34 35 40 42 40 33 34 33 32 35 36 35 35 37 34 32 36 36 36 36 36 36 37 36 36 36 36 35 33 34 36 37 38 41 43 43 44
36 39 40 41 34 38 37 34 38 41 41 37 35 33 33 36 36 36 36 37 37 38 40 38 38 37 38 38 37 37 38 38 38 38 38 38 39 41 42 43 43 46 47
35 38 41 43 38 38 38 37 36 41 42 40 37 36 34 36 36 36 36 37 37 40 43 39 42 40 40 39 39 39 40 41 41 41 41 42 42 44 46 47 48 49 50
38 38 41 45 45 39 41 38 39 43 37 39 39 40 37 36 37 37 38 38 39 40 40 41 42 41 43 42 41 42 43 42 44 45 46 46 48 48 48 48 51 53 53
48 46 44 45 48 49 43 46 43 40 37 40 40 42 41 38 37 39 38 40 38 36 39 37 37 38 42 45 46 46 46 47 47 47 48 48 49 49 50 52 54 56 58
56 53 52 50 50 54 49 49 45 42 40 42 42 40 40 40 40 40 39 40 39 37 40 41 41 41 43 45 48 49 50 51 51 50 50 50 49 49 52 54 56 58 59
61 59 55 55 54 55 54 51 47 44 40 42 44 40 40 41 43 42 39 40 41 40 39 41 42 43 43 44 46 47 50 52 53 52 49 51 51 54 56 58 57 58 59
59 60 59 58 55 53 56 54 50 45 45 43 44 43 40 40 42 39 38 38 39 39 40 41 42 43 44 46 47 49 51 52 53 53 51 52 53 54 58 59 61 61 63

GFSSE_500_spd_051.txt.gz
Wind_Speed
20 18 20 20 22 22 22 22 22 21 20 19 20 18 18 17 18 18 18 19 19 19 18 18 18 16 16 16 15 15 16 17 16 16 16 17 19 20 21 21 21 21 21
20 19 21 20 19 20 21 22 22 23 23 22 22 22 21 20 19 19 20 20 19 20 20 19 19 17 18 17 17 17 18 18 17 17 18 19 20 19 19 20 19 19 20
19 22 21 21 19 20 21 22 22 22 23 24 24 23 24 23 23 22 21 21 20 20 21 20 19 18 19 18 18 19 19 18 19 19 19 21 21 20 20 20 20 20 21
20 21 22 22 22 21 22 23 23 23 23 24 24 25 25 25 25 25 24 23 21 21 21 20 19 19 19 18 19 19 20 19 19 19 19 24 23 23 22 23 23 24 24
20 21 21 22 23 25 25 24 25 25 24 25 25 25 25 26 27 26 26 24 23 22 22 21 21 19 20 21 21 20 20 19 19 20 20 21 22 22 21 23 23 24 24
21 21 22 23 24 25 25 25 25 26 27 26 27 27 27 27 27 27 27 25 24 23 23 23 22 21 21 21 21 21 21 21 21 21 23 23 23 24 24 25 24 25 25
24 23 23 24 24 26 26 27 27 27 27 28 27 27 27 27 27 28 27 26 25 24 24 23 23 23 23 22 22 23 23 23 23 22 23 23 23 23 24 25 25 26 26
25 25 24 24 23 25 26 27 27 28 27 27 27 28 28 28 27 27 27 27 25 24 23 23 23 23 22 22 22 22 21 21 20 20 21 21 23 23 23 24 25 24 23
26 26 27 26 26 25 25 25 24 25 27 28 27 26 26 27 27 27 26 26 26 25 23 23 22 21 22 21 21 20 20 20 19 20 22 23 23 24 25 25 25 26 26
29 30 30 29 28 26 25 24 24 26 25 26 28 27 26 25 24 24 24 25 25 24 23 22 21 21 21 21 21 20 20 21 21 23 26 28 29 31 31 32 31 30 30
27 29 30 30 29 29 28 27 26 25 25 25 26 27 26 25 24 23 23 22 23 23 24 23 22 22 22 22 22 23 24 25 25 27 27 29 31 30 30 33 34 34 34
26 27 29 31 31 31 31 30 29 27 26 25 24 25 25 25 25 24 23 23 23 24 25 25 25 25 25 26 27 27 27 27 27 27 28 27 27 24 20 19 19 21 23
30 29 27 28 30 31 32 32 30 30 28 27 26 24 23 25 26 26 26 25 24 25 26 28 28 28 29 29 30 31 30 29 28 29 29 29 27 25 25 25 23 24 24
28 29 27 27 29 31 32 33 32 32 31 30 29 26 25 25 25 26 27 27 26 25 26 28 30 31 33 32 32 32 32 31 32 31 30 31 31 30 29 28 27 28 27
26 26 27 26 28 29 30 34 34 34 33 33 31 30 28 26 26 27 28 29 28 27 27 27 29 31 33 35 35 34 34 34 33 33 32 32 33 32 31 31 30 30 30
27 27 27 30 30 28 29 31 33 32 34 34 30 31 31 30 29 30 29 29 30 29 30 30 30 30 32 34 35 36 36 36 35 35 33 33 33 32 32 33 33 33 32
30 30 26 28 35 30 29 29 32 31 33 34 33 32 32 31 31 31 33 33 33 32 32 32 31 28 30 33 34 35 37 36 35 35 35 34 32 31 32 33 34 33 33
29 31 31 29 32 33 30 29 31 30 30 32 32 34 31 30 31 32 34 34 32 33 32 32 33 35 32 34 36 35 36 36 36 36 36 35 34 33 33 33 34 35 37
29 31 33 34 32 34 34 32 34 31 29 29 30 32 32 31 30 32 33 32 31 32 32 32 32 35 38 37 36 36 36 37 37 37 36 37 37 37 37 38 40 39 40
32 32 33 34 32 32 34 35 36 36 33 32 28 32 31 32 33 33 33 31 33 33 34 35 35 36 36 38 37 37 38 38 38 38 38 39 40 40 40 42 43 45 44
34 33 32 33 34 33 35 36 35 38 40 36 27 31 30 31 36 36 34 33 33 33 35 36 38 39 38 39 39 43 40 40 41 40 40 41 42 43 45 46 47 47 48
38 38 38 37 36 37 38 39 39 39 42 40 32 33 30 31 36 40 35 35 35 34 34 34 36 37 38 36 35 39 42 41 43 44 44 45 47 48 47 48 49 49 50
41 42 42 42 41 40 42 41 42 43 43 43 35 36 36 34 34 37 37 37 38 37 34 34 34 35 37 41 41 40 41 42 42 43 45 47 49 49 49 50 49 50 52
49 50 51 51 52 50 48 46 47 48 48 47 41 42 38 36 35 35 36 38 39 38 38 35 35 36 37 41 41 41 42 42 42 43 45 48 50 50 49 49 49 52 54
56 57 58 59 58 58 58 52 50 52 52 51 45 44 40 40 39 37 37 38 38 38 38 36 35 36 38 40 40 40 42 43 44 46 47 49 49 49 49 50 53 55 57
59 60 60 59 57 58 58 55 52 51 52 53 49 47 43 42 42 40 39 36 37 38 38 37 38 38 39 38 41 43 42 43 45 47 48 48 46 46 50 55 57 58 60

GFSSE_500_spd_054.txt.gz
Wind_Speed
19 19 19 19 21 22 22 22 21 21 20 20 19 18 18 18 18 17 18 19 19 18 18 18 18 18 19 21 20 20 18 17 17 17 19 17 17 19 18 20 20 20 20
21 19 21 21 19 18 18 19 21 21 22 22 22 22 21 21 20 20 20 20 20 20 20 20 20 20 20 20 21 20 20 19 19 19 19 18 19 19 19 19 20 20 19
19 18 19 21 21 19 20 20 20 20 21 21 22 24 23 22 22 22 22 22 22 22 21 21 21 21 21 22 22 21 21 21 20 21 21 20 20 20 21 20 21 21 21
19 18 20 21 21 22 22 21 21 21 22 22 22 23 24 25 25 25 24 24 24 24 24 23 22 23 24 24 22 22 22 22 20 21 22 21 21 21 22 22 22 23 22
20 18 19 21 22 23 24 25 24 24 24 24 24 24 25 24 25 26 26 26 25 25 25 25 25 25 24 24 23 23 23 22 21 22 22 21 20 21 22 22 22 22 22
22 20 20 22 22 22 24 25 25 25 25 25 26 26 26 27 27 27 27 27 27 27 26 26 26 25 26 26 25 23 23 23 22 23 23 24 24 24 25 25 25 25 25
23 22 22 22 23 23 22 23 25 26 27 27 27 27 27 27 27 27 28 28 28 28 28 27 27 27 26 26 26 25 25 24 24 25 23 22 22 22 22 22 24 24 24
26 25 24 23 23 23 23 23 23 22 25 26 26 27 27 27 28 28 28 28 28 28 28 27 27 25 25 25 25 24 24 21 22 23 23 21 21 22 24 25 25 25 24
27 24 26 26 25 24 24 23 23 22 22 22 22 23 24 26 26 27 27 27 27 28 28 27 26 26 26 25 23 22 21 21 22 22 22 22 23 25 27 28 30 29 28
28 27 28 28 26 26 26 25 24 23 23 22 22 22 22 23 24 24 25 25 25 26 26 26 25 25 25 24 22 22 21 21 22 23 24 25 27 30 31 32 31 32 32
26 28 29 29 29 30 29 28 28 27 26 25 24 22 22 23 23 23 22 22 22 23 24 25 25 25 25 25 24 25 24 24 25 27 28 28 28 28 29 29 26 21 20
25 26 28 29 30 31 31 31 30 29 28 27 26 24 22 23 24 24 23 22 21 22 23 24 25 26 27 27 26 27 27 28 29 30 30 30 29 29 29 28 24 22 23
26 25 27 29 29 28 28 30 30 30 30 30 29 28 26 25 25 25 25 25 24 23 24 24 24 26 28 29 31 31 31 31 32 32 32 32 32 30 30 30 29 30 27
26 27 27 27 27 27 27 27 28 28 29 30 30 29 29 28 27 26 26 25 26 25 25 25 26 26 27 29 32 33 35 35 35 34 34 34 34 32 32 32 32 32 31
26 29 26 25 24 26 27 25 26 28 28 29 30 29 30 30 29 28 27 28 28 27 26 27 28 28 28 28 29 31 33 35 36 36 35 35 34 34 33 32 33 33 33
31 29 27 24 25 25 26 26 27 26 28 28 29 29 30 30 29 29 29 30 31 30 29 29 30 31 31 30 30 29 30 32 34 34 35 36 35 34 34 34 32 32 33
31 29 27 27 28 26 25 25 26 25 26 28 29 29 30 31 29 30 30 30 31 31 31 30 30 31 32 32 33 32 31 32 34 35 35 35 35 35 35 35 33 33 33
30 29 30 29 29 28 27 28 28 28 27 26 25 27 28 28 29 30 31 30 30 30 31 30 30 30 30 32 33 33 34 34 34 35 35 35 36 36 36 36 36 35 36
35 33 32 30 30 29 31 32 32 31 29 28 26 25 26 28 30 32 32 30 29 31 31 32 32 32 32 31 33 35 36 36 36 37 37 37 38 38 38 39 38 39 40
35 35 33 31 29 30 32 34 34 32 31 30 30 26 29 28 30 32 33 32 31 32 31 31 33 33 34 34 34 37 34 37 39 39 40 39 39 40 40 41 41 42 43
37 36 36 36 32 31 31 31 33 35 37 33 34 33 30 29 30 32 33 33 34 33 33 34 34 34 34 33 36 34 37 34 33 40 43 42 42 43 44 44 45 46 47
38 39 39 38 38 37 36 34 35 38 39 37 37 34 30 31 32 34 35 33 35 36 36 35 37 36 35 35 35 35 37 37 38 38 39 40 42 42 44 45 46 47 47
41 41 42 43 42 41 40 40 38 37 40 40 40 39 35 35 37 39 38 34 33 33 34 35 36 37 36 37 36 36 38 40 39 40 40 40 41 42 44 46 47 48 49
42 42 44 45 45 45 45 45 46 42 41 44 46 47 44 43 40 41 41 38 34 34 34 35 35 36 36 37 38 38 38 40 40 37 40 41 43 44 46 48 49 49 48
46 48 49 50 51 53 52 52 52 52 50 48 49 52 50 48 45 44 42 40 40 37 35 35 36 35 35 35 37 39 40 40 41 41 41 42 43 45 48 49 49 49 49
52 54 56 57 57 58 58 58 58 57 57 55 54 55 54 52 50 47 45 43 43 41 39 38 38 38 38 38 39 41 41 40 40 41 42 43 45 48 52 53 52 53 54

GFSSE_500_spd_057.txt.gz
Wind_Speed
19 17 16 17 18 20 21 22 22 22 21 21 21 20 18 17 18 16 16 17 17 16 16 17 18 19 21 20 21 21 20 19 18 18 18 18 18 18 19 18 19 19 19
19 18 17 19 18 18 18 20 22 22 22 22 23 22 22 22 21 20 19 18 17 18 19 19 20 20 21 20 21 21 20 20 21 20 19 20 20 20 21 20 20 20 19
20 18 17 19 19 20 21 21 20 20 20 20 20 21 23 24 23 22 21 20 20 20 19 20 20 22 22 21 22 22 22 22 22 22 22 22 22 22 22 21 21 22 22
18 19 19 19 20 21 22 23 22 21 20 19 21 21 21 22 22 23 24 24 23 22 23 22 22 23 22 22 23 23 22 22 23 23 24 23 23 23 23 22 22 22 22
19 18 19 19 18 20 22 23 23 22 23 22 22 23 23 22 22 23 24 24 24 24 24 24 24 25 24 23 24 24 23 23 24 25 25 24 24 23 24 23 25 25 25
22 20 19 20 21 20 20 20 22 22 22 22 22 22 23 24 24 24 25 25 25 25 25 24 25 25 25 25 25 24 23 25 25 26 26 26 26 26 26 25 25 24 24
27 24 22 22 22 22 21 20 20 20 21 21 22 23 23 24 24 24 24 24 25 25 26 26 25 25 25 26 26 25 25 26 27 27 26 25 24 24 23 23 24 24 24
28 27 25 24 24 24 23 22 21 21 20 20 20 21 22 22 23 24 24 24 25 26 26 26 27 27 26 26 24 23 24 25 25 24 22 23 22 22 23 24 26 27 28
30 28 28 27 26 25 24 24 23 23 22 20 21 21 20 20 20 21 22 22 24 24 25 25 25 24 24 24 23 23 23 23 23 23 23 23 22 23 25 27 29 31 32
30 28 28 29 27 25 26 25 25 25 24 23 22 22 22 21 21 21 21 21 22 23 24 23 24 24 24 24 23 23 22 23 25 24 24 24 25 26 28 29 29 30 29
31 30 31 30 30 30 28 27 26 26 26 24 23 23 23 22 21 22 22 22 23 22 22 23 23 23 24 25 25 25 25 25 26 27 27 27 28 29 30 29 29 28 27
28 31 30 29 29 29 29 29 29 28 28 27 26 26 25 24 23 23 23 23 23 23 23 22 22 22 23 24 26 28 29 29 30 31 31 31 31 31 31 31 31 30 28
29 27 28 29 27 26 27 28 27 27 27 27 27 27 27 26 25 24 24 24 25 25 25 24 23 23 24 23 25 28 30 33 34 33 34 35 34 33 32 33 32 31 31
30 31 29 28 28 27 27 27 26 26 26 26 26 26 27 27 27 27 27 26 26 26 26 26 26 26 26 26 27 28 29 31 33 36 37 37 35 35 34 34 33 32 31
30 31 30 31 30 29 27 26 26 26 25 25 24 24 25 26 26 27 28 28 27 27 27 28 28 28 28 29 29 30 30 31 32 32 34 35 34 34 34 34 34 32 31
31 32 35 34 33 30 28 27 27 26 25 24 23 24 24 25 25 26 27 29 29 27 28 28 28 29 30 30 31 32 31 32 31 31 31 33 33 33 33 32 33 32 32
31 36 37 36 33 29 29 28 28 27 26 24 25 23 24 24 25 27 27 28 28 28 29 28 29 30 30 30 30 31 32 33 33 34 34 34 34 34 33 33 33 34 34
31 34 36 35 33 30 29 32 32 30 27 26 26 23 22 23 23 26 29 29 29 29 29 29 30 29 30 31 32 32 32 34 35 36 37 37 36 35 36 36 36 36 37
34 36 34 33 33 33 34 35 34 31 28 27 29 26 25 25 25 27 30 30 30 32 32 30 29 29 30 31 32 32 32 33 35 37 37 38 39 39 39 39 39 38 39
36 38 36 35 36 37 36 37 34 32 30 31 31 29 30 29 29 29 31 32 32 34 35 33 32 32 33 34 34 34 34 34 35 35 37 33 33 36 41 45 42 41 42
39 39 38 37 37 38 38 36 36 33 35 34 33 34 32 30 32 33 35 35 33 34 34 34 36 36 35 36 38 38 36 37 36 34 35 37 38 38 39 40 40 41 43
40 41 41 41 41 40 38 38 38 37 37 35 35 35 33 32 34 35 38 39 36 36 34 35 37 36 35 35 36 39 38 39 40 38 37 37 39 41 42 40 40 40 42
40 41 42 44 44 44 43 41 39 39 39 38 38 36 37 38 39 40 42 42 40 39 39 37 35 35 34 35 35 35 36 36 40 40 39 40 40 39 40 41 41 43 43
41 42 43 45 46 47 47 45 44 42 41 40 41 43 43 42 42 43 45 45 43 43 43 42 38 36 35 35 36 35 37 37 38 39 39 40 41 42 42 42 43 44 46
42 42 44 46 47 48 49 49 48 48 45 44 46 46 47 47 45 45 46 48 48 48 48 45 42 41 36 38 37 38 39 40 40 41 41 41 42 42 44 45 47 48 50
44 46 47 48 48 49 50 52 53 53 53 54 54 54 53 53 54 53 51 51 52 50 49 48 45 43 39 42 40 40 39 39 41 42 42 42 42 44 45 48 50 51 52

GFSSE_500_spd_060.txt.gz
Wind_Speed
16 17 17 16 15 17 19 19 18 18 19 19 19 18 17 16 16 15 15 15 15 14 14 14 15 15 16 17 17 18 18 19 20 19 18 18 18 19 19 19 18 19 19
19 16 16 16 16 17 17 16 16 16 17 18 18 18 19 20 20 20 19 19 18 17 17 18 17 17 16 17 18 18 19 19 20 20 19 19 20 20 20 20 20 21 21
19 16 17 17 17 19 19 18 18 18 17 18 18 18 17 17 19 21 22 21 21 20 20 20 20 19 18 18 19 20 20 20 20 20 20 20 21 21 21 21 21 21 21
21 18 19 19 18 18 19 20 20 19 19 20 20 19 18 18 18 18 19 21 21 22 22 21 20 20 20 20 19 20 21 21 21 21 21 22 22 22 21 21 21 21 23
21 20 18 19 19 18 19 19 19 18 19 19 20 20 20 19 19 19 19 20 21 22 21 22 22 21 20 21 21 22 22 21 21 21 22 22 23 23 23 24 24 25 24
23 21 20 20 19 19 17 17 17 17 18 18 19 19 19 19 20 20 20 20 20 21 21 21 21 21 22 22 22 22 24 25 24 24 25 25 26 25 25 24 23 21 22
26 24 23 23 22 21 21 19 19 18 19 19 19 19 19 18 19 19 20 20 20 20 21 20 21 20 21 22 23 24 24 25 26 26 26 25 24 23 22 22 21 21 21
30 28 27 25 23 24 24 23 22 22 21 20 20 19 19 19 18 18 18 19 19 20 20 21 20 21 21 21 22 23 24 24 24 24 24 23 23 22 23 23 22 23 24
31 29 28 26 26 26 26 25 24 24 24 22 22 21 20 20 18 18 18 18 17 18 19 19 20 20 20 20 21 21 22 23 22 23 23 22 22 23 24 24 24 26 26
32 30 29 28 27 26 26 26 26 26 25 24 24 24 23 21 20 19 18 18 18 19 19 19 20 19 19 20 21 21 23 23 23 22 23 23 24 26 27 27 27 27 27
32 32 31 30 29 27 27 28 28 27 25 24 24 24 23 23 22 21 20 19 19 20 21 21 21 21 22 22 22 22 23 24 25 26 26 27 28 29 30 30 30 29 29
32 33 31 30 29 29 29 29 28 27 27 25 26 26 24 23 23 23 22 21 20 21 21 22 22 23 23 23 23 23 24 26 27 29 30 31 31 33 35 32 32 31 31
29 28 28 28 29 28 28 27 26 26 26 25 25 25 24 24 23 23 23 23 23 23 23 23 23 23 24 24 24 24 24 25 26 28 32 33 35 35 37 36 34 33 32
29 30 28 29 29 28 28 27 28 29 28 27 26 24 24 23 22 22 23 24 25 25 25 24 24 23 24 24 26 26 27 28 28 29 30 30 32 33 33 35 34 32 32
32 33 33 33 31 31 30 29 30 29 29 29 25 23 23 23 22 22 23 24 25 26 25 26 26 26 26 26 27 28 28 29 30 31 31 31 29 30 30 31 31 31 32
34 32 36 36 37 37 33 33 31 31 30 28 25 24 23 24 24 23 24 25 26 27 27 27 27 27 26 27 27 28 29 29 30 30 31 31 32 32 32 32 31 31 30
33 35 35 37 40 39 38 35 33 32 31 27 26 26 25 24 24 24 25 25 26 26 27 27 27 27 27 27 28 29 29 30 30 31 31 31 32 33 33 33 34 32 32
34 36 39 39 39 42 40 38 36 34 32 28 28 27 25 25 24 23 25 26 26 27 28 28 28 28 27 27 29 30 30 31 30 31 32 33 34 35 36 35 35 35 35
37 39 39 40 41 42 42 41 39 36 32 28 28 28 27 27 26 26 27 28 28 29 30 29 29 29 31 32 32 32 32 33 34 33 32 32 33 34 36 33 33 34 36
37 38 39 39 40 41 40 40 40 36 32 30 32 32 32 32 29 29 30 31 31 31 32 32 30 32 32 34 34 35 36 36 37 37 36 35 35 35 34 35 37 37 36
39 39 39 40 39 39 38 39 40 38 36 36 35 36 36 34 31 32 32 33 34 35 35 34 33 34 34 34 35 36 37 37 36 36 36 37 37 36 36 36 37 38 37
41 41 41 42 39 38 38 39 41 40 39 38 39 39 36 35 35 36 36 36 35 37 36 36 37 37 37 38 37 38 35 35 34 34 34 34 35 36 37 37 38 37 36
40 42 42 44 43 40 40 40 42 43 42 41 40 41 39 40 39 41 41 41 41 40 38 39 39 41 41 43 41 41 37 35 35 35 35 36 37 36 37 37 38 40 39
41 41 43 42 44 43 41 42 44 44 44 43 43 44 44 44 44 43 43 43 43 44 42 43 45 46 45 44 43 38 38 37 37 36 37 37 38 39 39 39 40 41 41
43 42 43 45 44 45 47 47 46 47 46 44 44 46 47 47 45 45 45 44 44 45 45 46 48 48 48 45 42 43 43 40 40 41 40 39 39 40 41 43 43 44 44
41 40 41 42 44 46 48 50 52 52 52 51 49 47 47 48 49 50 51 49 49 50 50 50 49 51 50 48 48 48 48 44 44 45 44 43 41 41 43 44 46 47 47

GFSSE_500_spd_063.txt.gz
Wind_Speed
15 13 15 17 19 20 20 19 20 20 19 18 18 17 17 17 17 15 14 14 13 13 13 12 12 12 11 12 12 14 15 15 16 17 17 17 17 17 17 17 17 17 17
16 14 17 16 18 18 16 16 14 13 13 14 13 13 15 16 17 16 16 17 16 16 16 15 15 14 14 15 15 16 16 17 17 18 18 18 19 19 18 18 18 19 19
19 16 17 18 18 18 17 16 15 16 16 15 14 13 14 14 15 15 16 16 17 19 19 19 19 18 18 17 17 18 19 19 19 19 19 20 20 20 20 20 20 20 19
19 18 18 19 19 19 19 17 16 16 16 17 17 18 17 17 18 18 17 17 16 17 19 19 18 20 20 20 19 19 20 20 20 21 21 22 22 22 22 22 21 21 22
20 19 18 18 19 18 18 17 16 16 16 16 16 17 18 18 19 18 18 18 18 18 18 18 18 17 18 20 21 20 21 21 22 22 22 22 23 23 23 24 24 24 23
21 21 19 18 20 18 16 17 16 15 16 16 17 16 17 17 17 18 18 19 19 19 18 17 16 15 16 17 19 20 20 21 22 22 23 23 24 25 25 24 23 22 20
20 21 21 21 21 20 20 20 20 18 19 19 19 18 19 19 19 18 17 17 17 17 18 18 17 17 18 18 18 19 20 20 20 21 22 23 23 23 22 21 21 21 21
23 24 24 24 24 23 25 24 23 23 23 21 21 21 20 20 20 18 18 17 17 17 17 17 17 18 18 18 18 19 19 19 20 20 20 20 21 21 21 20 20 21 22
26 26 27 27 26 26 27 26 25 24 23 24 23 23 22 22 21 20 19 18 18 18 17 17 17 18 18 18 19 19 19 20 21 21 20 21 21 21 21 22 22 23 24
30 30 29 28 29 28 27 26 25 24 23 24 24 24 24 24 22 21 21 20 19 18 17 17 17 19 19 19 19 20 21 21 21 22 22 22 23 24 24 24 25 27 26
32 33 33 32 31 30 28 27 27 25 24 24 24 25 25 24 24 23 23 23 22 20 20 20 19 19 19 19 20 20 21 21 22 23 24 25 27 28 29 29 30 30 30
34 35 34 33 32 30 29 29 28 27 25 25 25 25 25 25 24 23 23 23 23 22 21 21 21 20 20 20 21 21 22 22 23 23 24 25 27 30 31 33 34 34 33
31 33 33 32 33 32 31 29 28 26 24 24 25 26 25 25 24 23 23 22 22 22 22 21 22 21 21 22 22 23 23 23 24 25 26 26 26 28 30 30 32 33 33
28 27 28 30 30 30 30 28 27 26 27 27 28 28 26 25 24 23 22 22 22 22 21 22 22 22 22 23 24 23 24 25 26 26 27 28 29 28 28 29 28 28 29
28 27 28 29 29 30 30 29 29 30 31 31 29 28 26 25 24 22 22 23 23 23 22 22 24 24 24 25 25 24 24 25 25 26 27 28 27 27 27 28 29 29 29
32 32 34 34 33 34 34 34 34 34 35 33 30 28 26 25 26 24 23 24 24 24 23 23 23 24 24 24 25 25 25 26 27 26 27 27 27 27 28 27 29 30 29
34 35 35 35 35 36 36 37 36 38 38 35 32 28 27 27 28 25 25 25 26 24 24 23 24 24 24 24 24 24 25 27 28 28 28 28 29 29 30 29 30 30 31
35 35 36 37 38 39 39 39 38 40 39 38 34 31 29 29 29 26 26 27 27 26 26 26 25 24 24 25 25 25 26 28 29 30 30 30 31 30 30 31 31 31 32
36 37 39 40 41 41 42 42 43 42 41 38 36 34 31 31 31 29 28 30 30 28 29 28 28 27 26 27 27 28 29 30 31 31 32 32 33 34 34 34 33 32 31
39 40 41 41 43 44 45 44 45 44 42 40 39 37 36 35 34 32 32 32 32 30 31 31 30 28 30 29 29 30 31 32 34 33 32 31 31 32 34 34 33 34 33
40 40 40 41 42 45 45 46 45 44 45 42 42 42 40 38 36 35 34 34 35 34 34 34 32 32 32 32 33 32 34 35 38 36 33 31 31 31 32 33 33 33 33
39 40 39 39 40 44 46 47 46 45 44 44 42 43 41 39 37 38 37 38 39 39 38 36 34 34 35 35 34 36 36 37 40 39 38 34 33 33 32 33 34 35 35
42 41 40 41 42 41 43 45 45 44 43 45 43 43 42 42 43 43 41 41 42 40 41 41 38 38 38 38 38 41 39 38 38 40 41 38 36 35 36 35 35 36 38
43 42 42 42 44 45 44 43 43 44 43 44 45 45 46 46 46 46 46 44 45 45 44 42 43 43 42 41 42 43 42 41 39 39 44 43 38 37 39 40 40 40 40
42 42 41 41 41 43 45 44 42 45 45 44 45 46 47 48 49 49 49 49 48 47 45 43 45 45 44 45 46 47 45 45 44 41 44 48 44 39 39 42 44 44 44
38 40 41 41 41 42 43 44 43 42 43 46 48 49 50 50 51 51 51 50 49 48 48 49 48 49 49 49 49 50 50 49 47 47 48 52 51 46 44 42 47 50 50

GFSSE_500_spd_066.txt.gz
Wind_Speed
13 12 13 14 16 18 19 19 19 19 19 18 18 18 18 17 18 17 18 17 16 15 14 13 13 13 13 12 12 13 13 14 15 17 17 18 18 18 18 18 18 17 16
13 14 15 14 13 15 17 17 16 16 15 14 14 16 15 16 16 17 18 18 19 19 16 16 16 16 15 14 15 15 16 17 18 19 19 19 20 20 20 20 20 20 19
17 16 15 14 14 15 15 16 16 17 16 16 17 16 15 16 15 16 16 15 17 16 17 17 18 18 18 18 17 17 17 18 19 19 20 20 21 21 21 22 21 21 20
18 16 15 16 16 17 17 15 15 16 16 17 18 18 19 19 18 18 18 18 18 17 16 15 17 18 18 18 18 18 18 19 19 20 20 21 21 21 22 22 23 22 23
19 17 17 17 17 15 15 17 16 16 16 16 16 16 17 16 16 18 18 20 19 19 18 17 18 18 17 17 17 18 18 18 19 19 21 21 22 22 23 23 24 24 23
20 19 19 17 17 17 15 16 15 16 17 16 16 16 16 16 17 17 18 18 18 19 19 19 19 18 18 17 17 17 17 18 19 20 21 21 22 22 22 22 22 21 20
20 20 20 18 18 18 17 18 17 17 18 19 19 19 20 20 20 20 20 19 19 19 20 20 20 19 18 18 17 17 16 17 17 18 19 20 20 21 20 20 20 19 20
22 21 21 21 21 21 20 22 21 20 21 22 22 23 23 22 22 21 21 21 21 20 20 19 17 17 16 16 16 17 17 17 17 18 19 19 20 21 20 20 20 20 21
24 23 23 24 25 25 25 25 26 23 23 23 23 23 23 23 22 22 22 22 21 20 19 19 18 17 17 17 18 18 18 18 19 21 22 22 22 22 22 22 23 23 23
27 27 28 28 28 28 27 28 27 25 23 25 25 25 24 24 24 24 23 23 22 21 21 21 21 19 18 18 19 19 20 21 21 21 21 22 22 23 24 25 26 26 27
31 32 31 31 31 30 29 29 28 29 26 26 26 24 24 25 25 25 25 25 24 23 22 22 21 21 20 19 19 19 19 20 21 21 22 23 24 24 25 26 28 29 31
34 35 34 33 32 31 31 31 30 30 29 28 25 25 23 24 25 25 25 25 24 23 23 22 22 21 21 21 21 21 21 21 22 23 23 24 25 25 26 27 28 29 29
32 34 35 35 34 33 33 32 31 31 30 28 26 25 25 25 25 25 24 25 25 24 24 23 22 22 21 21 22 22 22 23 23 24 24 25 26 27 27 27 28 29 29
31 33 34 33 33 34 33 33 32 31 29 28 27 27 27 27 27 26 25 25 24 24 23 23 23 21 21 20 20 21 22 23 23 24 25 25 26 27 28 27 27 27 28
31 31 31 31 31 32 32 31 30 29 29 29 30 30 30 29 28 26 24 24 25 25 24 23 23 23 21 21 21 21 22 23 23 24 24 25 25 25 26 26 26 27 27
32 32 32 31 31 32 32 32 32 32 33 33 33 32 30 30 29 27 26 26 27 27 25 25 24 22 21 21 22 21 21 22 23 23 24 25 25 26 26 27 28 29 29
33 34 33 34 34 35 35 34 34 35 37 36 36 35 33 32 31 29 28 28 29 28 27 27 25 24 24 23 22 21 21 22 23 23 25 26 26 27 27 27 27 28 30
35 35 37 36 37 37 37 36 37 39 39 39 38 35 34 35 33 33 31 31 32 31 29 28 28 27 26 26 24 23 23 23 24 25 27 28 29 29 30 30 30 30 32
38 38 37 38 39 39 39 39 41 41 41 41 41 40 39 36 36 36 35 34 35 33 32 32 31 30 29 29 27 26 25 25 25 26 28 31 31 31 30 30 30 30 31
37 38 38 39 40 41 42 42 42 44 43 43 44 44 43 41 39 39 39 38 36 35 35 35 35 33 32 31 30 28 28 27 28 28 29 31 32 32 32 31 30 30 31
37 36 37 39 40 42 42 43 43 44 45 45 47 47 46 45 44 42 42 41 40 39 39 39 38 36 35 34 33 31 32 32 30 30 31 32 32 34 34 34 34 33 32
38 37 37 38 38 40 41 41 43 44 46 46 46 47 47 47 47 45 44 44 44 43 43 43 41 40 38 37 36 35 35 36 34 34 35 35 35 35 38 38 38 36 36
38 39 39 39 39 40 41 43 45 46 46 47 46 45 47 49 50 48 49 49 48 47 46 46 43 42 42 41 40 40 40 38 39 37 38 38 38 38 40 43 43 44 44
41 41 41 41 41 40 42 44 45 45 45 45 48 48 48 49 50 52 52 52 50 49 47 47 47 46 46 44 44 42 43 43 43 41 42 43 43 43 42 42 46 45 45
42 40 41 42 42 41 41 43 44 45 44 43 45 48 50 50 51 52 53 54 53 52 51 51 48 49 51 48 47 45 46 46 47 47 46 47 47 48 47 48 52 53 48
39 40 41 41 42 43 43 44 44 45 44 43 41 43 47 49 51 53 54 54 55 55 54 54 53 52 52 52 50 49 49 49 50 51 51 51 51 51 50 52 53 54 53

GFSSE_500_spd_069.txt.gz
Wind_Speed
13 13 12 12 13 16 18 19 17 17 18 19 18 16 16 17 17 17 17 17 17 17 18 17 17 17 16 15 14 14 14 14 14 15 16 17 18 18 18 18 18 18 19
14 14 13 13 12 13 15 15 16 17 16 17 15 14 14 15 15 15 15 16 17 19 19 20 19 19 19 18 18 17 16 16 16 16 17 17 18 18 19 19 19 19 19
17 16 15 14 14 14 15 14 15 16 16 17 17 17 17 18 18 17 17 18 18 18 18 19 18 18 18 18 18 17 17 17 17 17 17 18 18 19 20 20 20 20 20
20 18 16 15 15 15 14 14 13 14 15 16 17 18 18 18 19 19 19 19 20 19 19 19 19 19 19 18 17 17 17 17 17 17 18 19 19 20 20 20 21 22 22
19 19 17 16 15 14 14 14 14 15 16 15 15 16 16 16 17 17 18 17 17 17 18 20 19 20 20 19 17 17 17 17 17 18 18 19 20 20 21 22 22 22 21
22 19 19 18 17 16 14 15 14 15 16 16 16 16 16 17 18 18 19 19 18 19 20 20 20 19 18 18 17 18 17 17 17 17 18 18 19 20 20 21 20 20 19
23 21 21 20 19 18 16 16 16 17 18 18 18 18 18 19 20 20 20 21 21 21 21 21 20 19 18 18 17 16 16 16 16 17 17 17 17 18 19 19 20 20 20
25 24 23 22 21 20 19 18 18 18 21 22 22 22 21 21 22 21 22 22 22 23 23 22 21 21 20 18 16 16 16 16 16 17 15 17 18 18 20 20 20 21 21
27 26 25 25 23 22 22 21 22 22 21 24 23 23 22 23 23 23 23 23 22 23 24 23 23 22 21 21 19 19 18 19 19 19 19 20 21 20 21 22 22 23 24
28 27 26 25 25 25 26 25 25 25 24 21 24 23 24 24 25 24 24 23 23 23 24 24 24 24 23 23 22 22 21 20 20 21 20 21 21 21 22 24 24 25 26
30 30 29 28 28 28 28 28 27 27 26 24 24 25 25 25 24 24 23 24 24 24 25 24 24 24 23 23 22 22 21 21 21 21 21 21 22 21 22 23 25 26 26
31 31 30 30 31 31 29 29 28 28 28 27 26 26 26 24 23 23 24 24 24 24 24 25 25 25 24 23 22 22 22 22 21 21 22 22 24 22 23 23 24 25 25
32 31 31 31 31 31 31 30 31 29 29 29 28 28 26 24 23 23 25 26 26 25 25 25 25 24 23 23 22 21 21 21 21 20 21 22 25 23 24 24 25 25 25
32 31 32 32 32 32 32 32 32 31 31 30 29 28 26 25 26 26 26 26 25 25 23 24 25 24 24 23 22 22 21 21 20 20 20 21 24 24 24 24 25 26 26
31 32 33 33 33 33 32 31 32 32 32 31 28 28 28 27 28 27 26 26 26 25 25 26 26 25 25 23 23 22 21 21 21 21 20 21 22 23 24 24 25 26 27
31 34 35 34 32 32 31 31 33 33 31 29 30 31 30 31 31 30 28 26 26 27 28 29 28 27 26 25 24 22 22 21 22 22 21 22 21 22 24 25 26 26 27
34 35 35 35 34 33 32 33 33 33 33 33 33 34 33 33 33 31 31 29 29 30 31 30 29 29 28 26 25 24 24 24 23 23 23 21 22 22 25 26 27 27 27
35 35 36 36 36 35 34 35 35 35 37 37 36 36 36 36 35 35 34 32 32 34 33 33 32 31 30 29 27 27 26 27 25 25 24 24 24 23 25 27 28 28 27
36 36 37 37 36 36 35 36 37 38 38 38 38 38 38 39 40 39 39 38 36 36 36 36 35 35 34 32 30 30 30 30 28 27 26 27 25 24 26 28 28 28 28
38 38 38 37 36 36 38 39 39 39 38 40 40 40 41 41 42 42 42 41 41 39 38 39 39 38 37 35 35 34 33 32 31 29 30 29 27 29 29 29 30 31 31
38 38 38 38 37 37 39 38 40 39 41 40 41 41 41 41 43 43 44 45 45 44 41 43 43 42 41 41 38 38 38 36 33 32 33 32 31 32 33 32 33 33 34
39 39 38 38 37 37 39 39 40 43 43 41 42 42 42 42 43 44 44 45 48 48 47 45 45 46 45 45 43 43 40 40 36 38 38 36 35 35 36 36 37 37 36
38 39 39 38 38 38 40 42 39 44 44 43 43 44 46 46 45 46 47 47 49 49 49 49 49 49 48 48 46 45 43 41 41 41 42 41 40 40 41 41 42 42 41
38 39 39 39 39 40 41 41 42 42 44 44 45 47 48 49 47 46 48 49 50 50 51 52 52 52 52 51 50 47 48 46 46 44 44 44 44 43 44 46 47 46 46
36 36 37 38 39 41 42 43 44 45 43 44 46 46 47 47 48 47 47 48 49 50 52 53 54 54 53 54 52 51 50 50 50 49 46 48 48 47 48 50 50 50 52
36 36 37 38 39 40 42 43 44 44 44 45 46 47 47 46 47 48 49 49 50 51 53 54 56 57 56 56 56 55 54 55 53 53 53 53 54 54 52 52 54 55 56

GFSSE_500_spd_072.txt.gz
Wind_Speed
15 14 13 12 12 13 13 14 14 14 13 14 15 15 15 14 13 12 13 14 14 14 15 16 17 19 20 18 17 17 17 17 16 15 15 15 15 15 15 15 16 17 17
14 13 13 11 11 10 11 13 13 13 13 14 13 13 12 12 13 13 13 14 15 15 15 16 17 18 18 18 19 19 19 19 18 18 17 16 16 16 16 16 17 17 18
16 15 14 13 12 12 12 13 13 12 12 13 14 14 15 16 16 16 16 16 17 18 18 18 18 17 17 17 17 17 17 18 18 17 17 16 16 17 17 17 18 18 19
18 17 16 15 14 14 14 13 13 13 13 13 13 14 15 15 15 16 16 16 16 18 17 16 17 17 17 18 18 18 17 17 17 17 16 16 16 17 17 18 18 19 19
20 19 19 17 17 16 15 14 13 13 14 14 13 13 14 14 14 15 15 16 18 18 18 16 16 17 17 17 17 17 17 18 17 16 16 16 16 16 16 16 16 17 19
22 20 20 19 18 16 15 15 14 13 13 13 13 14 14 15 16 17 17 18 19 19 18 17 18 18 18 18 19 19 18 17 17 16 15 14 15 16 15 15 16 16 17
22 23 22 20 20 18 16 14 15 15 15 15 15 16 17 18 19 19 19 20 20 20 20 20 20 19 20 21 20 19 18 17 15 16 16 16 15 15 16 17 17 17 17
24 23 22 21 21 20 18 18 16 17 17 17 17 18 19 20 19 19 19 20 21 21 21 21 21 21 21 21 20 20 20 20 18 20 18 17 17 18 17 17 17 17 18
26 26 24 23 24 24 21 21 20 17 18 20 20 20 19 20 20 20 21 21 21 21 21 21 21 21 21 21 21 21 22 22 20 20 20 19 19 19 19 17 18 19 19
30 28 26 26 26 25 24 22 21 21 20 19 20 20 20 21 21 21 21 21 20 20 20 20 21 22 22 23 23 23 22 22 20 19 19 19 18 19 19 18 19 19 20
30 31 28 28 27 26 25 24 24 24 23 21 19 20 21 21 22 21 20 20 20 21 21 21 22 23 23 24 24 23 22 21 20 19 19 20 19 19 19 19 20 21 22
31 31 29 28 27 26 25 27 26 25 24 24 22 20 21 21 22 21 20 20 21 22 22 22 23 24 24 24 23 22 21 20 20 19 20 21 19 19 19 20 21 21 21
31 30 30 29 29 28 27 29 27 25 25 24 25 24 22 22 22 20 21 21 22 23 23 23 24 24 23 23 22 22 21 21 21 19 20 20 20 19 20 20 21 20 20
33 31 31 31 30 30 29 29 28 25 26 25 24 26 24 22 22 21 22 21 23 23 23 24 24 24 24 23 23 22 23 22 21 20 19 18 21 20 20 20 20 21 21
33 32 32 32 32 31 29 29 28 27 26 27 26 24 23 23 24 24 24 24 24 25 24 26 26 27 26 25 23 23 24 22 22 19 18 20 21 21 20 20 20 22 22
34 33 34 33 32 31 30 30 28 28 27 27 26 25 25 26 27 27 26 25 26 26 28 28 28 27 28 26 25 25 25 23 23 22 18 21 21 21 21 21 21 22 23
36 34 33 34 33 33 32 30 28 28 28 28 27 27 29 31 30 30 30 28 29 29 29 30 30 30 30 29 27 26 26 25 25 24 22 21 24 22 23 22 23 24 24
37 36 34 34 34 35 33 31 30 29 29 29 30 30 31 33 32 32 33 32 33 34 33 32 32 32 33 32 32 29 28 27 28 27 27 24 26 25 24 25 25 25 25
38 36 35 34 35 35 34 32 31 30 31 32 32 33 34 35 35 35 36 36 36 35 35 35 35 36 36 35 35 32 31 31 31 30 30 29 27 27 28 26 28 27 26
37 37 36 35 33 35 35 34 32 32 32 34 35 35 35 35 37 37 37 37 38 36 36 38 39 40 40 39 38 36 35 35 34 33 32 33 34 31 29 30 31 29 30
37 35 36 36 36 37 36 34 35 34 35 36 36 37 37 38 38 39 39 39 40 39 39 39 41 42 43 44 43 40 40 40 38 36 37 37 37 36 34 34 34 33 32
39 38 37 37 37 37 37 36 35 38 37 39 39 37 40 41 43 42 41 41 41 41 42 42 43 43 43 46 47 45 44 42 40 42 42 41 40 39 40 38 39 38 37
40 39 39 38 38 38 39 41 37 38 39 40 39 40 42 43 44 44 44 42 42 42 44 44 42 42 45 47 46 48 48 46 44 44 45 42 42 42 42 43 42 42 40
41 40 40 39 40 41 41 40 42 39 38 40 42 42 43 45 45 46 45 47 45 45 45 44 44 46 47 48 49 49 51 49 49 46 46 47 46 46 45 46 44 43 46
40 39 39 39 40 39 39 39 40 42 40 40 42 44 45 46 46 47 49 50 50 47 48 49 49 47 49 51 50 51 53 53 53 53 51 49 49 51 49 48 49 53 50
33 34 35 36 38 39 38 39 40 41 43 43 42 43 46 47 46 46 47 49 51 52 52 51 53 53 53 53 53 53 54 55 56 56 57 56 54 55 54 53 54 53 56

GFSSE_500_spd_075.txt.gz
Wind_Speed
15 14 14 13 12 11 11 11 11 11 10 10 11 13 12 10 9 8 9 10 10 11 10 12 13 14 15 15 17 17 17 16 16 16 15 15 15 15 15 16 15 15 15
16 14 14 12 11 9 10 12 12 11 11 12 11 10 9 10 10 11 12 13 13 12 14 14 14 16 16 16 16 16 15 15 16 16 16 17 16 15 15 15 15 16 16
16 14 13 12 11 10 10 10 10 10 10 10 10 11 11 12 12 12 13 14 14 14 14 14 14 15 16 17 17 17 17 17 17 16 16 15 15 15 15 15 15 15 15
17 16 15 14 12 11 11 11 11 11 11 11 11 11 11 12 13 12 12 12 13 12 14 14 16 16 17 18 17 16 16 17 17 17 17 17 16 15 15 14 15 14 14
18 17 16 15 14 14 15 14 14 14 13 12 12 11 11 12 12 13 13 14 14 15 16 16 17 17 18 18 17 17 18 17 17 18 17 16 16 14 15 15 14 14 16
20 19 19 18 18 16 15 16 15 14 13 12 12 11 12 12 13 14 15 16 16 17 17 17 17 17 18 18 17 17 18 17 17 16 17 16 16 16 16 16 16 16 15
22 21 20 20 20 18 16 16 17 14 14 14 12 12 13 14 15 16 16 16 16 16 17 17 17 17 17 17 17 17 17 17 18 18 18 18 18 18 18 18 17 16 15
25 24 24 23 22 20 18 17 16 17 16 15 14 14 15 16 15 15 16 17 18 18 17 16 16 17 17 18 18 18 18 18 19 19 19 19 20 19 17 17 16 16 17
27 27 26 24 23 22 19 18 17 17 17 18 17 17 16 16 15 16 16 17 17 17 16 16 17 17 17 17 18 19 20 19 21 20 20 19 19 18 17 17 17 17 17
30 29 28 27 25 24 22 20 19 18 17 17 19 18 17 16 16 16 17 17 17 16 16 18 18 19 19 19 19 20 20 20 22 20 20 18 18 18 18 18 17 17 17
33 31 30 29 26 25 23 21 21 20 19 19 18 17 17 17 17 17 17 17 17 17 17 18 19 20 21 20 20 20 20 20 20 19 19 19 19 19 18 18 18 18 17
34 33 31 29 28 25 23 22 22 22 22 20 18 17 16 16 17 17 16 15 16 18 18 19 20 21 21 22 21 21 20 20 19 21 20 20 19 19 18 18 18 18 18
34 32 30 29 27 25 25 24 25 23 22 22 21 18 16 18 18 16 15 15 17 18 19 20 21 22 22 22 22 23 22 22 21 21 21 21 20 19 18 18 18 17 17
33 33 31 30 28 27 26 26 25 24 24 23 23 21 19 18 19 18 17 18 18 19 21 22 22 23 24 23 24 24 23 24 22 21 22 21 22 20 19 18 18 17 17
34 33 32 31 30 29 28 27 27 25 24 23 23 23 20 18 20 19 20 20 21 21 23 24 24 25 26 25 26 26 26 25 24 22 22 23 22 22 21 19 19 19 19
36 34 33 32 32 30 28 28 27 26 26 24 24 24 23 20 21 22 22 23 24 25 25 26 27 27 29 28 27 26 26 26 26 23 21 24 24 24 23 22 21 21 22
35 35 33 33 33 31 29 30 29 28 26 26 24 24 24 24 23 24 24 24 26 28 28 28 30 30 30 31 31 30 28 28 27 25 24 24 26 26 25 24 24 24 24
38 35 35 34 32 32 31 30 29 28 27 27 26 26 27 27 26 26 27 27 28 30 29 30 31 32 33 34 34 33 31 30 31 29 27 28 27 29 28 27 27 26 27
40 37 34 33 32 33 33 31 30 29 28 28 29 29 29 29 29 29 30 30 31 31 32 33 34 35 34 35 37 37 35 35 34 34 32 31 29 30 32 30 30 29 29
40 39 36 34 34 34 35 33 31 31 30 30 30 30 29 30 32 32 33 33 34 34 33 34 36 37 36 37 39 40 40 38 38 37 36 36 35 33 34 35 34 33 33
41 40 37 34 32 33 35 34 32 32 33 33 31 32 30 32 34 35 35 36 36 36 36 36 36 37 38 40 41 41 42 41 39 40 40 40 39 39 39 39 38 39 39
40 38 35 36 35 34 35 35 36 35 35 33 33 33 34 35 34 35 37 39 39 39 38 39 39 40 41 41 40 42 42 42 40 42 43 42 42 41 40 42 43 43 41
36 35 36 39 38 36 36 36 36 37 36 36 36 36 36 37 36 39 41 40 40 42 42 41 43 43 42 44 45 46 47 46 44 44 44 44 45 46 45 46 42 40 42
40 41 39 38 39 39 39 38 37 37 37 38 39 40 39 40 40 42 43 43 43 42 44 44 44 45 46 46 49 49 51 51 50 50 47 48 48 48 49 49 49 47 43
44 45 43 42 42 42 40 40 40 40 40 39 39 40 42 43 45 46 45 45 45 45 45 46 47 47 48 49 50 53 53 53 53 54 52 52 52 51 52 54 53 48 49
39 39 44 44 42 42 42 42 41 41 40 40 40 40 41 44 45 46 46 45 45 46 46 46 47 49 51 53 55 56 57 57 57 59 59 56 56 55 51 54 55 53 51

GFSSE_500_spd_078.txt.gz
Wind_Speed
19 17 16 14 12 12 11 10 9 8 8 8 8 8 11 10 7 7 8 9 9 10 10 11 12 12 13 13 13 14 15 16 15 15 16 16 16 16 15 14 13 13 13
18 17 16 14 13 12 11 11 11 11 10 10 10 9 8 8 8 9 10 10 10 11 11 12 13 13 13 14 14 15 15 16 16 16 15 16 17 16 15 15 14 13 14
19 18 17 15 13 12 10 8 8 8 7 7 8 8 8 9 10 10 10 10 11 11 11 12 14 14 14 15 16 17 17 18 18 18 18 18 17 17 16 15 14 14 14
21 20 17 15 13 11 9 8 7 7 7 7 8 9 10 11 11 10 11 11 12 13 13 12 14 15 15 15 16 17 18 18 18 18 18 19 17 17 16 14 14 17 16
20 19 18 16 13 11 11 10 9 9 10 11 11 12 12 11 11 11 11 12 12 14 14 14 14 16 15 15 16 16 17 17 17 18 18 17 16 16 16 17 18 19 19
21 19 18 16 14 13 12 12 11 12 12 12 13 12 12 12 12 11 11 13 14 13 13 14 14 16 15 16 16 16 16 17 18 17 18 18 17 18 19 19 20 20 18
23 20 19 17 16 15 13 13 15 12 13 13 13 13 12 12 13 12 12 12 13 13 14 14 14 15 15 17 16 17 17 17 17 17 18 19 19 20 20 21 21 18 16
24 22 20 19 18 17 15 15 15 16 14 14 13 13 14 15 14 13 12 13 13 13 13 13 14 15 16 16 17 16 17 18 18 18 19 19 20 20 20 19 18 17 16
27 25 23 21 20 19 18 17 16 16 17 16 15 14 15 16 15 14 14 14 14 14 14 14 15 15 16 17 17 17 19 19 19 20 19 19 19 19 18 18 17 17 16
28 27 25 24 22 21 20 19 17 17 16 17 17 17 17 17 16 16 16 15 15 15 15 15 16 16 16 17 18 18 19 20 20 20 19 19 19 19 19 18 18 18 17
30 28 26 26 24 23 23 21 19 18 18 18 17 17 18 18 18 18 17 16 16 15 15 16 17 17 17 17 18 17 18 20 21 20 19 19 20 20 20 19 19 19 17
33 31 30 29 27 25 24 22 21 20 19 18 17 17 17 18 18 18 18 17 16 15 16 17 17 18 18 18 18 18 19 20 22 22 22 21 21 22 21 21 20 20 18
36 34 32 31 29 26 25 24 23 22 21 20 18 17 18 19 18 17 17 17 16 17 18 19 18 19 20 20 20 21 21 23 24 23 23 23 23 23 23 22 22 20 18
37 37 35 32 29 28 27 26 24 23 21 21 20 19 19 20 20 18 17 17 18 19 20 20 20 22 23 23 24 24 24 24 25 25 25 25 25 24 23 23 22 21 19
38 36 36 34 32 30 28 27 26 24 23 23 23 21 20 21 20 19 18 18 20 21 22 23 22 22 24 25 26 27 26 26 27 27 27 28 27 26 25 24 24 22 21
40 38 38 35 33 32 31 30 27 25 25 25 24 23 21 22 23 22 21 22 23 23 23 23 24 24 26 28 30 31 30 30 29 29 28 29 30 29 27 26 26 25 24
42 39 36 36 34 34 33 31 29 28 27 26 25 24 23 23 24 24 24 25 26 26 26 26 28 29 29 31 33 34 34 33 33 32 31 30 31 31 30 29 29 28 28
46 43 41 38 37 35 33 33 31 29 28 27 26 26 26 27 26 25 26 27 28 29 28 29 30 31 31 32 34 36 36 37 37 36 34 33 33 33 34 34 32 32 32
45 45 43 41 39 37 37 35 34 31 29 29 28 29 29 27 26 28 29 29 29 29 29 30 31 31 32 33 34 35 36 37 38 39 39 37 36 35 36 37 37 36 36
45 44 45 43 41 40 38 36 33 32 32 32 31 30 29 27 29 30 31 32 32 30 29 30 32 33 34 36 37 37 39 40 40 40 40 40 39 38 40 42 43 42 40
50 45 43 41 39 41 40 38 36 33 35 33 31 31 29 30 32 32 33 33 34 33 32 32 34 35 36 39 40 40 43 41 38 38 41 40 40 42 43 44 43 43 41
46 45 41 39 38 37 39 39 37 35 34 31 31 31 33 34 34 33 34 35 35 35 36 36 37 38 38 41 42 44 41 42 43 45 45 46 46 45 44 46 48 46 44
45 44 42 40 38 40 40 40 38 34 32 33 33 34 35 35 35 35 35 36 38 38 38 40 41 42 41 43 42 44 45 45 46 48 49 51 50 50 48 48 48 50 50
46 44 43 44 44 43 39 37 36 35 34 34 34 36 36 37 37 37 38 39 39 40 41 42 43 43 43 42 43 45 47 48 49 49 51 51 53 54 52 51 51 45 51
50 49 43 43 43 42 41 38 35 35 36 38 38 39 39 40 40 40 40 41 41 43 43 43 43 42 40 41 42 45 47 50 52 53 54 56 58 58 59 59 55 49 50
51 47 49 52 47 42 42 42 43 41 41 41 42 42 41 42 43 43 44 44 44 43 42 42 40 38 38 40 44 47 51 53 51 47 43 44 46 54 63 67 67 64 58

GFSSE_500_spd_081.txt.gz
Wind_Speed
20 17 15 14 13 12 11 11 9 7 6 6 5 4 6 7 5 5 6 8 9 9 10 10 11 11 11 11 12 13 13 14 15 16 16 18 17 17 17 16 15 15 14
20 19 17 15 14 13 13 12 11 9 8 8 7 6 6 6 6 7 9 9 10 11 12 12 11 12 13 13 14 14 15 16 17 18 18 18 18 18 17 17 16 15 14
22 21 19 17 16 14 14 12 11 9 7 5 4 5 6 6 8 8 10 11 11 12 12 12 12 12 12 13 14 15 16 16 17 18 19 18 19 19 19 18 16 15 17
21 22 21 18 17 15 13 11 8 6 5 4 5 5 7 8 9 10 11 12 13 12 11 11 12 12 13 14 15 15 15 17 17 18 19 19 19 18 18 17 17 18 19
22 23 22 18 16 15 13 11 8 6 6 6 6 7 8 9 10 11 13 12 12 12 11 11 12 13 13 14 14 14 15 17 17 18 17 18 17 18 18 18 19 20 21
19 22 20 17 16 15 14 11 8 7 7 7 7 8 9 11 12 13 13 14 13 12 12 12 13 14 13 14 15 16 16 16 17 18 17 17 19 19 19 19 20 21 20
22 22 22 19 17 15 12 11 10 9 8 8 9 10 11 11 13 14 14 14 14 13 14 13 14 14 14 14 15 16 17 17 18 18 18 18 19 20 20 20 19 19 18
25 24 22 20 18 15 12 12 13 12 10 10 10 11 11 12 14 15 15 15 15 15 15 14 14 14 15 15 16 17 17 17 19 19 19 20 19 19 20 19 19 18 17
27 25 24 22 20 17 14 13 13 14 13 12 12 12 13 14 15 15 16 16 15 15 15 15 15 15 15 16 17 18 19 19 19 19 19 20 19 20 20 19 18 18 18
31 28 26 23 20 18 17 15 14 14 14 15 15 15 15 16 17 17 17 16 16 15 15 15 16 16 16 17 17 19 19 19 20 20 21 21 21 21 21 20 20 19 19
31 29 26 23 22 21 19 18 16 16 15 15 16 17 19 19 19 19 18 17 17 16 16 17 18 19 18 18 17 18 20 20 20 22 23 23 24 24 23 22 22 22 21
33 32 29 26 24 23 22 20 18 18 17 17 17 17 19 20 20 20 20 20 19 18 18 18 19 19 19 19 18 19 20 21 21 22 24 25 26 26 25 25 24 24 23
38 34 30 28 27 25 24 22 21 21 21 20 19 18 18 19 19 20 19 20 20 19 19 20 21 21 20 20 20 19 20 22 23 24 25 26 27 27 28 28 27 26 25
37 35 33 31 29 28 26 25 25 24 24 22 19 18 19 19 19 19 20 20 20 20 20 20 21 22 23 23 23 22 23 24 25 26 27 28 27 28 28 29 29 28 27
40 38 35 34 32 31 29 28 28 27 25 23 20 20 21 21 20 20 20 22 22 22 22 23 23 24 25 26 27 27 27 28 28 29 30 31 31 31 29 30 30 30 29
41 39 36 34 34 33 32 31 29 27 26 25 23 22 23 23 22 21 22 23 23 23 24 25 25 25 27 27 28 28 28 29 31 31 32 33 35 35 33 32 32 32 32
44 41 38 37 36 35 35 33 30 29 27 26 25 24 24 25 25 24 24 24 24 25 25 25 26 27 27 27 29 30 31 31 32 32 33 34 36 38 38 36 35 35 34
46 44 41 38 37 38 37 35 32 30 29 28 27 26 27 28 27 27 26 26 26 27 26 28 28 29 29 29 31 32 34 34 35 36 36 37 38 38 39 40 39 39 38
46 46 43 41 39 38 38 36 34 33 31 30 30 30 30 29 29 28 28 28 29 29 29 30 30 31 31 33 34 34 36 37 37 37 39 40 40 40 41 43 43 43 43
48 48 47 44 42 41 39 38 36 35 34 33 33 33 32 30 29 29 30 30 30 30 31 32 31 32 33 35 35 35 38 39 39 39 40 39 39 40 42 42 43 46 49
50 49 48 46 45 43 41 41 40 38 38 36 35 34 31 30 31 31 31 32 31 32 33 33 33 33 35 37 38 39 39 39 40 41 38 40 42 43 43 44 45 47 50
52 48 48 47 47 45 45 45 44 42 40 38 37 35 33 33 34 34 33 31 33 34 35 34 36 38 39 40 40 41 40 38 38 40 42 44 45 46 46 45 45 47 48
50 47 45 45 46 47 47 46 45 44 41 38 37 37 36 36 36 34 35 35 36 37 37 38 39 41 40 41 41 41 41 39 37 38 42 45 47 49 51 52 52 50 50
50 47 47 48 47 45 45 46 46 45 41 38 38 38 36 36 36 38 38 38 38 39 39 40 41 42 42 41 40 38 39 40 38 40 44 47 47 47 45 44 46 50 52
52 53 49 47 47 47 46 45 45 44 42 39 38 37 37 38 39 40 40 39 40 41 41 42 42 42 41 41 39 36 39 40 43 44 42 37 42 44 45 45 48 52 57
49 51 54 49 47 48 46 45 45 43 41 39 38 39 40 41 42 42 42 41 42 43 43 43 43 41 41 38 36 37 40 43 43 40 42 42 43 44 47 51 51 54 60

GFSSE_500_spd_084.txt.gz
Wind_Speed
18 16 14 13 12 11 10 9 8 7 6 5 3 3 2 3 2 3 4 6 7 8 8 8 10 11 11 12 11 11 12 13 14 15 15 16 16 16 17 17 17 16 16
19 18 17 14 13 12 10 10 9 8 7 6 5 4 4 3 3 4 6 8 8 9 10 11 12 13 11 11 10 11 12 13 15 15 16 17 17 17 17 17 17 16 15
20 19 19 16 14 13 12 11 10 10 9 6 4 3 3 3 5 6 7 8 9 10 12 13 11 12 11 11 12 13 14 14 15 16 17 17 17 17 17 17 17 16 18
23 21 21 18 16 15 13 11 10 9 7 4 3 4 4 5 6 8 9 10 12 12 11 11 11 11 12 12 13 13 14 15 15 16 16 17 17 17 17 17 17 18 19
23 22 20 20 18 16 14 11 9 7 5 5 6 5 5 5 7 10 11 12 12 12 12 11 12 12 12 13 13 13 14 15 15 16 16 17 17 18 19 19 19 19 19
22 24 20 19 19 18 14 12 10 8 8 7 6 6 6 8 9 10 10 11 12 12 12 12 13 14 14 13 15 14 15 16 15 16 17 17 17 18 19 20 19 18 19
26 24 22 20 20 19 16 13 11 10 8 7 7 7 8 8 9 10 11 12 12 13 13 14 14 15 14 15 15 15 16 17 17 18 18 19 20 20 20 19 18 18 17
27 27 25 23 21 18 16 14 12 10 9 8 8 8 9 9 10 11 12 13 14 14 14 15 15 15 15 16 16 17 17 18 18 18 19 20 20 20 20 20 20 19 18
29 28 26 24 21 19 16 14 13 12 10 10 9 10 10 10 11 12 13 14 15 15 15 15 15 15 16 17 17 18 18 18 19 18 19 20 21 21 21 22 22 22 21
31 29 27 24 22 21 18 15 13 13 13 12 12 12 12 11 12 13 14 15 15 15 15 16 15 16 17 18 18 19 19 19 19 19 20 21 22 23 23 23 24 24 23
31 30 27 24 23 21 19 17 15 13 13 14 15 16 15 14 14 14 15 15 15 16 16 17 16 17 17 19 19 20 19 19 20 22 22 23 24 24 24 24 25 26 25
33 31 28 26 25 23 21 19 17 15 15 14 16 17 17 17 17 17 18 18 17 17 17 17 18 19 19 19 20 21 22 22 22 22 23 25 25 25 26 26 26 27 27
37 34 31 30 28 25 24 22 19 18 17 17 17 18 18 18 17 17 18 18 18 17 17 19 20 21 21 20 21 21 22 23 23 24 25 26 28 28 29 28 28 28 28
40 38 35 32 30 28 27 24 22 21 20 20 19 19 19 19 18 18 19 18 18 18 18 20 21 22 22 22 22 23 24 25 25 26 27 28 28 29 31 31 31 30 30
44 40 37 35 33 31 29 26 25 24 24 22 21 20 20 20 19 19 19 19 20 19 20 21 22 23 23 24 24 24 25 26 27 27 28 29 30 30 31 32 33 33 31
44 43 40 37 35 33 30 29 28 26 26 24 23 22 22 21 20 20 21 21 21 21 22 22 22 23 24 25 26 26 27 28 29 30 31 33 33 34 34 34 35 35 35
44 40 41 40 38 35 34 32 30 29 28 27 26 24 24 23 23 22 23 24 23 24 24 24 24 24 25 26 27 27 28 30 31 31 33 35 35 36 37 38 38 37 39
47 43 42 41 39 38 36 35 33 31 31 30 28 27 27 27 25 25 25 25 25 25 26 26 26 26 26 28 29 29 31 32 34 33 37 38 39 38 39 37 36 36 38
49 47 45 43 41 40 40 37 35 34 33 32 31 31 30 29 27 27 27 28 28 27 28 28 28 28 29 30 31 32 34 35 36 37 39 40 40 40 38 38 40 41 42
53 47 46 45 44 43 42 39 36 34 34 35 34 33 32 30 29 29 30 31 29 29 29 29 30 30 31 33 33 34 36 36 37 38 41 40 39 40 40 41 42 43 45
60 50 45 44 44 44 42 40 38 37 38 37 35 32 30 32 32 32 33 33 31 30 32 32 32 33 34 36 37 37 38 38 38 39 40 38 39 39 41 42 44 44 45
59 57 53 50 48 44 42 42 42 41 41 38 37 35 35 34 35 36 34 32 32 32 33 35 37 36 37 38 39 40 38 38 37 39 38 37 38 39 42 43 42 40 38
53 56 54 54 52 49 47 46 45 43 42 40 39 40 40 39 37 37 36 35 36 37 37 38 40 40 40 39 41 41 41 39 38 34 34 36 39 41 39 37 40 38 38
48 49 57 54 52 50 49 48 47 46 44 43 44 42 40 41 41 39 38 37 39 39 39 41 43 42 41 41 42 41 40 39 36 33 34 38 39 35 40 39 42 41 43
46 46 50 52 54 53 53 51 50 49 48 46 45 43 43 43 43 41 39 39 39 41 43 43 43 41 41 42 42 40 38 35 35 35 35 37 35 37 39 41 41 41 43
44 43 46 48 48 50 52 51 49 50 50 48 46 45 44 44 44 41 41 41 43 45 45 45 44 42 42 42 40 40 36 36 35 37 37 36 34 36 40 43 44 46 47

GFSSE_500_spd_087.txt.gz
Wind_Speed
16 13 13 11 12 12 12 11 8 7 6 5 4 4 3 2 1 2 2 3 4 6 8 8 10 11 11 10 10 10 10 11 11 13 13 14 14 15 15 16 16 16 16
17 16 15 13 12 11 11 10 9 8 7 6 5 5 4 1 1 2 4 5 6 7 9 11 12 11 11 11 10 11 11 12 13 14 14 15 14 14 14 15 15 15 15
18 16 15 15 13 12 11 10 10 9 9 8 6 5 2 1 3 4 5 7 9 11 12 12 10 11 10 11 12 12 12 13 14 15 15 14 15 14 14 15 15 15 16
21 18 18 18 16 14 12 11 10 9 9 8 6 4 2 3 4 5 6 8 10 11 11 11 10 11 12 13 13 13 14 15 15 16 15 16 16 16 16 16 16 16 17
25 22 20 19 18 14 13 12 10 8 7 6 5 4 4 4 4 6 7 9 9 9 10 10 11 11 13 13 13 13 14 14 15 16 16 16 17 18 18 18 17 17 17
26 22 20 20 19 16 14 13 11 9 7 6 5 5 5 4 5 6 7 7 8 9 9 10 11 12 13 13 14 15 14 15 15 16 16 16 17 17 18 18 18 18 18
28 23 21 21 19 17 15 14 12 10 8 7 7 7 5 6 6 6 6 7 7 9 10 11 12 13 13 14 14 14 15 15 16 16 16 17 17 18 18 19 19 20 19
29 26 23 21 21 19 18 16 14 12 10 9 8 7 7 7 8 7 7 7 8 9 10 11 13 14 14 14 15 16 16 17 17 17 18 18 19 19 20 21 21 21 21
28 26 25 23 23 21 19 18 16 13 11 11 10 9 8 9 9 8 7 8 9 10 11 12 13 14 15 16 17 17 17 17 18 19 19 20 20 22 23 23 23 24 23
29 26 27 27 24 22 20 18 16 15 13 12 11 10 10 9 9 9 9 9 10 11 12 12 14 15 16 17 17 17 18 19 19 19 20 21 21 22 23 25 25 26 25
30 27 27 27 24 22 20 19 18 16 15 14 13 11 11 10 11 11 10 11 11 11 12 13 14 15 17 18 17 18 19 20 20 21 22 22 22 23 24 25 26 26 27
34 29 28 27 25 24 23 21 20 19 17 16 14 13 12 12 13 13 13 13 13 13 13 14 14 15 17 18 19 20 20 21 22 22 23 24 24 25 25 26 27 27 28
39 34 31 30 28 26 25 24 23 21 19 18 16 15 14 14 15 15 15 15 15 14 14 15 15 15 17 19 20 22 22 23 22 23 24 25 26 26 27 28 28 29 29
42 39 36 34 31 30 28 27 25 22 20 18 18 18 16 16 16 16 16 15 15 15 15 16 17 18 18 19 20 22 24 25 26 26 26 27 27 28 28 28 30 30 31
43 42 40 38 35 32 30 30 27 24 23 20 20 20 19 18 18 18 17 17 17 16 17 18 19 20 20 20 21 23 24 26 28 28 29 30 31 31 30 31 32 32 33
44 45 43 41 38 36 33 32 30 28 24 22 21 21 21 20 20 20 20 19 18 18 19 19 20 21 21 22 23 24 26 28 29 30 31 33 33 33 34 33 33 35 34
47 49 45 43 41 39 38 35 32 29 25 25 23 23 23 23 22 22 22 21 20 21 21 21 22 22 23 24 24 26 27 29 30 31 33 34 34 35 35 35 35 34 34
50 51 47 48 44 41 39 37 35 32 29 27 25 25 26 26 25 25 24 23 23 24 23 23 24 24 25 26 27 28 30 31 31 33 35 36 36 36 36 35 35 35 36
49 49 48 45 47 43 43 41 38 35 32 30 28 29 29 29 28 28 28 26 25 26 26 25 26 27 27 28 29 30 32 33 34 36 37 38 38 38 36 35 35 35 36
53 48 53 48 43 46 46 44 40 37 34 33 33 33 33 32 31 30 30 30 29 28 28 27 28 28 29 30 31 33 35 35 36 37 39 39 38 37 36 35 35 36 39
56 50 52 52 52 48 48 46 44 40 39 38 36 35 34 33 33 34 34 33 31 30 30 30 30 31 30 33 34 36 36 37 37 38 38 38 37 36 36 34 37 39 36
59 59 52 51 49 48 49 48 46 43 41 38 38 37 37 37 35 33 32 33 31 30 31 32 32 33 35 37 38 39 37 38 38 38 37 39 37 35 34 36 37 34 33
54 58 61 60 50 52 50 47 45 45 42 41 41 42 41 38 35 35 36 36 35 35 34 34 37 36 37 39 42 43 42 38 36 34 35 34 34 35 36 35 32 32 35
52 52 57 57 67 60 52 51 47 46 43 43 42 43 42 42 41 41 41 40 39 38 37 36 38 40 41 43 42 43 43 40 39 36 36 33 35 35 35 32 33 34 36
55 59 55 56 63 65 64 54 49 49 47 46 46 45 45 45 45 43 42 41 40 40 39 38 40 41 44 44 43 43 42 40 38 40 37 34 34 36 33 33 34 35 39
51 52 48 50 56 58 61 57 54 49 48 48 47 46 46 45 45 44 44 43 43 42 42 41 41 43 46 46 44 43 42 40 38 42 37 34 33 35 34 35 36 39 43

GFSSE_500_spd_090.txt.gz
Wind_Speed
16 14 14 15 14 13 12 11 9 9 8 7 6 6 6 4 3 1 1 3 3 4 5 7 9 10 9 9 10 11 10 11 11 12 13 14 16 16 15 14 14 15 14
18 16 14 14 14 12 13 12 11 10 9 8 7 6 7 5 2 1 2 4 4 6 7 8 8 8 9 10 11 12 12 12 13 13 14 15 15 15 15 15 15 15 16
20 17 17 16 14 13 13 13 12 11 10 9 7 7 6 4 1 2 3 4 5 7 7 8 8 8 9 10 11 11 12 12 13 13 14 14 14 14 15 16 16 16 16
21 19 17 16 16 14 13 12 12 12 10 9 8 6 5 3 3 4 4 5 6 6 7 7 7 8 8 10 11 11 12 13 13 14 14 13 14 14 16 17 18 18 18
25 22 18 17 15 15 13 13 11 11 10 9 8 7 6 3 4 5 5 5 6 6 7 7 7 8 9 10 11 12 13 13 14 14 14 15 15 15 16 17 18 18 18
29 25 21 19 16 16 15 13 12 11 10 9 8 7 5 4 4 5 5 5 6 6 7 7 8 8 9 10 11 12 12 13 14 15 15 16 16 16 17 18 19 20 20
31 25 22 20 18 16 17 14 13 12 11 9 8 6 5 6 5 5 6 6 6 6 7 7 8 8 9 10 11 13 14 14 15 15 16 16 17 18 18 19 20 21 23
32 27 22 20 19 18 18 17 16 14 13 10 9 7 7 6 6 7 6 7 6 6 7 7 8 8 9 11 13 14 15 15 15 15 16 17 18 18 19 20 21 22 23
34 30 25 23 20 20 19 19 18 16 15 12 11 9 9 7 7 7 7 7 7 6 6 7 8 9 11 12 13 14 14 15 16 16 18 19 20 20 20 21 22 24 25
36 31 27 24 24 22 22 21 19 17 16 14 13 11 10 8 8 7 7 8 7 6 7 8 10 11 12 13 14 14 15 16 18 19 19 20 21 22 22 24 24 25 24
35 32 28 26 25 24 24 22 20 19 17 16 15 14 12 11 9 8 8 8 8 7 8 9 11 12 13 14 15 16 17 18 19 20 21 21 22 23 24 25 24 24 25
37 33 30 28 27 26 25 23 22 21 19 18 16 15 14 12 11 10 9 9 9 8 9 10 12 13 14 16 16 17 18 19 21 23 23 23 24 25 26 27 26 26 27
41 36 32 30 29 28 27 26 25 24 22 20 18 16 15 14 13 13 11 11 10 10 10 12 13 15 16 18 18 20 21 22 22 24 25 26 26 27 27 28 28 29 29
43 40 37 32 32 31 30 29 28 26 23 21 20 18 17 16 15 15 14 14 13 13 13 13 14 15 17 18 20 22 23 24 25 27 27 27 28 29 30 30 30 30 30
43 42 39 36 35 35 33 32 31 29 26 24 22 21 19 18 18 18 17 17 16 15 15 16 16 17 18 19 21 23 23 24 26 28 28 29 29 31 31 32 31 30 30
45 43 42 39 39 39 37 35 35 33 29 26 25 22 21 20 21 20 20 19 18 18 18 18 19 19 20 20 23 23 24 26 27 29 30 31 32 33 33 32 32 32 30
46 44 43 43 43 42 41 40 37 36 31 28 26 23 23 22 22 22 22 21 21 21 21 21 21 22 22 23 24 24 25 27 28 31 33 34 34 35 35 34 33 32 31
47 46 44 43 44 46 45 44 42 39 35 32 28 26 25 25 25 25 25 23 23 23 23 23 24 24 24 26 26 26 27 29 30 33 35 36 37 36 36 35 34 32 31
49 48 46 44 45 50 47 46 46 43 39 35 32 30 30 29 29 28 28 26 26 25 26 26 25 25 27 29 29 28 28 30 32 35 36 38 38 37 37 36 35 32 31
52 51 49 46 46 47 48 50 48 46 41 37 35 34 35 34 32 31 31 29 28 28 28 27 27 28 30 31 30 29 30 32 33 37 38 39 40 39 38 37 34 32 32
50 52 50 49 47 47 49 49 58 50 45 42 42 41 38 36 34 34 34 32 31 30 30 30 30 31 31 32 30 31 33 34 36 39 40 41 41 40 38 37 34 33 33
51 54 57 52 50 47 49 44 48 55 50 47 46 42 40 40 39 38 34 33 33 32 31 30 31 33 33 33 34 34 33 36 39 41 43 42 40 41 39 37 34 34 33
53 51 52 59 55 53 46 50 53 47 48 50 48 48 46 42 39 35 34 36 36 35 33 35 35 36 35 35 37 37 36 39 40 40 40 41 41 41 38 37 34 34 33
54 54 50 51 57 56 49 53 58 54 50 57 54 51 47 43 41 39 38 38 38 39 39 39 37 38 39 38 39 38 39 41 45 44 39 38 40 39 37 35 34 34 34
58 54 54 45 50 52 55 52 56 54 52 50 50 46 42 41 43 41 41 42 41 42 42 39 40 40 40 40 39 39 40 45 46 43 41 39 38 41 38 36 35 34 34
53 46 47 52 49 49 50 51 56 58 53 55 48 49 45 46 43 43 44 44 44 42 42 42 42 41 41 40 41 41 45 46 46 42 41 37 41 42 39 35 35 34 32

GFSSE_500_spd_093.txt.gz
Wind_Speed
16 14 16 16 16 15 14 13 12 9 8 5 4 4 4 4 3 2 1 1 2 3 5 6 7 6 7 7 8 9 9 10 11 12 13 14 14 14 15 15 16 17 17
18 17 16 16 15 15 14 13 12 10 9 7 6 6 6 5 4 2 1 2 3 4 5 6 5 6 5 7 8 9 9 10 10 12 13 14 14 15 15 16 17 18 18
21 21 18 16 16 15 14 13 11 11 10 9 8 7 7 6 4 3 2 3 4 4 5 5 6 6 7 8 9 9 10 11 11 13 13 14 15 15 16 17 17 18 19
23 22 19 18 17 16 14 13 12 12 11 10 10 8 7 6 4 4 3 4 4 4 4 5 5 6 7 8 9 9 10 11 12 12 13 14 15 15 16 17 18 19 20
25 23 21 19 18 17 15 13 13 11 10 10 9 8 8 6 5 4 4 4 4 4 5 5 6 6 7 8 9 10 11 12 12 13 13 14 14 16 17 18 18 19 20
29 25 22 20 19 17 16 13 13 10 9 9 9 9 8 6 6 4 5 5 4 5 5 5 6 6 7 8 9 10 11 12 12 13 13 14 15 16 17 18 19 19 20
31 29 26 23 20 17 16 16 13 12 10 10 10 9 8 8 5 4 5 5 5 5 5 5 5 6 7 8 9 10 11 12 13 14 14 15 16 17 18 19 20 22 23
32 30 29 26 23 19 17 17 16 14 13 12 12 10 9 7 5 6 6 5 5 5 4 4 5 6 7 8 9 11 12 13 14 15 16 17 17 18 19 20 22 23 23
33 31 29 25 24 21 18 18 18 17 15 14 13 11 10 7 7 7 6 5 5 5 4 4 5 5 7 9 11 12 13 14 15 16 17 18 19 20 20 22 23 23 23
36 34 30 27 26 24 21 20 20 19 18 17 16 13 11 9 9 8 7 6 6 6 5 5 5 6 8 9 11 13 14 16 16 18 19 20 20 21 22 23 24 25 25
38 35 31 28 29 27 24 22 22 21 20 19 18 15 13 12 10 9 8 7 6 7 6 6 6 8 9 11 12 13 15 17 17 19 21 22 23 23 23 24 26 26 25
38 36 32 29 29 30 27 24 24 24 23 21 20 17 15 13 12 10 10 8 8 8 8 8 8 10 11 12 14 15 17 18 18 19 22 23 23 24 25 26 27 27 27
40 37 34 30 29 31 28 26 26 26 24 22 20 18 17 15 14 12 11 9 10 10 10 10 11 12 13 14 16 17 19 20 20 21 23 25 26 25 26 28 30 29 29
41 39 37 32 30 31 30 29 28 27 26 23 21 19 18 16 15 14 13 12 12 12 13 13 13 15 15 16 17 19 20 22 21 23 24 25 27 28 29 29 31 30 29
42 42 41 35 32 32 33 32 31 30 29 26 24 23 20 19 17 16 16 15 15 14 15 15 15 17 18 19 19 20 22 24 24 25 25 27 29 30 31 31 31 31 32
45 44 43 39 35 32 34 36 34 34 32 29 26 25 22 22 21 20 19 18 18 18 17 17 17 18 19 20 21 22 24 26 26 27 27 29 32 32 33 33 32 32 32
47 45 43 42 40 38 36 37 38 37 35 32 29 27 26 25 23 23 22 21 21 21 21 20 20 21 21 21 22 23 25 26 27 28 29 32 34 35 35 35 34 32 32
47 47 46 44 43 42 40 38 39 40 38 36 33 30 30 27 26 26 25 24 24 24 23 23 23 23 23 23 23 24 27 27 28 30 31 34 37 38 37 37 34 33 33
53 48 47 47 46 44 42 42 41 43 42 40 39 34 33 32 30 31 30 28 27 26 26 25 24 25 25 25 25 26 28 28 29 32 33 36 38 41 40 37 36 33 33
53 52 51 48 48 45 43 43 43 46 45 43 42 39 38 38 35 35 33 31 30 29 28 25 26 26 26 26 26 28 29 30 32 33 34 38 39 43 42 40 36 35 34
53 54 54 53 50 46 44 44 43 44 49 44 44 45 45 43 41 39 37 35 33 30 28 28 28 27 26 25 27 29 31 33 32 34 36 39 41 45 42 39 35 34 34
55 53 54 55 55 53 49 43 44 44 44 48 48 51 50 48 46 43 42 37 34 31 30 30 30 28 28 29 31 33 33 35 34 35 38 39 45 45 40 38 35 37 36
56 56 53 52 49 56 54 50 47 44 46 48 51 56 55 51 47 48 46 40 37 34 32 31 32 32 32 33 34 35 37 36 36 37 36 40 43 43 41 38 37 39 38
61 58 57 55 48 40 52 55 50 51 49 43 43 49 58 55 57 54 52 47 43 41 37 34 33 35 35 35 33 38 39 39 39 38 38 43 43 41 39 36 38 40 39
58 58 59 55 52 47 51 51 54 56 50 49 47 53 54 51 54 58 48 37 41 40 38 36 35 36 37 36 38 38 39 41 40 40 42 47 45 41 39 38 39 42 38
63 55 59 58 53 55 53 47 51 43 53 54 57 53 58 56 57 55 54 50 41 41 36 37 37 37 37 38 39 41 39 40 42 46 49 51 43 42 40 40 41 39 36

GFSSE_500_spd_096.txt.gz
Wind_Speed
19 17 17 17 16 14 13 11 10 8 7 7 6 4 3 3 1 1 1 0 2 4 5 6 5 5 6 7 9 9 10 10 10 11 11 12 13 13 14 16 17 18 19
19 18 16 16 17 15 14 13 12 11 9 7 6 4 4 3 3 3 1 1 3 4 5 5 5 5 6 7 9 9 10 10 11 11 12 12 13 14 15 16 17 18 19
22 19 17 16 16 15 14 13 13 11 10 7 6 5 5 5 4 3 2 2 4 5 4 4 4 5 6 6 8 8 9 9 10 11 12 12 13 14 15 16 17 18 19
24 21 19 18 17 16 15 13 11 10 10 8 8 7 6 5 5 3 2 3 4 4 4 3 4 4 5 6 7 8 9 9 10 11 12 13 14 14 15 16 17 18 20
24 23 21 20 18 17 16 14 11 10 10 9 9 8 7 6 5 3 3 4 4 4 4 3 3 4 5 6 6 7 9 10 11 12 12 13 14 15 16 17 18 20 22
25 24 23 21 19 18 17 15 12 12 11 9 8 9 8 6 5 4 4 3 4 4 3 3 3 4 5 6 7 8 9 10 11 13 14 15 16 16 16 17 18 20 22
28 26 24 21 19 19 18 16 14 13 12 10 9 9 8 7 6 5 4 3 4 4 3 3 3 4 5 6 7 9 10 11 12 13 14 15 16 17 18 18 19 21 22
31 28 27 25 23 20 18 17 16 14 14 12 12 10 9 8 6 6 4 4 4 4 3 2 3 4 5 6 8 9 11 12 13 14 15 16 17 17 18 19 20 21 22
34 30 28 27 26 23 20 18 16 16 15 14 13 12 11 9 8 6 4 5 5 4 3 3 3 3 5 6 8 10 11 13 14 14 15 18 18 18 19 19 20 21 22
35 33 30 27 26 25 22 20 18 17 17 17 15 14 13 11 10 6 6 6 5 4 3 3 2 3 5 7 8 10 11 13 14 13 15 19 20 20 20 22 23 25 25
37 36 32 27 25 26 24 22 20 19 19 18 18 16 14 13 11 8 8 8 6 5 5 4 3 4 5 7 8 10 11 14 14 14 15 18 20 22 22 24 25 26 26
40 36 34 29 26 27 26 25 23 21 21 20 20 18 17 15 13 11 10 9 8 6 6 5 5 5 6 8 9 11 12 14 16 15 16 18 20 23 24 25 27 28 28
40 36 34 32 28 27 28 27 26 24 23 22 22 20 18 16 15 14 12 11 9 8 7 7 8 8 8 10 11 12 13 15 17 17 18 19 21 24 26 27 28 28 28
39 37 36 33 29 27 29 28 27 26 25 24 23 21 19 18 17 16 15 13 12 10 10 9 10 10 11 12 13 14 15 16 17 19 19 20 22 25 28 29 30 30 30
42 40 37 34 30 28 28 28 27 27 27 26 25 23 21 20 19 18 17 15 14 14 13 13 13 13 14 15 16 16 18 18 20 21 22 22 24 26 29 32 32 32 31
42 40 39 34 37 31 27 28 30 27 29 28 27 26 25 23 21 21 19 19 18 17 16 16 16 16 17 17 18 19 19 20 21 23 22 25 26 27 30 32 34 33 32
43 40 40 35 37 33 31 28 29 29 30 29 30 29 28 27 24 24 22 22 22 21 20 20 19 19 19 19 20 20 21 21 23 25 25 26 28 29 32 33 37 33 32
43 41 42 44 38 38 35 34 31 31 29 30 32 32 31 31 29 28 26 27 26 24 24 23 22 21 21 22 21 21 21 22 23 25 26 28 29 31 34 35 40 34 34
45 46 44 44 45 43 38 37 36 35 34 32 33 35 35 34 34 33 31 30 28 28 27 25 24 23 23 22 22 22 22 23 25 27 28 29 29 33 35 36 41 34 33
45 46 45 45 44 43 43 42 41 38 35 35 36 36 38 39 38 39 35 33 33 32 30 28 28 26 25 24 24 23 20 24 26 28 30 32 33 33 34 40 40 35 32
43 45 46 45 46 47 45 45 44 40 38 38 37 39 41 42 42 41 41 40 39 36 33 32 31 29 28 26 24 23 24 27 27 29 31 34 36 34 36 42 39 36 31
41 44 47 48 48 48 47 49 47 45 44 42 41 38 37 47 46 45 47 45 44 40 39 37 34 33 30 28 27 26 26 29 28 31 32 34 36 36 39 44 42 39 35
43 43 44 50 50 50 51 49 51 50 46 42 41 40 41 39 42 47 49 49 47 44 44 41 38 37 35 31 29 30 30 28 31 31 32 33 35 37 42 47 45 38 35
41 46 47 48 52 50 52 54 52 49 54 52 48 44 43 38 38 41 42 48 51 47 46 45 43 41 35 35 32 31 30 35 31 32 34 36 37 39 46 45 39 38 35
36 42 49 49 51 53 52 49 46 47 48 55 53 52 50 48 45 38 42 44 50 53 55 52 50 48 47 40 33 31 32 34 40 32 36 39 40 44 43 41 37 36 37
40 45 48 55 55 54 54 52 51 49 44 44 47 52 49 51 50 51 49 47 50 55 56 45 35 30 32 33 29 31 34 39 31 35 38 41 45 45 39 39 38 37 39

GFSSE_500_spd_099.txt.gz
Wind_Speed
21 19 18 17 14 11 9 8 7 7 6 6 5 4 4 3 2 2 2 1 2 4 5 6 5 4 4 6 7 8 8 8 8 8 9 10 10 11 12 14 14 15 16
22 20 19 19 18 15 12 10 9 10 8 7 6 5 5 5 3 3 2 2 3 4 5 5 4 3 5 6 7 8 8 7 8 9 9 10 10 11 13 13 15 16 17
23 22 20 18 17 15 14 12 11 11 10 8 7 6 5 5 5 4 2 2 3 4 4 4 3 3 4 5 6 7 7 7 9 10 10 11 12 13 13 14 15 16 18
26 23 20 19 17 16 14 13 13 12 11 9 8 7 6 6 6 4 3 4 3 4 3 3 3 3 4 5 6 6 7 8 10 10 11 12 12 13 14 15 15 18 19
26 23 21 19 18 16 14 13 13 12 11 10 9 8 7 7 6 5 4 4 4 4 3 2 2 2 3 4 5 6 8 9 10 10 11 12 13 14 15 15 16 17 18
26 25 23 20 20 16 14 14 13 12 11 11 10 10 9 8 7 5 4 4 4 3 3 2 1 1 3 4 6 7 8 9 9 11 12 13 14 14 14 15 17 18 19
27 25 22 21 20 17 16 15 14 13 12 11 11 10 10 9 7 6 5 6 4 3 3 2 1 1 3 4 5 6 7 9 9 10 11 13 14 14 15 16 17 19 20
28 26 23 22 20 18 17 15 15 13 12 12 11 11 11 10 9 7 7 6 5 3 3 2 1 1 2 3 5 6 7 8 8 10 11 14 14 15 16 18 20 21 22
32 28 26 24 22 20 18 16 14 15 13 12 12 12 12 11 10 9 8 6 4 4 4 3 2 1 1 2 4 6 7 8 9 8 10 12 13 15 17 18 20 21 22
33 30 28 26 23 22 21 18 16 15 15 14 14 14 13 12 11 10 8 7 5 6 5 4 3 2 1 1 2 4 5 8 9 8 9 11 13 16 18 19 21 23 23
34 33 32 28 24 22 22 20 19 17 16 16 15 15 15 14 13 12 10 9 8 8 7 6 5 4 3 2 3 4 5 7 8 9 9 11 13 16 18 20 23 25 25
35 35 34 29 26 24 22 22 20 19 18 17 17 17 17 17 15 14 12 11 10 9 9 7 7 5 5 5 5 5 6 8 9 11 11 12 14 17 19 21 24 27 26
39 39 37 33 29 26 25 24 22 21 20 19 19 19 19 18 17 17 15 13 13 12 10 9 8 8 8 8 7 8 8 9 10 11 13 14 14 18 19 23 25 28 28
41 39 37 36 31 29 26 26 24 22 21 21 21 21 21 20 19 18 18 16 15 15 13 11 11 11 11 12 11 11 11 12 13 13 15 15 16 18 20 23 26 29 32
44 41 38 35 33 30 26 26 26 23 23 22 22 23 23 23 22 20 19 18 17 17 15 14 14 14 14 15 14 14 14 14 14 15 16 17 17 19 22 24 28 31 34
43 42 40 37 35 32 26 25 24 23 23 23 23 24 25 24 23 22 20 20 20 19 18 17 16 17 18 18 17 17 17 17 17 17 18 18 18 20 21 24 28 31 35
43 44 42 39 35 33 27 25 24 22 23 22 22 25 25 25 24 24 24 24 23 22 21 20 20 20 21 20 19 19 19 20 19 18 18 19 20 22 23 25 28 30 34
52 44 45 43 38 33 28 32 27 26 24 21 23 25 26 26 26 28 27 27 25 26 25 24 24 24 24 23 22 21 21 21 22 21 20 21 23 24 26 28 31 32 37
44 47 46 44 38 34 33 31 32 30 28 26 27 26 27 27 29 30 30 30 30 30 30 27 27 27 28 26 25 24 23 24 24 21 21 23 24 27 28 29 32 34 37
43 44 44 44 40 36 40 40 34 33 32 30 31 29 30 29 32 33 34 34 35 33 33 33 30 30 30 29 28 27 25 26 24 24 24 26 27 27 30 31 32 35 38
42 42 42 42 38 36 41 41 39 37 38 38 36 34 32 34 35 37 38 39 38 37 38 37 36 34 33 32 32 30 27 28 27 27 26 28 30 29 30 33 34 36 41
40 40 39 40 40 39 39 39 39 40 40 44 43 39 35 37 38 37 40 35 43 43 43 41 39 39 38 35 34 34 31 33 32 31 29 32 35 32 32 34 36 37 38
41 38 39 41 40 42 41 43 44 44 45 44 46 45 43 42 40 41 42 38 38 40 45 46 48 45 42 38 38 38 37 36 35 33 31 37 32 33 32 34 35 39 38
42 40 39 40 41 41 41 44 47 48 48 47 43 45 48 45 44 42 41 40 33 34 41 44 39 44 44 40 40 39 40 38 40 35 35 31 36 32 32 33 37 37 32
41 39 37 36 36 38 43 46 50 52 51 52 46 48 49 47 49 49 47 46 46 42 34 30 30 38 39 42 43 48 35 35 35 35 38 37 33 30 31 34 37 34 33
41 39 37 37 38 40 43 47 52 53 53 51 48 49 48 49 52 43 45 47 44 46 47 41 36 39 42 45 43 35 38 36 39 39 35 30 33 30 32 34 35 33 33

GFSSE_500_spd_102.txt.gz
Wind_Speed
20 19 18 18 15 13 11 8 7 7 6 6 5 5 4 4 3 3 2 2 3 4 4 4 4 4 3 4 4 5 5 5 5 6 6 8 9 10 11 11 12 13 15
25 22 20 18 17 15 13 10 9 9 7 6 6 5 6 5 5 4 3 2 3 4 5 5 4 3 2 3 3 4 4 5 6 6 7 8 8 10 10 11 13 14 16
25 23 21 21 19 17 14 12 12 11 10 8 8 7 6 7 6 6 4 3 4 4 5 5 4 2 2 2 3 4 5 5 6 7 7 8 9 9 11 12 13 14 16
29 27 25 22 19 17 15 14 13 13 11 10 9 8 7 7 7 6 5 4 4 4 5 4 4 2 1 2 3 4 5 5 6 7 7 8 9 10 11 12 13 15 17
29 28 26 22 20 17 15 14 13 13 12 11 10 9 8 8 7 6 5 4 5 5 4 4 3 2 1 2 3 4 5 6 7 7 8 9 10 10 12 13 15 16 17
32 30 25 24 21 18 16 15 13 13 12 11 11 11 10 9 8 7 6 5 6 6 5 4 3 2 2 3 2 4 5 5 5 6 7 9 9 11 12 13 15 17 18
35 32 27 25 21 19 17 15 14 13 11 11 11 11 10 10 9 8 7 7 6 6 5 4 3 3 2 2 3 4 4 4 4 5 6 8 9 11 12 14 16 18 19
34 31 29 25 21 19 18 15 14 13 12 11 11 11 11 11 10 9 8 7 7 7 5 4 4 3 3 3 3 2 3 4 4 4 6 8 9 11 12 14 16 18 20
38 34 29 25 21 20 19 16 15 14 13 13 12 12 12 12 11 10 10 9 8 7 7 6 5 4 3 2 2 1 1 3 4 4 5 8 9 11 13 14 16 18 20
35 32 29 25 23 20 19 17 15 14 15 14 13 13 13 13 13 12 11 10 10 8 8 7 7 6 5 3 3 2 2 3 4 6 6 8 9 11 13 15 16 19 22
37 30 28 27 24 21 21 20 18 15 15 15 15 15 15 15 14 13 12 12 11 9 8 9 9 8 7 6 6 4 4 5 6 7 8 9 10 11 14 15 18 20 23
27 29 29 28 25 23 21 21 20 17 16 16 17 17 17 17 16 15 14 13 12 11 10 10 10 10 9 8 7 7 7 8 8 9 10 11 12 13 15 17 20 22 25
28 31 32 29 26 25 24 22 21 20 18 17 18 18 19 19 18 17 15 14 14 13 13 12 12 12 11 11 10 10 11 10 11 11 11 12 13 14 16 19 21 24 26
33 30 30 29 29 28 26 23 22 21 20 19 18 18 19 19 19 18 18 18 17 16 16 15 14 14 14 13 13 13 13 14 14 13 14 14 15 15 17 19 21 25 27
38 37 34 34 33 32 29 26 25 23 21 20 19 20 20 20 21 20 20 20 19 19 19 19 17 16 17 16 17 15 15 16 16 16 16 16 17 17 19 19 21 26 29
43 41 38 35 34 33 29 27 26 25 22 20 20 20 21 21 21 21 21 22 22 20 20 19 19 19 19 19 19 18 18 19 19 18 18 18 18 19 20 21 23 27 30
42 41 38 39 36 34 32 29 24 23 22 21 20 19 19 20 21 21 22 22 23 22 22 21 21 22 22 23 22 22 21 21 21 20 20 21 21 21 21 22 23 27 30
45 41 40 39 38 36 34 29 25 23 21 20 20 21 20 19 21 23 24 25 25 25 24 24 24 24 25 26 26 25 24 25 24 24 24 23 23 23 24 24 25 27 31
47 44 42 39 35 33 35 29 28 24 26 25 23 23 22 23 24 26 27 27 28 28 28 28 27 27 29 29 28 28 28 28 29 28 27 25 25 26 27 27 27 29 30
49 48 49 47 43 41 41 38 32 30 26 28 27 29 27 27 27 29 29 30 32 32 33 33 32 32 34 33 32 31 31 32 33 32 29 29 28 29 30 31 33 32 32
46 46 43 41 38 40 46 36 36 42 34 40 32 31 33 34 32 33 34 33 33 34 35 37 38 38 38 36 34 34 34 34 35 35 34 32 32 32 33 31 35 32 32
49 46 42 41 38 35 38 32 36 34 40 38 35 34 35 36 36 38 39 37 34 34 35 34 38 40 39 39 40 42 39 39 38 38 38 39 36 36 34 35 34 32 32
50 47 45 41 37 35 36 35 37 41 41 42 42 38 36 37 38 41 42 42 40 39 40 35 35 33 34 39 31 31 47 49 49 48 46 44 42 42 38 34 34 32 30
50 48 45 43 39 36 35 34 39 40 38 40 40 38 40 42 40 39 40 45 44 43 39 34 35 30 28 28 33 37 42 39 39 38 45 43 44 44 35 33 32 30 30
49 46 45 45 43 39 37 36 39 37 37 38 38 39 47 47 44 47 42 40 44 42 43 39 31 28 21 26 28 29 30 39 39 37 42 39 43 31 28 28 31 30 31
49 46 45 44 42 40 35 37 39 37 37 37 41 45 47 48 48 46 48 46 42 36 42 40 41 37 40 42 38 37 37 39 41 38 45 40 34 24 28 30 30 31 33

GFSSE_500_spd_105.txt.gz
Wind_Speed
23 20 18 17 16 14 12 10 8 6 5 6 5 5 5 4 3 2 2 2 3 5 5 7 7 6 4 3 3 4 4 5 5 5 5 6 7 9 10 11 12 14 16
29 25 22 20 18 17 14 12 10 7 6 6 6 6 6 5 5 3 3 2 3 5 5 6 6 5 4 3 2 2 3 4 5 5 6 7 8 10 10 12 13 15 17
26 25 22 21 21 19 17 14 12 10 9 7 7 7 6 6 6 4 4 3 4 5 6 6 6 5 4 2 1 2 3 4 4 5 6 7 8 10 11 12 13 15 16
28 25 24 23 22 20 19 16 14 12 11 9 8 7 7 6 6 6 4 4 5 5 5 6 6 5 3 2 1 2 3 3 3 4 5 7 8 9 10 11 13 14 16
31 28 25 24 23 21 19 18 16 13 12 11 10 10 9 8 7 7 5 4 5 6 6 7 5 4 2 1 1 1 2 2 3 4 5 7 8 9 10 12 14 15 16
34 30 28 25 24 21 19 17 16 14 13 12 11 11 10 10 8 7 6 5 6 6 6 6 5 3 2 1 1 1 2 3 3 5 5 6 7 8 10 12 14 16 17
34 33 29 27 25 20 20 17 17 15 13 12 12 12 11 11 10 9 7 6 6 6 6 6 5 3 3 2 1 1 1 2 4 5 5 7 7 9 11 13 15 16 18
38 35 31 29 26 22 20 17 17 16 13 13 12 12 12 12 11 9 8 8 7 7 7 6 5 4 4 3 2 1 2 3 4 5 5 7 8 10 12 13 15 16 19
42 39 33 30 27 23 21 18 17 16 14 14 13 13 12 11 11 9 9 8 8 8 8 7 6 6 5 5 4 4 4 5 5 5 7 8 9 11 13 13 16 18 19
42 40 36 32 29 25 22 20 18 16 15 14 14 14 13 12 12 11 10 9 9 9 8 8 6 7 8 7 6 6 6 6 7 7 8 9 10 12 13 15 17 19 20
50 43 37 33 29 25 23 21 18 16 14 15 15 15 14 14 14 12 11 10 11 10 9 8 8 9 9 9 8 8 9 8 9 10 9 10 11 13 14 16 18 20 21
45 43 39 33 29 25 22 21 20 18 16 15 16 16 16 15 15 14 13 12 12 11 10 10 9 10 11 12 11 10 11 12 11 12 12 12 13 15 16 17 19 21 22
55 46 37 32 27 25 23 21 19 19 18 16 15 16 17 17 16 16 15 15 15 14 13 12 12 12 12 13 14 14 14 14 14 14 14 15 16 17 18 19 20 21 23
47 45 33 28 27 25 22 21 19 19 19 19 17 16 17 18 18 18 17 17 16 16 15 15 15 14 14 15 15 16 16 16 16 16 17 18 18 19 20 21 21 21 25
35 29 29 30 29 27 24 21 20 20 19 19 20 19 17 18 18 19 19 19 19 18 18 18 17 17 16 16 16 17 19 19 19 19 19 20 20 21 22 22 22 23 26
32 33 29 36 30 27 23 23 23 22 21 21 21 20 20 19 19 19 20 20 20 20 20 20 19 19 20 19 19 19 20 21 21 22 21 23 23 24 24 24 24 25 26
47 37 35 22 30 26 26 26 24 22 22 22 22 21 20 20 20 21 21 22 21 22 22 22 22 21 22 22 22 21 20 22 24 24 24 25 26 26 26 25 26 27 29
45 34 46 36 31 27 29 29 25 23 23 23 22 22 21 20 21 22 23 24 24 24 23 24 25 24 26 27 26 26 24 24 25 27 27 29 29 29 28 27 28 28 30
46 51 42 37 32 28 29 34 30 27 26 26 23 23 23 22 23 23 24 24 25 26 26 27 28 28 30 31 31 31 30 28 29 29 29 31 31 32 31 29 31 31 32
54 47 49 41 37 39 38 36 33 31 27 26 24 25 25 24 23 24 25 26 27 28 29 30 30 30 32 35 36 37 35 32 32 33 32 33 33 34 35 35 35 34 32
50 43 47 42 40 38 35 35 34 29 26 30 24 26 26 27 27 26 28 29 30 30 30 32 33 32 34 37 37 41 38 36 39 38 37 39 37 36 37 39 39 38 38
55 46 42 41 41 39 38 44 39 39 39 37 36 31 33 33 30 30 32 32 33 33 33 34 34 35 39 44 37 36 38 40 42 45 44 45 42 45 46 42 43 43 42
41 41 42 43 44 42 35 32 31 33 35 44 38 33 33 35 34 33 33 34 36 37 39 39 40 41 39 35 36 28 25 36 38 30 35 41 43 40 39 42 44 45 43
45 41 37 39 36 35 34 31 34 34 29 28 29 27 31 34 35 37 36 38 38 37 36 37 37 40 40 36 24 24 26 24 26 32 33 33 39 39 43 41 42 44 34
52 47 42 38 38 41 38 37 37 34 35 36 30 29 28 31 34 38 41 42 42 44 40 35 33 31 32 31 35 28 32 33 35 31 31 38 43 41 43 43 43 37 30
53 52 50 46 44 39 41 41 40 40 39 37 35 31 32 31 33 33 35 38 40 39 40 36 36 33 37 40 42 35 36 37 37 36 33 35 38 43 42 43 36 31 31

GFSSE_500_spd_108.txt.gz
Wind_Speed
23 21 19 16 15 16 15 12 9 8 6 5 3 3 3 1 1 1 1 2 3 5 5 6 7 7 6 5 4 4 4 4 5 5 5 7 8 9 10 11 12 14 16
29 25 22 20 19 18 16 13 11 8 5 4 3 3 3 2 3 2 2 2 3 5 6 6 7 7 6 5 4 3 3 5 5 5 6 7 8 9 10 11 12 14 16
29 27 24 22 21 20 19 15 13 11 8 5 3 3 4 4 4 4 4 2 3 5 6 7 7 6 5 4 3 3 3 4 5 5 6 7 9 9 10 12 14 15 17
30 27 27 25 23 22 20 18 16 13 12 8 5 5 5 5 5 5 5 3 4 4 6 7 7 6 4 3 2 3 3 4 4 5 7 8 8 9 10 12 14 16 16
33 31 28 26 24 22 21 19 18 15 14 12 9 8 6 6 7 7 6 5 4 5 5 6 6 4 2 1 1 2 3 3 4 6 7 8 8 8 10 12 14 15 16
33 32 30 27 25 24 22 21 19 17 15 14 12 10 9 8 8 8 7 6 5 5 4 5 5 3 1 0 0 1 1 2 5 6 7 7 8 9 11 12 14 16 17
36 34 31 27 26 24 23 21 19 17 16 15 13 12 11 10 9 9 8 6 6 5 5 5 5 3 2 2 1 2 1 2 4 5 7 8 8 10 11 13 15 17 17
40 36 32 29 27 25 23 21 19 19 16 16 14 14 12 11 11 10 8 7 6 6 6 5 5 4 3 3 3 3 3 3 4 5 6 9 10 10 12 14 15 17 19
42 37 38 32 30 27 24 23 21 19 17 16 15 15 13 13 12 11 9 8 6 6 6 5 6 5 5 5 5 5 5 6 6 8 8 9 10 12 13 15 16 17 18
41 41 37 35 31 28 26 24 22 20 19 17 16 16 15 14 12 11 10 9 7 7 7 7 7 6 7 7 6 7 7 8 9 10 11 11 11 13 15 16 17 18 18
45 44 43 39 34 30 27 25 23 21 19 19 16 16 15 14 12 11 11 10 8 8 8 7 7 7 7 8 8 9 9 10 10 11 12 13 14 15 16 17 18 20 20
44 45 46 42 38 33 29 27 25 21 20 17 17 17 15 15 14 13 12 11 10 10 9 9 9 9 9 10 10 11 12 12 12 13 14 15 16 17 19 19 20 21 21
47 50 48 44 40 36 32 29 26 22 20 18 17 17 16 17 15 15 14 14 13 13 12 12 11 11 11 12 12 13 14 14 14 15 16 17 18 19 21 22 22 23 23
54 51 49 49 42 38 34 30 25 22 20 19 18 17 17 18 16 16 16 16 16 15 15 14 14 13 14 14 14 14 15 16 16 17 17 18 18 20 22 24 25 25 26
39 56 64 53 44 37 32 28 23 21 19 19 19 20 19 18 17 17 17 18 18 17 16 16 16 16 16 17 18 18 18 18 18 18 18 19 19 21 23 26 26 27 27
57 42 55 57 48 38 31 28 24 22 20 19 19 21 21 21 20 19 19 20 20 20 19 18 19 19 19 19 20 20 20 21 21 20 20 21 22 23 25 27 28 29 28
44 35 52 51 39 35 31 28 26 23 20 20 20 20 22 22 23 22 22 22 22 22 22 22 22 23 22 21 21 21 23 24 24 24 24 24 25 26 27 28 30 31 30
54 54 36 40 38 38 34 30 26 23 23 22 23 23 23 23 24 24 24 24 24 24 24 23 23 23 25 26 26 26 26 27 29 29 27 27 27 28 29 29 28 30 33
54 50 47 37 40 36 34 31 27 25 25 24 23 23 24 25 26 25 24 23 23 22 22 23 23 24 26 27 28 28 30 32 32 33 31 29 31 30 28 30 29 29 33
58 53 49 56 44 35 29 27 30 30 28 26 24 25 26 25 24 24 24 23 23 22 22 22 24 25 26 27 28 30 33 36 39 39 33 32 35 35 36 37 35 32 34
43 39 40 43 47 47 38 29 35 28 28 26 26 27 25 25 25 24 23 24 23 24 25 27 27 27 28 28 30 32 36 40 37 36 37 35 38 41 40 43 41 43 41
49 46 48 43 50 49 40 41 38 33 32 30 28 31 28 25 27 26 26 25 26 26 28 31 30 30 33 33 35 36 41 43 37 32 31 34 34 32 31 36 35 36 38
49 52 46 38 40 41 43 44 48 44 42 37 34 34 31 32 31 27 24 27 30 31 32 33 33 35 36 35 34 36 39 28 27 23 26 30 29 34 30 35 35 36 37
39 51 49 50 37 36 39 43 44 36 46 37 37 37 38 38 35 32 35 31 30 34 35 36 35 34 32 30 37 35 31 22 19 24 27 28 30 30 32 33 38 41 43
50 39 39 42 40 31 47 39 44 26 27 33 33 31 20 31 20 24 23 27 31 33 38 33 28 32 35 33 35 21 25 36 29 27 29 29 32 33 34 39 38 41 46
51 49 43 45 49 47 36 31 31 30 31 26 27 23 24 25 25 25 29 29 39 30 33 35 41 42 45 43 48 46 44 41 36 34 37 36 36 32 37 33 34 35 33

GFSSE_500_spd_111.txt.gz
Wind_Speed
24 23 21 19 17 16 17 15 12 11 9 8 7 5 4 3 3 2 1 2 3 5 6 7 7 6 5 4 4 4 5 6 6 7 7 7 8 9 9 10 12 13 15
31 29 26 24 20 18 17 16 14 12 11 9 7 5 4 3 2 2 1 0 2 4 5 6 6 7 5 4 4 4 5 6 7 6 6 7 8 9 9 11 12 14 15
31 30 28 25 21 20 19 19 18 15 12 10 8 7 6 4 3 3 3 2 2 3 5 6 7 6 5 4 3 4 5 5 6 6 6 7 8 8 9 11 12 14 15
32 30 29 26 23 22 21 21 20 18 15 11 8 7 6 5 4 4 4 3 2 3 4 4 5 5 3 2 3 3 4 5 6 5 6 7 8 8 10 12 14 15 15
34 30 30 28 25 24 22 21 20 18 16 14 11 8 6 5 4 4 5 4 3 3 3 4 4 4 1 1 2 2 3 4 4 5 6 8 8 8 10 12 14 15 15
38 35 33 30 28 26 25 23 21 19 17 16 15 12 9 7 5 6 6 5 5 3 4 3 4 3 2 1 1 1 1 2 4 5 6 7 8 9 11 12 13 15 15
41 37 36 34 30 27 26 25 23 21 19 17 16 16 13 10 8 9 8 7 6 5 3 4 4 4 3 2 1 1 1 2 4 5 7 8 9 10 11 14 15 15 15
42 38 37 36 33 29 27 26 25 23 21 19 18 17 15 13 12 11 10 9 7 5 4 4 4 4 4 3 3 3 3 4 5 6 8 9 10 12 14 15 16 17 17
44 41 39 37 34 31 28 26 25 24 22 20 19 18 16 15 14 13 11 9 7 5 5 4 4 5 5 5 5 5 5 5 6 7 9 10 11 13 15 17 18 19 19
49 46 42 39 36 32 30 28 26 25 23 22 20 19 17 15 14 13 12 10 8 6 6 5 5 5 6 6 6 6 7 8 8 9 10 11 13 14 16 18 18 19 20
53 49 46 42 37 35 33 30 28 26 24 23 22 21 18 16 15 13 13 11 10 8 7 7 7 6 7 7 8 9 10 10 10 10 12 13 13 14 16 18 19 20 20
58 52 48 44 42 38 35 32 29 28 25 25 24 22 19 17 16 14 13 12 13 10 9 9 8 7 8 9 10 10 11 12 12 12 13 13 14 14 16 18 19 20 21
57 55 50 43 42 39 37 33 31 29 27 25 24 23 20 18 17 15 15 14 14 12 11 11 10 9 9 10 11 12 13 14 14 15 15 16 15 16 17 18 20 22 22
59 54 50 48 45 42 40 37 33 30 29 27 25 24 22 19 18 16 16 15 15 15 13 13 13 13 13 13 13 13 15 16 16 17 18 17 17 17 19 20 22 23 23
60 58 53 50 46 44 42 39 35 33 31 29 27 24 22 20 19 18 18 17 18 17 17 16 16 16 16 17 17 17 17 18 18 18 19 20 19 19 20 22 24 24 24
63 67 62 56 52 47 43 41 38 36 34 32 29 25 23 22 20 18 19 18 20 20 19 19 19 19 19 18 19 19 20 20 20 20 21 23 23 23 25 25 26 26 26
45 57 59 56 54 52 47 44 40 37 34 31 30 27 24 24 23 22 21 20 21 21 20 21 21 21 21 20 20 21 22 23 23 24 25 27 27 27 28 29 30 30 26
48 37 49 60 55 56 52 44 39 37 35 32 30 28 25 24 25 25 24 24 23 22 22 22 22 21 22 22 22 23 24 25 26 27 27 28 30 31 31 30 29 30 32
43 46 55 57 65 62 52 47 40 36 36 35 33 30 27 26 26 26 24 23 23 23 21 22 22 22 23 23 22 22 24 24 25 28 30 31 33 34 32 32 31 31 34
39 46 39 29 64 57 51 43 42 41 39 36 32 29 28 28 29 27 23 22 22 22 22 21 22 22 21 21 23 24 24 25 27 29 30 34 34 32 33 34 35 36 36
40 44 46 46 44 44 34 49 46 40 35 32 30 29 28 27 26 25 24 23 22 22 22 24 24 23 23 24 26 27 29 29 30 34 38 39 34 31 30 33 31 29 28
54 49 51 49 46 41 47 41 37 34 35 37 34 31 30 28 27 27 25 26 25 25 27 26 26 25 26 27 30 32 33 31 32 36 39 36 31 27 26 28 31 34 34
52 54 52 56 55 52 44 44 45 46 48 44 41 35 34 32 28 27 25 26 25 26 26 28 28 30 28 30 29 29 28 29 31 29 26 26 27 27 28 28 29 31 35
44 65 48 44 49 56 50 55 53 47 45 44 42 38 37 34 30 29 28 31 32 27 29 32 30 31 31 30 28 21 23 28 19 19 25 25 24 26 32 31 32 34 35
62 49 35 46 60 63 64 61 51 53 53 53 49 44 40 37 34 32 30 34 24 27 34 35 30 23 24 24 24 35 37 38 40 44 40 36 30 34 29 32 36 38 36
48 47 48 46 42 43 40 46 50 43 47 36 36 42 34 34 27 29 31 27 25 30 27 29 29 32 31 34 34 37 38 40 43 42 41 42 45 42 41 45 45 41 37

GFSSE_500_spd_114.txt.gz
Wind_Speed
30 27 24 22 19 17 18 15 13 12 11 11 10 8 7 6 6 5 4 4 3 4 5 5 5 5 4 3 2 3 5 7 7 6 6 6 7 8 9 10 11 12 13
35 31 29 26 22 20 21 18 14 13 12 12 11 9 8 7 7 6 4 2 1 3 4 5 5 4 3 2 2 4 5 6 5 6 6 6 7 8 9 10 12 13 13
36 32 32 29 25 23 23 21 17 15 13 12 12 11 10 9 8 6 5 3 2 1 2 3 4 4 3 2 2 4 5 5 5 5 6 7 8 8 9 11 12 12 12
37 35 33 30 27 25 25 23 21 18 15 14 12 11 10 10 9 7 6 5 4 2 2 3 3 4 3 2 2 3 4 5 4 5 6 6 7 8 9 11 12 13 13
39 37 35 32 29 28 26 25 22 20 18 16 14 12 11 10 8 7 6 6 4 3 2 2 3 3 3 0 2 2 3 3 4 5 6 7 8 8 9 11 13 13 13
42 40 37 34 32 30 28 27 25 23 22 20 18 16 14 12 9 8 7 6 5 5 4 3 2 3 2 1 1 2 2 1 4 4 5 6 7 9 11 13 13 13 14
45 42 39 36 34 32 31 30 28 26 25 22 21 19 17 15 12 10 9 7 6 6 5 4 2 2 2 3 3 2 2 2 4 5 6 7 8 10 12 13 14 15 16
49 45 42 38 36 34 32 31 29 28 25 23 22 22 19 16 15 12 10 8 7 7 7 5 3 3 3 4 4 4 3 3 4 5 6 8 9 10 12 14 15 15 16
53 50 45 42 38 35 33 32 30 28 26 24 23 22 20 18 16 14 12 11 9 9 8 7 6 4 5 6 6 6 6 5 5 7 7 9 10 11 13 14 15 16 17
56 52 49 44 42 39 36 33 31 29 27 26 25 23 21 19 18 17 15 13 11 11 9 9 9 6 6 7 7 8 8 8 8 9 9 10 12 12 14 15 16 17 18
61 54 52 49 44 42 38 35 32 30 28 28 27 25 24 22 20 18 17 15 13 12 10 10 10 8 7 8 9 9 10 10 10 11 11 12 13 14 14 15 16 18 19
60 56 54 52 48 45 41 37 34 31 30 29 28 27 25 24 22 20 19 17 16 14 12 11 10 9 9 9 10 11 11 12 12 12 13 13 14 14 14 16 17 18 20
58 59 57 55 51 48 43 39 36 33 32 30 30 28 26 25 23 21 20 18 17 15 13 12 11 11 11 11 11 12 13 14 14 15 15 16 16 16 17 18 19 20 20
54 63 63 58 54 50 46 42 39 36 33 31 30 29 28 26 24 22 22 20 17 17 15 13 13 14 14 15 15 15 15 16 16 16 17 18 19 19 20 21 22 22 23
51 58 67 61 56 50 46 43 41 38 35 34 32 30 29 27 25 24 22 21 19 19 18 16 16 17 17 18 18 18 17 17 18 18 19 20 21 22 24 25 26 26 26
57 53 75 66 58 54 50 46 41 40 38 35 33 31 29 28 27 26 24 23 21 21 20 19 19 20 20 20 20 21 20 20 21 22 22 23 24 26 28 29 30 30 29
59 59 74 68 65 55 51 48 44 42 39 38 36 34 31 29 28 27 26 24 23 23 22 21 20 21 22 22 23 23 23 23 24 25 26 28 29 30 31 31 33 33 31
67 54 73 68 63 59 53 49 47 44 43 41 38 36 33 32 30 29 28 28 26 25 24 23 22 23 24 24 24 25 25 26 26 26 26 27 28 30 32 32 36 35 34
65 55 69 65 64 59 56 53 51 48 46 43 40 38 36 35 33 33 31 29 27 25 25 25 24 25 25 23 24 25 24 24 23 24 26 28 29 30 32 34 35 33 34
55 54 51 66 59 60 58 56 53 54 50 45 41 38 37 35 33 31 30 29 27 26 27 25 25 26 23 22 22 23 23 24 26 28 29 30 32 35 37 38 36 34 32
46 65 49 50 58 62 62 59 58 55 51 46 43 41 38 36 34 33 31 29 28 29 28 27 27 27 23 24 25 24 25 27 29 30 32 34 35 36 37 33 35 35 32
52 50 56 61 52 60 65 61 62 55 50 48 43 39 35 34 34 34 33 32 30 28 28 27 29 29 24 26 26 25 27 29 30 31 31 33 32 29 27 26 27 27 31
47 38 40 49 64 45 61 68 69 63 56 47 41 38 38 35 35 35 34 31 28 28 28 31 29 29 27 27 23 25 30 29 28 27 27 23 20 27 29 29 32 30 31
42 42 39 42 44 44 59 57 51 49 49 45 41 39 38 38 41 41 37 30 29 28 31 30 29 26 26 28 27 25 19 21 24 25 27 34 36 35 34 33 39 34 31
35 54 46 44 43 55 60 49 49 52 50 47 43 43 44 45 44 38 34 33 30 25 29 30 25 34 23 13 18 19 21 22 27 29 30 32 34 38 37 37 37 40 45
36 48 50 41 49 39 49 47 49 51 50 50 51 50 51 53 47 41 40 35 34 32 33 27 28 11 17 21 21 24 28 29 30 31 33 37 40 41 42 40 40 44 43

GFSSE_500_spd_117.txt.gz
Wind_Speed
30 31 29 26 23 20 17 15 15 15 13 11 11 11 9 8 9 9 6 4 2 3 4 5 5 5 4 3 3 4 4 6 6 6 6 7 8 9 10 11 12 11 12
37 34 32 30 26 24 20 17 17 18 15 14 13 12 10 9 9 9 8 6 3 1 2 3 4 4 4 3 3 5 6 5 5 6 6 7 7 9 10 11 12 12 12
39 38 35 32 29 27 23 20 19 19 16 16 15 14 12 11 10 10 8 6 4 2 0 2 3 4 3 2 4 5 5 5 5 5 6 7 8 9 10 11 12 12 13
43 40 38 35 32 29 26 23 22 21 18 16 16 15 13 11 11 10 9 6 4 3 1 1 2 3 3 2 4 4 5 5 4 5 6 6 8 9 10 12 13 13 13
43 41 40 38 34 32 28 26 24 23 19 17 16 15 15 12 12 11 9 7 6 3 3 1 1 2 1 2 3 3 5 4 4 4 5 6 8 9 10 11 12 13 14
45 44 42 40 37 35 31 29 27 25 23 20 18 17 15 13 12 12 10 8 7 5 4 3 1 1 1 2 3 4 4 2 3 4 5 6 7 8 9 10 11 13 14
50 47 46 43 40 37 34 32 31 29 27 24 21 20 18 15 14 12 11 10 8 7 6 5 3 2 3 3 4 4 3 1 2 3 4 5 7 9 10 11 12 13 15
53 50 48 46 43 40 37 35 34 32 30 28 26 24 22 19 17 15 14 12 10 8 7 6 5 4 4 4 5 5 5 3 3 4 5 7 8 10 11 12 13 14 15
60 52 53 49 46 43 40 37 36 35 32 31 29 26 24 22 20 19 17 14 12 10 9 8 7 7 6 6 6 6 6 5 6 6 7 8 8 10 11 12 13 14 15
62 56 54 52 48 46 43 40 38 36 35 33 30 27 25 24 23 21 19 17 14 13 11 9 7 8 7 7 7 8 8 8 9 9 9 10 11 11 12 13 14 15 16
58 62 56 56 51 48 45 42 39 38 36 34 32 30 27 25 24 22 21 19 17 14 13 11 9 9 9 8 9 10 10 10 11 12 12 13 14 14 14 15 16 17 18
63 66 57 60 55 52 48 44 42 40 38 34 32 29 28 27 26 24 23 20 17 16 14 12 11 10 10 10 10 10 11 12 13 14 14 15 16 17 18 19 20 20 21
71 65 49 60 60 56 52 48 45 42 38 35 32 31 29 28 26 24 23 21 19 18 16 14 13 12 12 12 11 12 13 13 14 14 16 17 18 18 20 21 22 24 25
75 75 54 60 62 60 55 52 48 44 38 36 34 32 30 29 27 27 24 23 22 20 18 16 15 15 15 15 15 14 14 15 16 17 18 18 20 22 23 24 25 27 28
86 69 62 56 69 63 58 54 50 44 41 38 36 34 32 32 31 29 27 25 24 22 19 19 18 17 17 18 18 17 17 18 19 20 21 22 23 24 26 28 29 30 31
74 71 77 50 71 64 59 55 51 47 43 40 38 36 35 34 32 31 29 27 25 23 21 21 21 20 20 21 20 20 20 20 22 22 23 25 26 27 28 30 30 31 32
78 67 49 52 66 62 61 58 53 49 45 42 39 38 37 36 34 32 30 28 26 25 24 24 24 23 22 22 22 22 23 23 24 25 26 27 28 28 27 29 30 33 34
37 50 72 55 67 67 63 57 52 48 45 42 40 40 38 36 35 34 32 31 29 28 27 27 25 24 22 22 23 24 24 24 24 26 27 27 27 27 28 30 32 33 35
56 39 84 52 64 71 66 59 54 52 49 46 44 42 40 38 37 35 33 32 31 29 28 26 24 23 22 23 25 24 23 23 23 25 26 26 28 30 30 31 35 37 36
64 60 63 68 61 72 68 63 59 56 52 49 46 45 43 42 40 38 36 35 32 30 29 26 24 24 25 25 25 22 22 22 24 27 29 29 30 31 32 35 37 41 34
85 48 46 57 53 79 76 67 62 56 52 50 49 47 46 43 42 41 38 34 33 33 28 26 25 27 26 25 22 20 23 25 28 29 30 31 30 32 34 32 30 29 29
75 50 57 52 36 70 73 61 61 56 53 51 49 49 46 45 45 39 35 36 36 31 30 27 28 27 26 22 21 24 25 28 28 27 29 29 24 27 27 24 31 33 32
62 42 45 46 59 58 68 61 60 58 57 55 55 53 49 47 40 40 40 39 35 32 29 30 29 26 24 25 27 26 24 25 23 18 17 20 23 24 26 29 32 34 34
75 50 44 45 44 65 60 62 61 58 54 57 55 52 48 46 44 45 40 40 37 34 30 31 28 28 29 27 24 24 7 8 12 13 18 22 27 29 32 33 35 37 38
61 57 42 48 49 48 61 62 63 62 62 60 56 55 54 50 48 44 42 41 40 33 32 31 35 31 28 27 22 5 8 9 15 15 18 22 23 28 32 33 34 37 40
61 43 43 48 49 53 54 59 64 65 63 60 61 62 56 52 49 46 43 44 41 38 38 34 26 30 27 14 6 7 9 13 15 17 20 20 22 30 34 33 35 36 37

GFSSE_500_spd_120.txt.gz
Wind_Speed
28 30 29 27 25 20 18 17 17 16 15 14 10 10 10 8 9 9 7 6 3 3 4 5 6 5 5 5 5 6 7 8 7 7 7 7 8 9 10 11 12 12 12
34 33 31 29 28 25 22 20 20 19 17 16 13 12 11 10 10 10 8 6 3 2 2 4 5 5 4 4 5 7 8 7 7 6 6 7 8 8 9 10 11 12 12
40 38 36 33 30 28 25 22 22 21 19 19 17 13 12 12 11 11 9 7 4 2 1 2 3 3 3 4 6 7 7 7 6 5 6 6 7 8 9 10 11 12 13
48 40 39 37 35 32 28 25 24 23 21 20 20 16 15 13 12 12 10 7 6 4 2 0 1 2 2 4 5 6 7 6 5 5 5 5 6 7 9 10 11 12 13
38 40 40 40 38 36 32 28 26 25 23 21 21 18 16 14 13 12 11 10 9 6 4 3 1 1 2 4 5 6 7 4 4 4 4 4 6 7 8 10 11 13 14
32 43 41 41 41 39 36 31 29 28 26 24 23 21 18 16 14 13 12 11 9 7 7 4 3 2 2 4 5 5 5 3 3 3 4 4 6 7 8 10 11 12 14
46 40 44 45 44 42 39 35 32 30 29 26 25 22 19 17 16 14 14 12 11 10 8 6 5 4 3 4 5 6 6 3 1 1 2 4 5 7 9 10 12 13 15
47 47 50 48 47 44 43 39 35 34 32 30 28 26 22 19 18 16 15 13 12 11 9 8 7 6 4 4 5 7 7 4 2 2 4 5 6 8 10 11 13 15 17
48 52 51 52 50 47 45 42 38 36 35 34 32 30 26 23 21 19 17 16 14 14 12 10 9 8 7 6 6 8 8 7 5 5 6 8 9 11 12 15 16 18 19
54 62 59 57 54 49 47 45 41 40 38 37 36 31 29 26 24 23 20 19 17 16 14 12 11 10 9 8 8 9 9 9 8 8 9 10 12 13 14 16 18 20 21
54 60 55 62 56 53 50 48 45 43 41 40 38 33 30 28 26 23 23 21 19 17 16 14 13 11 10 9 9 9 9 9 10 10 11 12 13 14 15 17 19 20 22
53 64 64 62 56 57 53 51 49 47 44 42 40 35 32 29 28 26 25 23 21 19 18 16 15 13 11 10 10 9 10 10 11 11 12 13 14 15 17 19 21 22 23
56 68 71 63 61 61 58 54 53 50 47 44 41 38 35 32 28 27 26 25 23 21 20 18 17 15 13 12 12 11 11 12 13 13 14 15 16 18 20 21 23 24 26
57 67 78 66 69 71 65 61 57 54 49 45 41 39 36 32 30 28 28 27 25 24 22 20 19 16 15 14 13 13 13 14 14 15 17 17 19 21 22 24 26 26 27
65 69 79 70 70 52 68 63 58 56 52 47 44 40 37 33 32 31 30 28 27 25 23 22 20 18 17 16 16 15 16 16 16 18 20 21 22 24 25 27 28 28 27
75 55 75 89 83 49 65 66 61 58 52 49 45 40 38 34 33 33 31 30 28 26 25 23 22 20 19 18 18 17 18 18 18 19 21 22 24 25 27 27 27 27 28
78 70 80 79 85 51 37 70 64 59 54 52 47 40 37 38 35 34 32 30 30 29 28 25 24 22 21 20 20 20 19 18 19 20 22 24 25 26 26 26 26 29 31
88 69 41 76 73 63 46 73 69 62 58 53 47 42 42 37 37 33 32 31 31 30 29 27 25 23 23 22 23 20 18 19 21 22 23 23 25 26 26 28 28 30 34
90 86 55 61 71 70 63 66 68 61 59 52 48 47 42 39 38 34 33 33 32 32 31 28 26 24 24 24 23 20 19 21 22 22 22 24 25 26 28 29 30 32 31
88 78 46 64 70 93 52 69 68 62 59 54 49 46 42 38 37 36 35 36 34 34 31 28 25 26 25 25 24 22 21 21 21 21 22 25 26 26 27 27 28 26 22
88 70 44 47 58 71 52 67 69 65 60 55 51 47 45 42 41 38 38 36 35 33 30 28 29 28 27 25 23 22 22 22 22 22 25 24 25 24 20 20 20 23 26
87 80 59 49 47 60 51 64 68 64 61 56 51 49 46 44 43 40 40 38 37 33 32 33 30 30 29 25 23 24 22 24 24 24 21 17 10 10 14 17 22 24 25
84 92 59 42 57 60 46 49 65 67 66 60 56 54 50 48 45 42 42 40 38 36 36 33 31 31 28 25 25 22 24 28 27 19 7 8 8 11 14 19 22 25 28
75 89 65 42 57 55 42 45 62 72 67 62 57 56 54 49 46 47 45 40 41 37 37 35 33 30 28 27 24 29 30 27 13 7 2 7 11 13 15 21 24 25 25
76 82 57 38 38 54 43 43 52 74 66 62 60 60 50 50 50 48 45 45 43 40 39 38 34 31 30 28 33 37 30 15 10 4 4 9 10 12 13 25 23 23 25
67 80 67 48 51 43 42 39 40 72 65 62 61 57 54 54 52 53 48 48 45 44 43 40 36 31 37 38 37 35 28 10 9 10 9 10 10 13 18 22 20 21 24